<?xml version="1.0" encoding="UTF-8"?>
<gpx version="1.1" creator="https://www.youtrack.es" xsi:schemaLocation="http://www.topografix.com/GPX/1/1 http://www.topografix.com/GPX/1/1/gpx.xsd http://www.garmin.com/xmlschemas/GpxExtensions/v3 http://www.garmin.com/xmlschemas/GpxExtensionsv3.xsd http://www.garmin.com/xmlschemas/TrackPointExtension/v1 http://www.garmin.com/xmlschemas/TrackPointExtensionv1.xsd" xmlns:gpxtpx="http://www.garmin.com/xmlschemas/TrackPointExtension/v1" xmlns:gpxx="http://www.garmin.com/xmlschemas/GpxExtensions/v3" xmlns:xsi="http://www.w3.org/2001/XMLSchema-instance">
  <metadata>
    <link href="https://www.youtrack.es">
      <text>YouTrack.es</text>
    </link>
    <time>2026-05-08T00:31:04Z</time>
  </metadata>
  <trk>
    <src>https://www.youtrack.es</src>
    <link href="https://www.youtrack.es/ruta/4655-gr8-1">
      <text>YouTrack.es</text>
    </link>
    <trkseg>
      <trkpt lat="40.730141" lon="-0.315673">
        <ele>665.446</ele>
        <time>2019-03-11T19:36:56Z</time>
      </trkpt>
      <trkpt lat="40.729524" lon="-0.316980">
        <ele>672.788</ele>
        <time>2019-03-11T19:37:36Z</time>
      </trkpt>
      <trkpt lat="40.728651" lon="-0.318105">
        <ele>680.916</ele>
        <time>2019-03-11T19:38:16Z</time>
      </trkpt>
      <trkpt lat="40.727725" lon="-0.318240">
        <ele>689.508</ele>
        <time>2019-03-11T19:38:56Z</time>
      </trkpt>
      <trkpt lat="40.727078" lon="-0.319015">
        <ele>694.946</ele>
        <time>2019-03-11T19:39:36Z</time>
      </trkpt>
      <trkpt lat="40.726771" lon="-0.319703">
        <ele>701.497</ele>
        <time>2019-03-11T19:40:16Z</time>
      </trkpt>
      <trkpt lat="40.726516" lon="-0.322265">
        <ele>707.262</ele>
        <time>2019-03-11T19:40:56Z</time>
      </trkpt>
      <trkpt lat="40.727304" lon="-0.324032">
        <ele>710.091</ele>
        <time>2019-03-11T19:41:36Z</time>
      </trkpt>
      <trkpt lat="40.727557" lon="-0.326696">
        <ele>702.766</ele>
        <time>2019-03-11T19:42:16Z</time>
      </trkpt>
      <trkpt lat="40.727137" lon="-0.327659">
        <ele>700.183</ele>
        <time>2019-03-11T19:42:56Z</time>
      </trkpt>
      <trkpt lat="40.727130" lon="-0.328060">
        <ele>702.133</ele>
        <time>2019-03-11T19:43:36Z</time>
      </trkpt>
      <trkpt lat="40.727246" lon="-0.328276">
        <ele>702.839</ele>
        <time>2019-03-11T19:44:16Z</time>
      </trkpt>
      <trkpt lat="40.727782" lon="-0.328483">
        <ele>701.221</ele>
        <time>2019-03-11T19:44:56Z</time>
      </trkpt>
      <trkpt lat="40.728379" lon="-0.330466">
        <ele>694.241</ele>
        <time>2019-03-11T19:45:36Z</time>
      </trkpt>
      <trkpt lat="40.728869" lon="-0.334265">
        <ele>692.105</ele>
        <time>2019-03-11T19:46:16Z</time>
      </trkpt>
      <trkpt lat="40.728815" lon="-0.334966">
        <ele>687.308</ele>
        <time>2019-03-11T19:46:56Z</time>
      </trkpt>
      <trkpt lat="40.728612" lon="-0.335315">
        <ele>688.914</ele>
        <time>2019-03-11T19:47:36Z</time>
      </trkpt>
      <trkpt lat="40.729280" lon="-0.336494">
        <ele>703.015</ele>
        <time>2019-03-11T19:48:16Z</time>
      </trkpt>
      <trkpt lat="40.729401" lon="-0.337114">
        <ele>702.690</ele>
        <time>2019-03-11T19:48:56Z</time>
      </trkpt>
      <trkpt lat="40.729250" lon="-0.338199">
        <ele>706.989</ele>
        <time>2019-03-11T19:49:36Z</time>
      </trkpt>
      <trkpt lat="40.729422" lon="-0.338709">
        <ele>699.534</ele>
        <time>2019-03-11T19:50:16Z</time>
      </trkpt>
      <trkpt lat="40.729152" lon="-0.339120">
        <ele>698.781</ele>
        <time>2019-03-11T19:50:56Z</time>
      </trkpt>
      <trkpt lat="40.728977" lon="-0.339782">
        <ele>700.481</ele>
        <time>2019-03-11T19:51:36Z</time>
      </trkpt>
      <trkpt lat="40.728156" lon="-0.340473">
        <ele>704.947</ele>
        <time>2019-03-11T19:52:16Z</time>
      </trkpt>
      <trkpt lat="40.727874" lon="-0.341044">
        <ele>707.375</ele>
        <time>2019-03-11T19:52:56Z</time>
      </trkpt>
      <trkpt lat="40.728041" lon="-0.342381">
        <ele>709.628</ele>
        <time>2019-03-11T19:53:36Z</time>
      </trkpt>
      <trkpt lat="40.727933" lon="-0.343146">
        <ele>705.420</ele>
        <time>2019-03-11T19:54:16Z</time>
      </trkpt>
      <trkpt lat="40.727731" lon="-0.343537">
        <ele>701.008</ele>
        <time>2019-03-11T19:54:56Z</time>
      </trkpt>
      <trkpt lat="40.727179" lon="-0.343890">
        <ele>706.459</ele>
        <time>2019-03-11T19:55:36Z</time>
      </trkpt>
      <trkpt lat="40.727225" lon="-0.344527">
        <ele>715.560</ele>
        <time>2019-03-11T19:56:16Z</time>
      </trkpt>
      <trkpt lat="40.726963" lon="-0.345377">
        <ele>718.215</ele>
        <time>2019-03-11T19:56:56Z</time>
      </trkpt>
      <trkpt lat="40.726617" lon="-0.345751">
        <ele>721.954</ele>
        <time>2019-03-11T19:57:36Z</time>
      </trkpt>
      <trkpt lat="40.726555" lon="-0.346295">
        <ele>718.719</ele>
        <time>2019-03-11T19:58:16Z</time>
      </trkpt>
      <trkpt lat="40.726035" lon="-0.347314">
        <ele>720.556</ele>
        <time>2019-03-11T19:58:56Z</time>
      </trkpt>
      <trkpt lat="40.725998" lon="-0.347861">
        <ele>725.216</ele>
        <time>2019-03-11T19:59:36Z</time>
      </trkpt>
      <trkpt lat="40.725791" lon="-0.348202">
        <ele>733.592</ele>
        <time>2019-03-11T20:00:16Z</time>
      </trkpt>
      <trkpt lat="40.725375" lon="-0.348330">
        <ele>732.846</ele>
        <time>2019-03-11T20:00:56Z</time>
      </trkpt>
      <trkpt lat="40.725186" lon="-0.348645">
        <ele>734.888</ele>
        <time>2019-03-11T20:01:36Z</time>
      </trkpt>
      <trkpt lat="40.724674" lon="-0.348880">
        <ele>739.316</ele>
        <time>2019-03-11T20:02:16Z</time>
      </trkpt>
      <trkpt lat="40.724333" lon="-0.349277">
        <ele>739.708</ele>
        <time>2019-03-11T20:02:56Z</time>
      </trkpt>
      <trkpt lat="40.724171" lon="-0.350333">
        <ele>749.846</ele>
        <time>2019-03-11T20:03:36Z</time>
      </trkpt>
      <trkpt lat="40.722052" lon="-0.353831">
        <ele>762.487</ele>
        <time>2019-03-11T20:04:16Z</time>
      </trkpt>
      <trkpt lat="40.721562" lon="-0.354838">
        <ele>770.182</ele>
        <time>2019-03-11T20:04:56Z</time>
      </trkpt>
      <trkpt lat="40.721361" lon="-0.355879">
        <ele>781.321</ele>
        <time>2019-03-11T20:05:36Z</time>
      </trkpt>
      <trkpt lat="40.720784" lon="-0.356334">
        <ele>780.216</ele>
        <time>2019-03-11T20:06:16Z</time>
      </trkpt>
      <trkpt lat="40.720465" lon="-0.357528">
        <ele>785.013</ele>
        <time>2019-03-11T20:06:56Z</time>
      </trkpt>
      <trkpt lat="40.719200" lon="-0.359644">
        <ele>806.083</ele>
        <time>2019-03-11T20:07:36Z</time>
      </trkpt>
      <trkpt lat="40.718327" lon="-0.361698">
        <ele>823.899</ele>
        <time>2019-03-11T20:08:16Z</time>
      </trkpt>
      <trkpt lat="40.717841" lon="-0.362078">
        <ele>821.122</ele>
        <time>2019-03-11T20:08:56Z</time>
      </trkpt>
      <trkpt lat="40.717406" lon="-0.363605">
        <ele>802.662</ele>
        <time>2019-03-11T20:09:36Z</time>
      </trkpt>
      <trkpt lat="40.716979" lon="-0.363757">
        <ele>798.108</ele>
        <time>2019-03-11T20:10:16Z</time>
      </trkpt>
      <trkpt lat="40.716669" lon="-0.364152">
        <ele>793.108</ele>
        <time>2019-03-11T20:10:56Z</time>
      </trkpt>
      <trkpt lat="40.716995" lon="-0.364799">
        <ele>792.484</ele>
        <time>2019-03-11T20:11:36Z</time>
      </trkpt>
      <trkpt lat="40.717222" lon="-0.364926">
        <ele>784.175</ele>
        <time>2019-03-11T20:12:16Z</time>
      </trkpt>
      <trkpt lat="40.717178" lon="-0.365369">
        <ele>786.120</ele>
        <time>2019-03-11T20:12:56Z</time>
      </trkpt>
      <trkpt lat="40.717358" lon="-0.366065">
        <ele>782.119</ele>
        <time>2019-03-11T20:13:36Z</time>
      </trkpt>
      <trkpt lat="40.717776" lon="-0.366037">
        <ele>779.064</ele>
        <time>2019-03-11T20:14:16Z</time>
      </trkpt>
      <trkpt lat="40.718148" lon="-0.366591">
        <ele>779.511</ele>
        <time>2019-03-11T20:14:56Z</time>
      </trkpt>
      <trkpt lat="40.718560" lon="-0.366676">
        <ele>776.911</ele>
        <time>2019-03-11T20:15:36Z</time>
      </trkpt>
      <trkpt lat="40.718932" lon="-0.367021">
        <ele>773.977</ele>
        <time>2019-03-11T20:16:16Z</time>
      </trkpt>
      <trkpt lat="40.719219" lon="-0.366912">
        <ele>766.866</ele>
        <time>2019-03-11T20:16:56Z</time>
      </trkpt>
      <trkpt lat="40.719465" lon="-0.366586">
        <ele>763.629</ele>
        <time>2019-03-11T20:17:36Z</time>
      </trkpt>
      <trkpt lat="40.720098" lon="-0.366626">
        <ele>757.821</ele>
        <time>2019-03-11T20:18:16Z</time>
      </trkpt>
      <trkpt lat="40.720504" lon="-0.366278">
        <ele>751.008</ele>
        <time>2019-03-11T20:18:56Z</time>
      </trkpt>
      <trkpt lat="40.721533" lon="-0.366786">
        <ele>751.898</ele>
        <time>2019-03-11T20:19:36Z</time>
      </trkpt>
      <trkpt lat="40.722173" lon="-0.366432">
        <ele>747.119</ele>
        <time>2019-03-11T20:20:16Z</time>
      </trkpt>
      <trkpt lat="40.722665" lon="-0.366435">
        <ele>741.624</ele>
        <time>2019-03-11T20:20:56Z</time>
      </trkpt>
      <trkpt lat="40.723796" lon="-0.367213">
        <ele>740.383</ele>
        <time>2019-03-11T20:21:36Z</time>
      </trkpt>
      <trkpt lat="40.725219" lon="-0.367809">
        <ele>729.198</ele>
        <time>2019-03-11T20:22:16Z</time>
      </trkpt>
      <trkpt lat="40.725463" lon="-0.368226">
        <ele>729.295</ele>
        <time>2019-03-11T20:22:56Z</time>
      </trkpt>
      <trkpt lat="40.725607" lon="-0.368987">
        <ele>720.035</ele>
        <time>2019-03-11T20:23:36Z</time>
      </trkpt>
      <trkpt lat="40.726266" lon="-0.369380">
        <ele>720.871</ele>
        <time>2019-03-11T20:24:16Z</time>
      </trkpt>
      <trkpt lat="40.726232" lon="-0.370073">
        <ele>728.994</ele>
        <time>2019-03-11T20:24:56Z</time>
      </trkpt>
      <trkpt lat="40.726616" lon="-0.370270">
        <ele>727.257</ele>
        <time>2019-03-11T20:25:36Z</time>
      </trkpt>
      <trkpt lat="40.726651" lon="-0.370443">
        <ele>729.722</ele>
        <time>2019-03-11T20:26:16Z</time>
      </trkpt>
      <trkpt lat="40.725820" lon="-0.372862">
        <ele>755.808</ele>
        <time>2019-03-11T20:26:56Z</time>
      </trkpt>
      <trkpt lat="40.725438" lon="-0.373167">
        <ele>769.261</ele>
        <time>2019-03-11T20:27:36Z</time>
      </trkpt>
      <trkpt lat="40.725428" lon="-0.373325">
        <ele>771.442</ele>
        <time>2019-03-11T20:28:16Z</time>
      </trkpt>
      <trkpt lat="40.725605" lon="-0.374966">
        <ele>789.597</ele>
        <time>2019-03-11T20:28:56Z</time>
      </trkpt>
      <trkpt lat="40.725981" lon="-0.375616">
        <ele>794.256</ele>
        <time>2019-03-11T20:29:36Z</time>
      </trkpt>
      <trkpt lat="40.726012" lon="-0.376203">
        <ele>799.811</ele>
        <time>2019-03-11T20:30:16Z</time>
      </trkpt>
      <trkpt lat="40.725844" lon="-0.376295">
        <ele>803.798</ele>
        <time>2019-03-11T20:30:56Z</time>
      </trkpt>
      <trkpt lat="40.725206" lon="-0.375297">
        <ele>802.298</ele>
        <time>2019-03-11T20:31:36Z</time>
      </trkpt>
      <trkpt lat="40.724770" lon="-0.375053">
        <ele>805.344</ele>
        <time>2019-03-11T20:32:16Z</time>
      </trkpt>
      <trkpt lat="40.724471" lon="-0.374628">
        <ele>806.651</ele>
        <time>2019-03-11T20:32:56Z</time>
      </trkpt>
      <trkpt lat="40.724141" lon="-0.374577">
        <ele>808.501</ele>
        <time>2019-03-11T20:33:36Z</time>
      </trkpt>
      <trkpt lat="40.724105" lon="-0.375080">
        <ele>814.111</ele>
        <time>2019-03-11T20:34:16Z</time>
      </trkpt>
      <trkpt lat="40.724540" lon="-0.375789">
        <ele>823.508</ele>
        <time>2019-03-11T20:34:56Z</time>
      </trkpt>
      <trkpt lat="40.725252" lon="-0.377651">
        <ele>830.167</ele>
        <time>2019-03-11T20:35:36Z</time>
      </trkpt>
      <trkpt lat="40.725155" lon="-0.378078">
        <ele>831.958</ele>
        <time>2019-03-11T20:36:16Z</time>
      </trkpt>
      <trkpt lat="40.724546" lon="-0.378846">
        <ele>824.513</ele>
        <time>2019-03-11T20:36:56Z</time>
      </trkpt>
      <trkpt lat="40.723827" lon="-0.379441">
        <ele>810.812</ele>
        <time>2019-03-11T20:37:36Z</time>
      </trkpt>
      <trkpt lat="40.723427" lon="-0.379553">
        <ele>810.027</ele>
        <time>2019-03-11T20:38:16Z</time>
      </trkpt>
      <trkpt lat="40.723451" lon="-0.379814">
        <ele>806.784</ele>
        <time>2019-03-11T20:38:56Z</time>
      </trkpt>
      <trkpt lat="40.724054" lon="-0.380090">
        <ele>807.974</ele>
        <time>2019-03-11T20:39:36Z</time>
      </trkpt>
      <trkpt lat="40.724301" lon="-0.381144">
        <ele>805.730</ele>
        <time>2019-03-11T20:40:16Z</time>
      </trkpt>
      <trkpt lat="40.724833" lon="-0.381218">
        <ele>800.349</ele>
        <time>2019-03-11T20:40:56Z</time>
      </trkpt>
      <trkpt lat="40.725040" lon="-0.381068">
        <ele>797.202</ele>
        <time>2019-03-11T20:41:36Z</time>
      </trkpt>
      <trkpt lat="40.725143" lon="-0.381462">
        <ele>790.422</ele>
        <time>2019-03-11T20:42:16Z</time>
      </trkpt>
      <trkpt lat="40.724918" lon="-0.381837">
        <ele>781.508</ele>
        <time>2019-03-11T20:42:56Z</time>
      </trkpt>
      <trkpt lat="40.724944" lon="-0.382083">
        <ele>776.636</ele>
        <time>2019-03-11T20:43:36Z</time>
      </trkpt>
      <trkpt lat="40.724432" lon="-0.382535">
        <ele>760.667</ele>
        <time>2019-03-11T20:44:16Z</time>
      </trkpt>
      <trkpt lat="40.724110" lon="-0.383119">
        <ele>749.942</ele>
        <time>2019-03-11T20:44:56Z</time>
      </trkpt>
      <trkpt lat="40.724170" lon="-0.383483">
        <ele>748.081</ele>
        <time>2019-03-11T20:45:36Z</time>
      </trkpt>
      <trkpt lat="40.723851" lon="-0.384350">
        <ele>745.346</ele>
        <time>2019-03-11T20:46:16Z</time>
      </trkpt>
      <trkpt lat="40.724059" lon="-0.384685">
        <ele>743.533</ele>
        <time>2019-03-11T20:46:56Z</time>
      </trkpt>
      <trkpt lat="40.724100" lon="-0.385626">
        <ele>742.123</ele>
        <time>2019-03-11T20:47:36Z</time>
      </trkpt>
      <trkpt lat="40.723889" lon="-0.386036">
        <ele>736.939</ele>
        <time>2019-03-11T20:48:16Z</time>
      </trkpt>
      <trkpt lat="40.724142" lon="-0.386712">
        <ele>738.926</ele>
        <time>2019-03-11T20:48:56Z</time>
      </trkpt>
      <trkpt lat="40.723928" lon="-0.387410">
        <ele>730.847</ele>
        <time>2019-03-11T20:49:36Z</time>
      </trkpt>
      <trkpt lat="40.724026" lon="-0.387948">
        <ele>738.611</ele>
        <time>2019-03-11T20:50:16Z</time>
      </trkpt>
      <trkpt lat="40.724179" lon="-0.388028">
        <ele>736.608</ele>
        <time>2019-03-11T20:50:56Z</time>
      </trkpt>
      <trkpt lat="40.724456" lon="-0.387932">
        <ele>730.254</ele>
        <time>2019-03-11T20:51:36Z</time>
      </trkpt>
      <trkpt lat="40.724536" lon="-0.387689">
        <ele>722.965</ele>
        <time>2019-03-11T20:52:16Z</time>
      </trkpt>
      <trkpt lat="40.724794" lon="-0.387687">
        <ele>713.510</ele>
        <time>2019-03-11T20:52:56Z</time>
      </trkpt>
      <trkpt lat="40.724637" lon="-0.387794">
        <ele>718.959</ele>
        <time>2019-03-11T20:53:36Z</time>
      </trkpt>
      <trkpt lat="40.724747" lon="-0.388937">
        <ele>683.534</ele>
        <time>2019-03-11T20:54:16Z</time>
      </trkpt>
      <trkpt lat="40.724815" lon="-0.388819">
        <ele>683.551</ele>
        <time>2019-03-11T20:54:56Z</time>
      </trkpt>
      <trkpt lat="40.724853" lon="-0.389043">
        <ele>662.471</ele>
        <time>2019-03-11T20:55:36Z</time>
      </trkpt>
      <trkpt lat="40.724965" lon="-0.388757">
        <ele>682.047</ele>
        <time>2019-03-11T20:56:16Z</time>
      </trkpt>
      <trkpt lat="40.725084" lon="-0.388837">
        <ele>664.718</ele>
        <time>2019-03-11T20:56:56Z</time>
      </trkpt>
      <trkpt lat="40.725700" lon="-0.389788">
        <ele>637.798</ele>
        <time>2019-03-11T20:57:36Z</time>
      </trkpt>
      <trkpt lat="40.725776" lon="-0.390445">
        <ele>625.817</ele>
        <time>2019-03-11T20:58:16Z</time>
      </trkpt>
      <trkpt lat="40.725417" lon="-0.390642">
        <ele>618.708</ele>
        <time>2019-03-11T20:58:56Z</time>
      </trkpt>
      <trkpt lat="40.725797" lon="-0.390764">
        <ele>622.843</ele>
        <time>2019-03-11T20:59:36Z</time>
      </trkpt>
      <trkpt lat="40.725822" lon="-0.391105">
        <ele>618.824</ele>
        <time>2019-03-11T21:00:16Z</time>
      </trkpt>
      <trkpt lat="40.726012" lon="-0.391350">
        <ele>616.559</ele>
        <time>2019-03-11T21:00:56Z</time>
      </trkpt>
      <trkpt lat="40.727443" lon="-0.392047">
        <ele>613.238</ele>
        <time>2019-03-11T21:01:36Z</time>
      </trkpt>
      <trkpt lat="40.727775" lon="-0.392036">
        <ele>613.383</ele>
        <time>2019-03-11T21:02:16Z</time>
      </trkpt>
      <trkpt lat="40.728087" lon="-0.391818">
        <ele>610.710</ele>
        <time>2019-03-11T21:02:56Z</time>
      </trkpt>
      <trkpt lat="40.728757" lon="-0.392473">
        <ele>623.950</ele>
        <time>2019-03-11T21:03:36Z</time>
      </trkpt>
      <trkpt lat="40.729529" lon="-0.391896">
        <ele>628.646</ele>
        <time>2019-03-11T21:04:16Z</time>
      </trkpt>
      <trkpt lat="40.729529" lon="-0.391896">
        <ele>628.646</ele>
        <time>2019-03-11T19:38:27Z</time>
      </trkpt>
      <trkpt lat="40.729553" lon="-0.391880">
        <ele>628.688</ele>
        <time>2019-03-11T19:39:07Z</time>
      </trkpt>
      <trkpt lat="40.729632" lon="-0.391844">
        <ele>627.116</ele>
        <time>2019-03-11T19:39:47Z</time>
      </trkpt>
      <trkpt lat="40.729753" lon="-0.391837">
        <ele>629.408</ele>
        <time>2019-03-11T19:40:27Z</time>
      </trkpt>
      <trkpt lat="40.729902" lon="-0.391852">
        <ele>631.716</ele>
        <time>2019-03-11T19:41:07Z</time>
      </trkpt>
      <trkpt lat="40.729978" lon="-0.391817">
        <ele>630.457</ele>
        <time>2019-03-11T19:41:47Z</time>
      </trkpt>
      <trkpt lat="40.730061" lon="-0.391773">
        <ele>631.382</ele>
        <time>2019-03-11T19:42:27Z</time>
      </trkpt>
      <trkpt lat="40.730162" lon="-0.391750">
        <ele>631.391</ele>
        <time>2019-03-11T19:43:07Z</time>
      </trkpt>
      <trkpt lat="40.730216" lon="-0.391797">
        <ele>631.337</ele>
        <time>2019-03-11T19:43:47Z</time>
      </trkpt>
      <trkpt lat="40.730285" lon="-0.391800">
        <ele>631.314</ele>
        <time>2019-03-11T19:44:27Z</time>
      </trkpt>
      <trkpt lat="40.730489" lon="-0.391783">
        <ele>630.685</ele>
        <time>2019-03-11T19:45:07Z</time>
      </trkpt>
      <trkpt lat="40.730513" lon="-0.391740">
        <ele>630.635</ele>
        <time>2019-03-11T19:45:47Z</time>
      </trkpt>
      <trkpt lat="40.730520" lon="-0.391663">
        <ele>629.824</ele>
        <time>2019-03-11T19:46:27Z</time>
      </trkpt>
      <trkpt lat="40.730522" lon="-0.391604">
        <ele>629.804</ele>
        <time>2019-03-11T19:47:07Z</time>
      </trkpt>
      <trkpt lat="40.730527" lon="-0.391469">
        <ele>627.814</ele>
        <time>2019-03-11T19:47:47Z</time>
      </trkpt>
      <trkpt lat="40.730589" lon="-0.391344">
        <ele>626.508</ele>
        <time>2019-03-11T19:48:27Z</time>
      </trkpt>
      <trkpt lat="40.730640" lon="-0.391266">
        <ele>624.064</ele>
        <time>2019-03-11T19:49:07Z</time>
      </trkpt>
      <trkpt lat="40.730641" lon="-0.391231">
        <ele>624.025</ele>
        <time>2019-03-11T19:49:47Z</time>
      </trkpt>
      <trkpt lat="40.730642" lon="-0.391200">
        <ele>624.060</ele>
        <time>2019-03-11T19:50:27Z</time>
      </trkpt>
      <trkpt lat="40.730654" lon="-0.391176">
        <ele>624.019</ele>
        <time>2019-03-11T19:51:07Z</time>
      </trkpt>
      <trkpt lat="40.730682" lon="-0.391177">
        <ele>624.055</ele>
        <time>2019-03-11T19:51:47Z</time>
      </trkpt>
      <trkpt lat="40.730758" lon="-0.391183">
        <ele>624.062</ele>
        <time>2019-03-11T19:52:27Z</time>
      </trkpt>
      <trkpt lat="40.730860" lon="-0.391139">
        <ele>621.653</ele>
        <time>2019-03-11T19:53:07Z</time>
      </trkpt>
      <trkpt lat="40.730901" lon="-0.391068">
        <ele>619.343</ele>
        <time>2019-03-11T19:53:47Z</time>
      </trkpt>
      <trkpt lat="40.730934" lon="-0.391046">
        <ele>619.311</ele>
        <time>2019-03-11T19:54:27Z</time>
      </trkpt>
      <trkpt lat="40.730949" lon="-0.391036">
        <ele>618.021</ele>
        <time>2019-03-11T19:55:07Z</time>
      </trkpt>
      <trkpt lat="40.731009" lon="-0.391101">
        <ele>618.003</ele>
        <time>2019-03-11T19:55:47Z</time>
      </trkpt>
      <trkpt lat="40.731120" lon="-0.391215">
        <ele>620.008</ele>
        <time>2019-03-11T19:56:27Z</time>
      </trkpt>
      <trkpt lat="40.731209" lon="-0.391269">
        <ele>618.973</ele>
        <time>2019-03-11T19:57:07Z</time>
      </trkpt>
      <trkpt lat="40.731326" lon="-0.391244">
        <ele>618.414</ele>
        <time>2019-03-11T19:57:47Z</time>
      </trkpt>
      <trkpt lat="40.731413" lon="-0.391187">
        <ele>618.439</ele>
        <time>2019-03-11T19:58:27Z</time>
      </trkpt>
      <trkpt lat="40.731502" lon="-0.391161">
        <ele>618.528</ele>
        <time>2019-03-11T19:59:07Z</time>
      </trkpt>
      <trkpt lat="40.731626" lon="-0.391140">
        <ele>618.594</ele>
        <time>2019-03-11T19:59:47Z</time>
      </trkpt>
      <trkpt lat="40.731702" lon="-0.391107">
        <ele>618.921</ele>
        <time>2019-03-11T20:00:27Z</time>
      </trkpt>
      <trkpt lat="40.731769" lon="-0.391030">
        <ele>618.942</ele>
        <time>2019-03-11T20:01:07Z</time>
      </trkpt>
      <trkpt lat="40.731814" lon="-0.391009">
        <ele>618.992</ele>
        <time>2019-03-11T20:01:47Z</time>
      </trkpt>
      <trkpt lat="40.731930" lon="-0.391032">
        <ele>620.444</ele>
        <time>2019-03-11T20:02:27Z</time>
      </trkpt>
      <trkpt lat="40.732097" lon="-0.391067">
        <ele>623.905</ele>
        <time>2019-03-11T20:03:07Z</time>
      </trkpt>
      <trkpt lat="40.732264" lon="-0.391144">
        <ele>625.215</ele>
        <time>2019-03-11T20:03:47Z</time>
      </trkpt>
      <trkpt lat="40.732398" lon="-0.391200">
        <ele>628.408</ele>
        <time>2019-03-11T20:04:27Z</time>
      </trkpt>
      <trkpt lat="40.732514" lon="-0.391256">
        <ele>628.466</ele>
        <time>2019-03-11T20:05:07Z</time>
      </trkpt>
      <trkpt lat="40.732744" lon="-0.391360">
        <ele>631.717</ele>
        <time>2019-03-11T20:05:47Z</time>
      </trkpt>
      <trkpt lat="40.732843" lon="-0.391429">
        <ele>631.782</ele>
        <time>2019-03-11T20:06:27Z</time>
      </trkpt>
      <trkpt lat="40.732945" lon="-0.391469">
        <ele>635.281</ele>
        <time>2019-03-11T20:07:07Z</time>
      </trkpt>
      <trkpt lat="40.733053" lon="-0.391490">
        <ele>631.537</ele>
        <time>2019-03-11T20:07:47Z</time>
      </trkpt>
      <trkpt lat="40.733135" lon="-0.391538">
        <ele>635.234</ele>
        <time>2019-03-11T20:08:27Z</time>
      </trkpt>
      <trkpt lat="40.733251" lon="-0.391593">
        <ele>635.295</ele>
        <time>2019-03-11T20:09:07Z</time>
      </trkpt>
      <trkpt lat="40.733303" lon="-0.391652">
        <ele>638.985</ele>
        <time>2019-03-11T20:09:47Z</time>
      </trkpt>
      <trkpt lat="40.733361" lon="-0.391733">
        <ele>636.485</ele>
        <time>2019-03-11T20:10:27Z</time>
      </trkpt>
      <trkpt lat="40.733379" lon="-0.391820">
        <ele>636.489</ele>
        <time>2019-03-11T20:11:07Z</time>
      </trkpt>
      <trkpt lat="40.733368" lon="-0.391894">
        <ele>634.517</ele>
        <time>2019-03-11T20:11:47Z</time>
      </trkpt>
      <trkpt lat="40.733347" lon="-0.391980">
        <ele>634.508</ele>
        <time>2019-03-11T20:12:27Z</time>
      </trkpt>
      <trkpt lat="40.733358" lon="-0.392059">
        <ele>631.550</ele>
        <time>2019-03-11T20:13:07Z</time>
      </trkpt>
      <trkpt lat="40.733445" lon="-0.392152">
        <ele>631.531</ele>
        <time>2019-03-11T20:13:47Z</time>
      </trkpt>
      <trkpt lat="40.733592" lon="-0.392224">
        <ele>632.316</ele>
        <time>2019-03-11T20:14:27Z</time>
      </trkpt>
      <trkpt lat="40.733765" lon="-0.392300">
        <ele>636.115</ele>
        <time>2019-03-11T20:15:07Z</time>
      </trkpt>
      <trkpt lat="40.733877" lon="-0.392346">
        <ele>641.341</ele>
        <time>2019-03-11T20:15:47Z</time>
      </trkpt>
      <trkpt lat="40.733976" lon="-0.392420">
        <ele>633.958</ele>
        <time>2019-03-11T20:16:27Z</time>
      </trkpt>
      <trkpt lat="40.734064" lon="-0.392451">
        <ele>640.269</ele>
        <time>2019-03-11T20:17:07Z</time>
      </trkpt>
      <trkpt lat="40.734148" lon="-0.392531">
        <ele>640.219</ele>
        <time>2019-03-11T20:17:47Z</time>
      </trkpt>
      <trkpt lat="40.734265" lon="-0.392667">
        <ele>640.771</ele>
        <time>2019-03-11T20:18:27Z</time>
      </trkpt>
      <trkpt lat="40.734408" lon="-0.392807">
        <ele>641.541</ele>
        <time>2019-03-11T20:19:07Z</time>
      </trkpt>
      <trkpt lat="40.734598" lon="-0.392980">
        <ele>642.415</ele>
        <time>2019-03-11T20:19:47Z</time>
      </trkpt>
      <trkpt lat="40.734760" lon="-0.393120">
        <ele>642.008</ele>
        <time>2019-03-11T20:20:27Z</time>
      </trkpt>
      <trkpt lat="40.734922" lon="-0.393227">
        <ele>645.619</ele>
        <time>2019-03-11T20:21:07Z</time>
      </trkpt>
      <trkpt lat="40.735060" lon="-0.393275">
        <ele>645.610</ele>
        <time>2019-03-11T20:21:47Z</time>
      </trkpt>
      <trkpt lat="40.735235" lon="-0.393276">
        <ele>649.185</ele>
        <time>2019-03-11T20:22:27Z</time>
      </trkpt>
      <trkpt lat="40.735427" lon="-0.393308">
        <ele>644.834</ele>
        <time>2019-03-11T20:23:07Z</time>
      </trkpt>
      <trkpt lat="40.735549" lon="-0.393418">
        <ele>649.470</ele>
        <time>2019-03-11T20:23:47Z</time>
      </trkpt>
      <trkpt lat="40.735626" lon="-0.393548">
        <ele>650.267</ele>
        <time>2019-03-11T20:24:27Z</time>
      </trkpt>
      <trkpt lat="40.735753" lon="-0.393700">
        <ele>645.598</ele>
        <time>2019-03-11T20:25:07Z</time>
      </trkpt>
      <trkpt lat="40.735842" lon="-0.393758">
        <ele>651.878</ele>
        <time>2019-03-11T20:25:47Z</time>
      </trkpt>
      <trkpt lat="40.735917" lon="-0.393781">
        <ele>651.822</ele>
        <time>2019-03-11T20:26:27Z</time>
      </trkpt>
      <trkpt lat="40.735985" lon="-0.393802">
        <ele>657.462</ele>
        <time>2019-03-11T20:27:07Z</time>
      </trkpt>
      <trkpt lat="40.736043" lon="-0.393863">
        <ele>651.408</ele>
        <time>2019-03-11T20:27:47Z</time>
      </trkpt>
      <trkpt lat="40.736160" lon="-0.393965">
        <ele>651.408</ele>
        <time>2019-03-11T20:28:27Z</time>
      </trkpt>
      <trkpt lat="40.736291" lon="-0.394013">
        <ele>650.424</ele>
        <time>2019-03-11T20:29:07Z</time>
      </trkpt>
      <trkpt lat="40.736384" lon="-0.394060">
        <ele>654.335</ele>
        <time>2019-03-11T20:29:47Z</time>
      </trkpt>
      <trkpt lat="40.736422" lon="-0.394110">
        <ele>654.380</ele>
        <time>2019-03-11T20:30:27Z</time>
      </trkpt>
      <trkpt lat="40.736479" lon="-0.394205">
        <ele>648.719</ele>
        <time>2019-03-11T20:31:07Z</time>
      </trkpt>
      <trkpt lat="40.736562" lon="-0.394270">
        <ele>652.485</ele>
        <time>2019-03-11T20:31:47Z</time>
      </trkpt>
      <trkpt lat="40.736632" lon="-0.394304">
        <ele>652.422</ele>
        <time>2019-03-11T20:32:27Z</time>
      </trkpt>
      <trkpt lat="40.736748" lon="-0.394304">
        <ele>656.033</ele>
        <time>2019-03-11T20:33:07Z</time>
      </trkpt>
      <trkpt lat="40.736844" lon="-0.394322">
        <ele>656.023</ele>
        <time>2019-03-11T20:33:47Z</time>
      </trkpt>
      <trkpt lat="40.736953" lon="-0.394363">
        <ele>660.072</ele>
        <time>2019-03-11T20:34:27Z</time>
      </trkpt>
      <trkpt lat="40.737078" lon="-0.394443">
        <ele>657.013</ele>
        <time>2019-03-11T20:35:07Z</time>
      </trkpt>
      <trkpt lat="40.737181" lon="-0.394506">
        <ele>657.014</ele>
        <time>2019-03-11T20:35:47Z</time>
      </trkpt>
      <trkpt lat="40.737303" lon="-0.394530">
        <ele>660.008</ele>
        <time>2019-03-11T20:36:27Z</time>
      </trkpt>
      <trkpt lat="40.737405" lon="-0.394518">
        <ele>660.039</ele>
        <time>2019-03-11T20:37:07Z</time>
      </trkpt>
      <trkpt lat="40.737495" lon="-0.394543">
        <ele>662.970</ele>
        <time>2019-03-11T20:37:47Z</time>
      </trkpt>
      <trkpt lat="40.737541" lon="-0.394586">
        <ele>658.055</ele>
        <time>2019-03-11T20:38:27Z</time>
      </trkpt>
      <trkpt lat="40.737586" lon="-0.394705">
        <ele>658.034</ele>
        <time>2019-03-11T20:39:07Z</time>
      </trkpt>
      <trkpt lat="40.737678" lon="-0.394887">
        <ele>657.480</ele>
        <time>2019-03-11T20:39:47Z</time>
      </trkpt>
      <trkpt lat="40.737770" lon="-0.395048">
        <ele>653.997</ele>
        <time>2019-03-11T20:40:27Z</time>
      </trkpt>
      <trkpt lat="40.737873" lon="-0.395122">
        <ele>654.028</ele>
        <time>2019-03-11T20:41:07Z</time>
      </trkpt>
      <trkpt lat="40.737998" lon="-0.395193">
        <ele>657.768</ele>
        <time>2019-03-11T20:41:47Z</time>
      </trkpt>
      <trkpt lat="40.738147" lon="-0.395236">
        <ele>662.372</ele>
        <time>2019-03-11T20:42:27Z</time>
      </trkpt>
      <trkpt lat="40.738266" lon="-0.395328">
        <ele>657.113</ele>
        <time>2019-03-11T20:43:07Z</time>
      </trkpt>
      <trkpt lat="40.738394" lon="-0.395445">
        <ele>661.714</ele>
        <time>2019-03-11T20:43:47Z</time>
      </trkpt>
      <trkpt lat="40.738438" lon="-0.395524">
        <ele>658.008</ele>
        <time>2019-03-11T20:44:27Z</time>
      </trkpt>
      <trkpt lat="40.738479" lon="-0.395647">
        <ele>655.979</ele>
        <time>2019-03-11T20:45:07Z</time>
      </trkpt>
      <trkpt lat="40.738611" lon="-0.395822">
        <ele>660.060</ele>
        <time>2019-03-11T20:45:47Z</time>
      </trkpt>
      <trkpt lat="40.738700" lon="-0.396005">
        <ele>661.375</ele>
        <time>2019-03-11T20:46:27Z</time>
      </trkpt>
      <trkpt lat="40.738831" lon="-0.396161">
        <ele>661.374</ele>
        <time>2019-03-11T20:47:07Z</time>
      </trkpt>
      <trkpt lat="40.738932" lon="-0.396231">
        <ele>660.620</ele>
        <time>2019-03-11T20:47:47Z</time>
      </trkpt>
      <trkpt lat="40.739005" lon="-0.396242">
        <ele>660.667</ele>
        <time>2019-03-11T20:48:27Z</time>
      </trkpt>
      <trkpt lat="40.739112" lon="-0.396218">
        <ele>661.048</ele>
        <time>2019-03-11T20:49:07Z</time>
      </trkpt>
      <trkpt lat="40.739202" lon="-0.396246">
        <ele>661.038</ele>
        <time>2019-03-11T20:49:47Z</time>
      </trkpt>
      <trkpt lat="40.739270" lon="-0.396318">
        <ele>661.015</ele>
        <time>2019-03-11T20:50:27Z</time>
      </trkpt>
      <trkpt lat="40.739373" lon="-0.396466">
        <ele>661.065</ele>
        <time>2019-03-11T20:51:07Z</time>
      </trkpt>
      <trkpt lat="40.739443" lon="-0.396546">
        <ele>663.911</ele>
        <time>2019-03-11T20:51:47Z</time>
      </trkpt>
      <trkpt lat="40.739621" lon="-0.396693">
        <ele>667.608</ele>
        <time>2019-03-11T20:52:27Z</time>
      </trkpt>
      <trkpt lat="40.739740" lon="-0.396827">
        <ele>666.183</ele>
        <time>2019-03-11T20:53:07Z</time>
      </trkpt>
      <trkpt lat="40.739852" lon="-0.396935">
        <ele>669.694</ele>
        <time>2019-03-11T20:53:47Z</time>
      </trkpt>
      <trkpt lat="40.739932" lon="-0.396981">
        <ele>669.679</ele>
        <time>2019-03-11T20:54:27Z</time>
      </trkpt>
      <trkpt lat="40.740058" lon="-0.397011">
        <ele>673.158</ele>
        <time>2019-03-11T20:55:07Z</time>
      </trkpt>
      <trkpt lat="40.740235" lon="-0.396995">
        <ele>672.514</ele>
        <time>2019-03-11T20:55:47Z</time>
      </trkpt>
      <trkpt lat="40.740416" lon="-0.397032">
        <ele>673.611</ele>
        <time>2019-03-11T20:56:27Z</time>
      </trkpt>
      <trkpt lat="40.740589" lon="-0.397085">
        <ele>679.262</ele>
        <time>2019-03-11T20:57:07Z</time>
      </trkpt>
      <trkpt lat="40.740757" lon="-0.397153">
        <ele>680.872</ele>
        <time>2019-03-11T20:57:47Z</time>
      </trkpt>
      <trkpt lat="40.740939" lon="-0.397230">
        <ele>681.569</ele>
        <time>2019-03-11T20:58:27Z</time>
      </trkpt>
      <trkpt lat="40.741074" lon="-0.397281">
        <ele>682.404</ele>
        <time>2019-03-11T20:59:07Z</time>
      </trkpt>
      <trkpt lat="40.741174" lon="-0.397291">
        <ele>682.424</ele>
        <time>2019-03-11T20:59:47Z</time>
      </trkpt>
      <trkpt lat="40.741293" lon="-0.397308">
        <ele>682.108</ele>
        <time>2019-03-11T21:00:27Z</time>
      </trkpt>
      <trkpt lat="40.741380" lon="-0.397355">
        <ele>682.178</ele>
        <time>2019-03-11T21:01:07Z</time>
      </trkpt>
      <trkpt lat="40.741426" lon="-0.397408">
        <ele>682.969</ele>
        <time>2019-03-11T21:01:47Z</time>
      </trkpt>
      <trkpt lat="40.741436" lon="-0.397459">
        <ele>688.424</ele>
        <time>2019-03-11T21:02:27Z</time>
      </trkpt>
      <trkpt lat="40.741432" lon="-0.397503">
        <ele>688.453</ele>
        <time>2019-03-11T21:03:07Z</time>
      </trkpt>
      <trkpt lat="40.741450" lon="-0.397531">
        <ele>688.429</ele>
        <time>2019-03-11T21:03:47Z</time>
      </trkpt>
      <trkpt lat="40.741488" lon="-0.397521">
        <ele>688.466</ele>
        <time>2019-03-11T21:04:27Z</time>
      </trkpt>
      <trkpt lat="40.741560" lon="-0.397415">
        <ele>682.987</ele>
        <time>2019-03-11T21:05:07Z</time>
      </trkpt>
      <trkpt lat="40.741626" lon="-0.397335">
        <ele>684.827</ele>
        <time>2019-03-11T21:05:47Z</time>
      </trkpt>
      <trkpt lat="40.741653" lon="-0.397322">
        <ele>684.833</ele>
        <time>2019-03-11T21:06:27Z</time>
      </trkpt>
      <trkpt lat="40.741679" lon="-0.397341">
        <ele>684.823</ele>
        <time>2019-03-11T21:07:07Z</time>
      </trkpt>
      <trkpt lat="40.741707" lon="-0.397482">
        <ele>688.915</ele>
        <time>2019-03-11T21:07:47Z</time>
      </trkpt>
      <trkpt lat="40.741746" lon="-0.397686">
        <ele>694.908</ele>
        <time>2019-03-11T21:08:27Z</time>
      </trkpt>
      <trkpt lat="40.741809" lon="-0.397851">
        <ele>700.875</ele>
        <time>2019-03-11T21:09:07Z</time>
      </trkpt>
      <trkpt lat="40.741865" lon="-0.397916">
        <ele>700.886</ele>
        <time>2019-03-11T21:09:47Z</time>
      </trkpt>
      <trkpt lat="40.742011" lon="-0.397977">
        <ele>705.981</ele>
        <time>2019-03-11T21:10:27Z</time>
      </trkpt>
      <trkpt lat="40.742085" lon="-0.398040">
        <ele>705.970</ele>
        <time>2019-03-11T21:11:07Z</time>
      </trkpt>
      <trkpt lat="40.742161" lon="-0.398124">
        <ele>705.856</ele>
        <time>2019-03-11T21:11:47Z</time>
      </trkpt>
      <trkpt lat="40.742222" lon="-0.398246">
        <ele>708.463</ele>
        <time>2019-03-11T21:12:27Z</time>
      </trkpt>
      <trkpt lat="40.742271" lon="-0.398412">
        <ele>710.174</ele>
        <time>2019-03-11T21:13:07Z</time>
      </trkpt>
      <trkpt lat="40.742269" lon="-0.398527">
        <ele>710.934</ele>
        <time>2019-03-11T21:13:47Z</time>
      </trkpt>
      <trkpt lat="40.742247" lon="-0.398651">
        <ele>710.991</ele>
        <time>2019-03-11T21:14:27Z</time>
      </trkpt>
      <trkpt lat="40.742218" lon="-0.398771">
        <ele>711.781</ele>
        <time>2019-03-11T21:15:07Z</time>
      </trkpt>
      <trkpt lat="40.742217" lon="-0.398919">
        <ele>713.019</ele>
        <time>2019-03-11T21:15:47Z</time>
      </trkpt>
      <trkpt lat="40.742237" lon="-0.398995">
        <ele>713.008</ele>
        <time>2019-03-11T21:16:27Z</time>
      </trkpt>
      <trkpt lat="40.742289" lon="-0.399057">
        <ele>712.081</ele>
        <time>2019-03-11T21:17:07Z</time>
      </trkpt>
      <trkpt lat="40.742354" lon="-0.399048">
        <ele>710.332</ele>
        <time>2019-03-11T21:17:47Z</time>
      </trkpt>
      <trkpt lat="40.742417" lon="-0.399047">
        <ele>710.397</ele>
        <time>2019-03-11T21:18:27Z</time>
      </trkpt>
      <trkpt lat="40.742515" lon="-0.399116">
        <ele>708.826</ele>
        <time>2019-03-11T21:19:07Z</time>
      </trkpt>
      <trkpt lat="40.742665" lon="-0.399270">
        <ele>708.572</ele>
        <time>2019-03-11T21:19:47Z</time>
      </trkpt>
      <trkpt lat="40.742738" lon="-0.399304">
        <ele>708.579</ele>
        <time>2019-03-11T21:20:27Z</time>
      </trkpt>
      <trkpt lat="40.742809" lon="-0.399296">
        <ele>708.530</ele>
        <time>2019-03-11T21:21:07Z</time>
      </trkpt>
      <trkpt lat="40.742866" lon="-0.399248">
        <ele>709.080</ele>
        <time>2019-03-11T21:21:47Z</time>
      </trkpt>
      <trkpt lat="40.742986" lon="-0.399116">
        <ele>705.331</ele>
        <time>2019-03-11T21:22:27Z</time>
      </trkpt>
      <trkpt lat="40.743072" lon="-0.399069">
        <ele>706.861</ele>
        <time>2019-03-11T21:23:07Z</time>
      </trkpt>
      <trkpt lat="40.743196" lon="-0.399035">
        <ele>703.807</ele>
        <time>2019-03-11T21:23:47Z</time>
      </trkpt>
      <trkpt lat="40.743315" lon="-0.399021">
        <ele>703.808</ele>
        <time>2019-03-11T21:24:27Z</time>
      </trkpt>
      <trkpt lat="40.743403" lon="-0.398979">
        <ele>704.815</ele>
        <time>2019-03-11T21:25:07Z</time>
      </trkpt>
      <trkpt lat="40.743466" lon="-0.398889">
        <ele>704.846</ele>
        <time>2019-03-11T21:25:47Z</time>
      </trkpt>
      <trkpt lat="40.743583" lon="-0.398699">
        <ele>703.011</ele>
        <time>2019-03-11T21:26:27Z</time>
      </trkpt>
      <trkpt lat="40.743682" lon="-0.398587">
        <ele>698.990</ele>
        <time>2019-03-11T21:27:07Z</time>
      </trkpt>
      <trkpt lat="40.743774" lon="-0.398554">
        <ele>701.586</ele>
        <time>2019-03-11T21:27:47Z</time>
      </trkpt>
      <trkpt lat="40.743920" lon="-0.398521">
        <ele>702.593</ele>
        <time>2019-03-11T21:28:27Z</time>
      </trkpt>
      <trkpt lat="40.744033" lon="-0.398471">
        <ele>697.694</ele>
        <time>2019-03-11T21:29:07Z</time>
      </trkpt>
      <trkpt lat="40.744064" lon="-0.398486">
        <ele>697.674</ele>
        <time>2019-03-11T21:29:47Z</time>
      </trkpt>
      <trkpt lat="40.744089" lon="-0.398498">
        <ele>696.999</ele>
        <time>2019-03-11T21:30:27Z</time>
      </trkpt>
      <trkpt lat="40.744180" lon="-0.398582">
        <ele>701.407</ele>
        <time>2019-03-11T21:31:07Z</time>
      </trkpt>
      <trkpt lat="40.744223" lon="-0.398666">
        <ele>701.427</ele>
        <time>2019-03-11T21:31:47Z</time>
      </trkpt>
      <trkpt lat="40.744260" lon="-0.398776">
        <ele>705.208</ele>
        <time>2019-03-11T21:32:27Z</time>
      </trkpt>
      <trkpt lat="40.744304" lon="-0.398880">
        <ele>705.011</ele>
        <time>2019-03-11T21:33:07Z</time>
      </trkpt>
      <trkpt lat="40.744354" lon="-0.398926">
        <ele>705.032</ele>
        <time>2019-03-11T21:33:47Z</time>
      </trkpt>
      <trkpt lat="40.744404" lon="-0.398932">
        <ele>705.027</ele>
        <time>2019-03-11T21:34:27Z</time>
      </trkpt>
      <trkpt lat="40.744464" lon="-0.398911">
        <ele>703.116</ele>
        <time>2019-03-11T21:35:07Z</time>
      </trkpt>
      <trkpt lat="40.744509" lon="-0.398852">
        <ele>699.682</ele>
        <time>2019-03-11T21:35:47Z</time>
      </trkpt>
      <trkpt lat="40.744575" lon="-0.398712">
        <ele>699.649</ele>
        <time>2019-03-11T21:36:27Z</time>
      </trkpt>
      <trkpt lat="40.744622" lon="-0.398659">
        <ele>696.480</ele>
        <time>2019-03-11T21:37:07Z</time>
      </trkpt>
      <trkpt lat="40.744657" lon="-0.398634">
        <ele>696.540</ele>
        <time>2019-03-11T21:37:47Z</time>
      </trkpt>
      <trkpt lat="40.744721" lon="-0.398620">
        <ele>696.573</ele>
        <time>2019-03-11T21:38:27Z</time>
      </trkpt>
      <trkpt lat="40.744908" lon="-0.398617">
        <ele>696.185</ele>
        <time>2019-03-11T21:39:07Z</time>
      </trkpt>
      <trkpt lat="40.745043" lon="-0.398618">
        <ele>695.413</ele>
        <time>2019-03-11T21:39:47Z</time>
      </trkpt>
      <trkpt lat="40.745110" lon="-0.398603">
        <ele>695.408</ele>
        <time>2019-03-11T21:40:27Z</time>
      </trkpt>
      <trkpt lat="40.745177" lon="-0.398560">
        <ele>694.849</ele>
        <time>2019-03-11T21:41:07Z</time>
      </trkpt>
      <trkpt lat="40.745235" lon="-0.398479">
        <ele>691.980</ele>
        <time>2019-03-11T21:41:47Z</time>
      </trkpt>
      <trkpt lat="40.745320" lon="-0.398333">
        <ele>691.965</ele>
        <time>2019-03-11T21:42:27Z</time>
      </trkpt>
      <trkpt lat="40.745405" lon="-0.398221">
        <ele>690.134</ele>
        <time>2019-03-11T21:43:07Z</time>
      </trkpt>
      <trkpt lat="40.745477" lon="-0.398184">
        <ele>690.110</ele>
        <time>2019-03-11T21:43:47Z</time>
      </trkpt>
      <trkpt lat="40.745562" lon="-0.398174">
        <ele>691.077</ele>
        <time>2019-03-11T21:44:27Z</time>
      </trkpt>
      <trkpt lat="40.745657" lon="-0.398194">
        <ele>691.068</ele>
        <time>2019-03-11T21:45:07Z</time>
      </trkpt>
      <trkpt lat="40.745749" lon="-0.398248">
        <ele>689.658</ele>
        <time>2019-03-11T21:45:47Z</time>
      </trkpt>
      <trkpt lat="40.745835" lon="-0.398346">
        <ele>691.489</ele>
        <time>2019-03-11T21:46:27Z</time>
      </trkpt>
      <trkpt lat="40.745884" lon="-0.398437">
        <ele>691.406</ele>
        <time>2019-03-11T21:47:07Z</time>
      </trkpt>
      <trkpt lat="40.745923" lon="-0.398578">
        <ele>690.226</ele>
        <time>2019-03-11T21:47:47Z</time>
      </trkpt>
      <trkpt lat="40.746013" lon="-0.398707">
        <ele>692.708</ele>
        <time>2019-03-11T21:48:27Z</time>
      </trkpt>
      <trkpt lat="40.746092" lon="-0.398832">
        <ele>690.810</ele>
        <time>2019-03-11T21:49:07Z</time>
      </trkpt>
      <trkpt lat="40.746205" lon="-0.398940">
        <ele>695.041</ele>
        <time>2019-03-11T21:49:47Z</time>
      </trkpt>
      <trkpt lat="40.746308" lon="-0.399006">
        <ele>695.046</ele>
        <time>2019-03-11T21:50:27Z</time>
      </trkpt>
      <trkpt lat="40.746391" lon="-0.399007">
        <ele>695.045</ele>
        <time>2019-03-11T21:51:07Z</time>
      </trkpt>
      <trkpt lat="40.746451" lon="-0.398942">
        <ele>696.321</ele>
        <time>2019-03-11T21:51:47Z</time>
      </trkpt>
      <trkpt lat="40.746474" lon="-0.398845">
        <ele>693.528</ele>
        <time>2019-03-11T21:52:27Z</time>
      </trkpt>
      <trkpt lat="40.746511" lon="-0.398707">
        <ele>693.549</ele>
        <time>2019-03-11T21:53:07Z</time>
      </trkpt>
      <trkpt lat="40.746554" lon="-0.398612">
        <ele>692.029</ele>
        <time>2019-03-11T21:53:47Z</time>
      </trkpt>
      <trkpt lat="40.746598" lon="-0.398563">
        <ele>692.018</ele>
        <time>2019-03-11T21:54:27Z</time>
      </trkpt>
      <trkpt lat="40.746690" lon="-0.398521">
        <ele>697.098</ele>
        <time>2019-03-11T21:55:07Z</time>
      </trkpt>
      <trkpt lat="40.746781" lon="-0.398442">
        <ele>695.217</ele>
        <time>2019-03-11T21:55:47Z</time>
      </trkpt>
      <trkpt lat="40.746829" lon="-0.398396">
        <ele>698.408</ele>
        <time>2019-03-11T21:56:27Z</time>
      </trkpt>
      <trkpt lat="40.746868" lon="-0.398388">
        <ele>698.463</ele>
        <time>2019-03-11T21:57:07Z</time>
      </trkpt>
      <trkpt lat="40.746973" lon="-0.398390">
        <ele>699.364</ele>
        <time>2019-03-11T21:57:47Z</time>
      </trkpt>
      <trkpt lat="40.747060" lon="-0.398413">
        <ele>699.359</ele>
        <time>2019-03-11T21:58:27Z</time>
      </trkpt>
      <trkpt lat="40.747200" lon="-0.398454">
        <ele>698.168</ele>
        <time>2019-03-11T21:59:07Z</time>
      </trkpt>
      <trkpt lat="40.747327" lon="-0.398516">
        <ele>700.624</ele>
        <time>2019-03-11T21:59:47Z</time>
      </trkpt>
      <trkpt lat="40.747455" lon="-0.398532">
        <ele>700.671</ele>
        <time>2019-03-11T22:00:27Z</time>
      </trkpt>
      <trkpt lat="40.747612" lon="-0.398537">
        <ele>697.482</ele>
        <time>2019-03-11T22:01:07Z</time>
      </trkpt>
      <trkpt lat="40.747745" lon="-0.398536">
        <ele>693.962</ele>
        <time>2019-03-11T22:01:47Z</time>
      </trkpt>
      <trkpt lat="40.747888" lon="-0.398589">
        <ele>690.699</ele>
        <time>2019-03-11T22:02:27Z</time>
      </trkpt>
      <trkpt lat="40.748163" lon="-0.398604">
        <ele>688.707</ele>
        <time>2019-03-11T22:03:07Z</time>
      </trkpt>
      <trkpt lat="40.748525" lon="-0.398911">
        <ele>688.627</ele>
        <time>2019-03-11T22:03:47Z</time>
      </trkpt>
      <trkpt lat="40.748669" lon="-0.398993">
        <ele>681.108</ele>
        <time>2019-03-11T22:04:27Z</time>
      </trkpt>
      <trkpt lat="40.748810" lon="-0.399009">
        <ele>673.961</ele>
        <time>2019-03-11T22:05:07Z</time>
      </trkpt>
      <trkpt lat="40.748918" lon="-0.398944">
        <ele>673.922</ele>
        <time>2019-03-11T22:05:47Z</time>
      </trkpt>
      <trkpt lat="40.749014" lon="-0.398930">
        <ele>673.237</ele>
        <time>2019-03-11T22:06:27Z</time>
      </trkpt>
      <trkpt lat="40.749069" lon="-0.398931">
        <ele>673.216</ele>
        <time>2019-03-11T22:07:07Z</time>
      </trkpt>
      <trkpt lat="40.749106" lon="-0.398880">
        <ele>673.292</ele>
        <time>2019-03-11T22:07:47Z</time>
      </trkpt>
      <trkpt lat="40.749079" lon="-0.398822">
        <ele>669.589</ele>
        <time>2019-03-11T22:08:27Z</time>
      </trkpt>
      <trkpt lat="40.749079" lon="-0.398752">
        <ele>669.570</ele>
        <time>2019-03-11T22:09:07Z</time>
      </trkpt>
      <trkpt lat="40.749147" lon="-0.398642">
        <ele>672.370</ele>
        <time>2019-03-11T22:09:47Z</time>
      </trkpt>
      <trkpt lat="40.749242" lon="-0.398596">
        <ele>672.337</ele>
        <time>2019-03-11T22:10:27Z</time>
      </trkpt>
      <trkpt lat="40.749400" lon="-0.398610">
        <ele>674.149</ele>
        <time>2019-03-11T22:11:07Z</time>
      </trkpt>
      <trkpt lat="40.749863" lon="-0.398748">
        <ele>682.213</ele>
        <time>2019-03-11T22:11:47Z</time>
      </trkpt>
      <trkpt lat="40.750032" lon="-0.398879">
        <ele>689.508</ele>
        <time>2019-03-11T22:12:27Z</time>
      </trkpt>
      <trkpt lat="40.750180" lon="-0.399024">
        <ele>689.585</ele>
        <time>2019-03-11T22:13:07Z</time>
      </trkpt>
      <trkpt lat="40.750249" lon="-0.399124">
        <ele>692.156</ele>
        <time>2019-03-11T22:13:47Z</time>
      </trkpt>
      <trkpt lat="40.750322" lon="-0.399302">
        <ele>692.331</ele>
        <time>2019-03-11T22:14:27Z</time>
      </trkpt>
      <trkpt lat="40.750402" lon="-0.399406">
        <ele>694.690</ele>
        <time>2019-03-11T22:15:07Z</time>
      </trkpt>
      <trkpt lat="40.750484" lon="-0.399465">
        <ele>694.116</ele>
        <time>2019-03-11T22:15:47Z</time>
      </trkpt>
      <trkpt lat="40.750558" lon="-0.399466">
        <ele>694.183</ele>
        <time>2019-03-11T22:16:27Z</time>
      </trkpt>
      <trkpt lat="40.750635" lon="-0.399423">
        <ele>697.124</ele>
        <time>2019-03-11T22:17:07Z</time>
      </trkpt>
      <trkpt lat="40.750668" lon="-0.399404">
        <ele>697.144</ele>
        <time>2019-03-11T22:17:47Z</time>
      </trkpt>
      <trkpt lat="40.750865" lon="-0.399252">
        <ele>699.886</ele>
        <time>2019-03-11T22:18:27Z</time>
      </trkpt>
      <trkpt lat="40.750925" lon="-0.399173">
        <ele>699.260</ele>
        <time>2019-03-11T22:19:07Z</time>
      </trkpt>
      <trkpt lat="40.750948" lon="-0.399065">
        <ele>699.526</ele>
        <time>2019-03-11T22:19:47Z</time>
      </trkpt>
      <trkpt lat="40.750976" lon="-0.399041">
        <ele>699.208</ele>
        <time>2019-03-11T22:20:27Z</time>
      </trkpt>
      <trkpt lat="40.751040" lon="-0.399069">
        <ele>699.540</ele>
        <time>2019-03-11T22:21:07Z</time>
      </trkpt>
      <trkpt lat="40.751143" lon="-0.399151">
        <ele>701.711</ele>
        <time>2019-03-11T22:21:47Z</time>
      </trkpt>
      <trkpt lat="40.751232" lon="-0.399153">
        <ele>701.786</ele>
        <time>2019-03-11T22:22:27Z</time>
      </trkpt>
      <trkpt lat="40.751301" lon="-0.399119">
        <ele>705.275</ele>
        <time>2019-03-11T22:23:07Z</time>
      </trkpt>
      <trkpt lat="40.751359" lon="-0.399049">
        <ele>704.121</ele>
        <time>2019-03-11T22:23:47Z</time>
      </trkpt>
      <trkpt lat="40.751430" lon="-0.399043">
        <ele>704.128</ele>
        <time>2019-03-11T22:24:27Z</time>
      </trkpt>
      <trkpt lat="40.751471" lon="-0.399094">
        <ele>708.679</ele>
        <time>2019-03-11T22:25:07Z</time>
      </trkpt>
      <trkpt lat="40.751472" lon="-0.399244">
        <ele>710.399</ele>
        <time>2019-03-11T22:25:47Z</time>
      </trkpt>
      <trkpt lat="40.751409" lon="-0.399582">
        <ele>709.222</ele>
        <time>2019-03-11T22:26:27Z</time>
      </trkpt>
      <trkpt lat="40.751408" lon="-0.399707">
        <ele>709.562</ele>
        <time>2019-03-11T22:27:07Z</time>
      </trkpt>
      <trkpt lat="40.751472" lon="-0.399824">
        <ele>710.108</ele>
        <time>2019-03-11T22:27:47Z</time>
      </trkpt>
      <trkpt lat="40.751520" lon="-0.399944">
        <ele>710.108</ele>
        <time>2019-03-11T22:28:27Z</time>
      </trkpt>
      <trkpt lat="40.751694" lon="-0.400184">
        <ele>716.774</ele>
        <time>2019-03-11T22:29:07Z</time>
      </trkpt>
      <trkpt lat="40.751694" lon="-0.400184">
        <ele>716.785</ele>
        <time>2019-03-11T22:29:47Z</time>
      </trkpt>
      <trkpt lat="40.751739" lon="-0.400219">
        <ele>716.760</ele>
        <time>2019-03-11T22:30:27Z</time>
      </trkpt>
      <trkpt lat="40.752012" lon="-0.400370">
        <ele>721.349</ele>
        <time>2019-03-11T22:31:07Z</time>
      </trkpt>
      <trkpt lat="40.752176" lon="-0.400534">
        <ele>722.855</ele>
        <time>2019-03-11T22:31:47Z</time>
      </trkpt>
      <trkpt lat="40.752199" lon="-0.400614">
        <ele>724.492</ele>
        <time>2019-03-11T22:32:27Z</time>
      </trkpt>
      <trkpt lat="40.752180" lon="-0.400680">
        <ele>723.893</ele>
        <time>2019-03-11T22:33:07Z</time>
      </trkpt>
      <trkpt lat="40.752132" lon="-0.400744">
        <ele>723.813</ele>
        <time>2019-03-11T22:33:47Z</time>
      </trkpt>
      <trkpt lat="40.752012" lon="-0.400739">
        <ele>723.813</ele>
        <time>2019-03-11T22:34:27Z</time>
      </trkpt>
      <trkpt lat="40.751919" lon="-0.400721">
        <ele>721.243</ele>
        <time>2019-03-11T22:35:07Z</time>
      </trkpt>
      <trkpt lat="40.751821" lon="-0.400724">
        <ele>719.207</ele>
        <time>2019-03-11T22:35:47Z</time>
      </trkpt>
      <trkpt lat="40.751776" lon="-0.400791">
        <ele>719.208</ele>
        <time>2019-03-11T22:36:27Z</time>
      </trkpt>
      <trkpt lat="40.751783" lon="-0.400872">
        <ele>713.873</ele>
        <time>2019-03-11T22:37:07Z</time>
      </trkpt>
      <trkpt lat="40.751886" lon="-0.401012">
        <ele>718.184</ele>
        <time>2019-03-11T22:37:47Z</time>
      </trkpt>
      <trkpt lat="40.752025" lon="-0.401152">
        <ele>719.229</ele>
        <time>2019-03-11T22:38:27Z</time>
      </trkpt>
      <trkpt lat="40.752180" lon="-0.401347">
        <ele>713.078</ele>
        <time>2019-03-11T22:39:07Z</time>
      </trkpt>
      <trkpt lat="40.752291" lon="-0.401523">
        <ele>715.664</ele>
        <time>2019-03-11T22:39:47Z</time>
      </trkpt>
      <trkpt lat="40.752359" lon="-0.401645">
        <ele>712.451</ele>
        <time>2019-03-11T22:40:27Z</time>
      </trkpt>
      <trkpt lat="40.752442" lon="-0.401861">
        <ele>720.772</ele>
        <time>2019-03-11T22:41:07Z</time>
      </trkpt>
      <trkpt lat="40.752516" lon="-0.401975">
        <ele>719.382</ele>
        <time>2019-03-11T22:41:47Z</time>
      </trkpt>
      <trkpt lat="40.752539" lon="-0.402044">
        <ele>719.322</ele>
        <time>2019-03-11T22:42:27Z</time>
      </trkpt>
      <trkpt lat="40.752543" lon="-0.402172">
        <ele>717.962</ele>
        <time>2019-03-11T22:43:07Z</time>
      </trkpt>
      <trkpt lat="40.752531" lon="-0.402246">
        <ele>717.908</ele>
        <time>2019-03-11T22:43:47Z</time>
      </trkpt>
      <trkpt lat="40.752557" lon="-0.402308">
        <ele>717.908</ele>
        <time>2019-03-11T22:44:27Z</time>
      </trkpt>
      <trkpt lat="40.752823" lon="-0.402453">
        <ele>719.024</ele>
        <time>2019-03-11T22:45:07Z</time>
      </trkpt>
      <trkpt lat="40.752923" lon="-0.402535">
        <ele>711.595</ele>
        <time>2019-03-11T22:45:47Z</time>
      </trkpt>
      <trkpt lat="40.753025" lon="-0.402563">
        <ele>711.550</ele>
        <time>2019-03-11T22:46:27Z</time>
      </trkpt>
      <trkpt lat="40.753358" lon="-0.402559">
        <ele>715.989</ele>
        <time>2019-03-11T22:47:07Z</time>
      </trkpt>
      <trkpt lat="40.753416" lon="-0.402601">
        <ele>715.955</ele>
        <time>2019-03-11T22:47:47Z</time>
      </trkpt>
      <trkpt lat="40.753453" lon="-0.402724">
        <ele>720.982</ele>
        <time>2019-03-11T22:48:27Z</time>
      </trkpt>
      <trkpt lat="40.753421" lon="-0.402850">
        <ele>720.063</ele>
        <time>2019-03-11T22:49:07Z</time>
      </trkpt>
      <trkpt lat="40.753249" lon="-0.402987">
        <ele>712.023</ele>
        <time>2019-03-11T22:49:47Z</time>
      </trkpt>
      <trkpt lat="40.753168" lon="-0.403107">
        <ele>713.659</ele>
        <time>2019-03-11T22:50:27Z</time>
      </trkpt>
      <trkpt lat="40.753145" lon="-0.403222">
        <ele>711.703</ele>
        <time>2019-03-11T22:51:07Z</time>
      </trkpt>
      <trkpt lat="40.753187" lon="-0.403321">
        <ele>711.723</ele>
        <time>2019-03-11T22:51:47Z</time>
      </trkpt>
      <trkpt lat="40.753350" lon="-0.403451">
        <ele>712.208</ele>
        <time>2019-03-11T22:52:27Z</time>
      </trkpt>
      <trkpt lat="40.753595" lon="-0.403715">
        <ele>712.897</ele>
        <time>2019-03-11T22:53:07Z</time>
      </trkpt>
      <trkpt lat="40.753760" lon="-0.404021">
        <ele>712.798</ele>
        <time>2019-03-11T22:53:47Z</time>
      </trkpt>
      <trkpt lat="40.753845" lon="-0.404394">
        <ele>716.183</ele>
        <time>2019-03-11T22:54:27Z</time>
      </trkpt>
      <trkpt lat="40.753976" lon="-0.404576">
        <ele>713.852</ele>
        <time>2019-03-11T22:55:07Z</time>
      </trkpt>
      <trkpt lat="40.754085" lon="-0.404762">
        <ele>718.458</ele>
        <time>2019-03-11T22:55:47Z</time>
      </trkpt>
      <trkpt lat="40.754175" lon="-0.404974">
        <ele>723.435</ele>
        <time>2019-03-11T22:56:27Z</time>
      </trkpt>
      <trkpt lat="40.754231" lon="-0.405173">
        <ele>719.026</ele>
        <time>2019-03-11T22:57:07Z</time>
      </trkpt>
      <trkpt lat="40.754286" lon="-0.405450">
        <ele>716.586</ele>
        <time>2019-03-11T22:57:47Z</time>
      </trkpt>
      <trkpt lat="40.754316" lon="-0.405569">
        <ele>714.467</ele>
        <time>2019-03-11T22:58:27Z</time>
      </trkpt>
      <trkpt lat="40.754350" lon="-0.405734">
        <ele>720.981</ele>
        <time>2019-03-11T22:59:07Z</time>
      </trkpt>
      <trkpt lat="40.754383" lon="-0.405944">
        <ele>719.619</ele>
        <time>2019-03-11T22:59:47Z</time>
      </trkpt>
      <trkpt lat="40.754432" lon="-0.406052">
        <ele>719.608</ele>
        <time>2019-03-11T23:00:27Z</time>
      </trkpt>
      <trkpt lat="40.754546" lon="-0.406243">
        <ele>719.278</ele>
        <time>2019-03-11T23:01:07Z</time>
      </trkpt>
      <trkpt lat="40.754572" lon="-0.406337">
        <ele>715.829</ele>
        <time>2019-03-11T23:01:47Z</time>
      </trkpt>
      <trkpt lat="40.754639" lon="-0.406499">
        <ele>712.734</ele>
        <time>2019-03-11T23:02:27Z</time>
      </trkpt>
      <trkpt lat="40.754799" lon="-0.406726">
        <ele>713.573</ele>
        <time>2019-03-11T23:03:07Z</time>
      </trkpt>
      <trkpt lat="40.754877" lon="-0.406786">
        <ele>713.569</ele>
        <time>2019-03-11T23:03:47Z</time>
      </trkpt>
      <trkpt lat="40.754944" lon="-0.406779">
        <ele>715.676</ele>
        <time>2019-03-11T23:04:27Z</time>
      </trkpt>
      <trkpt lat="40.755054" lon="-0.406687">
        <ele>715.697</ele>
        <time>2019-03-11T23:05:07Z</time>
      </trkpt>
      <trkpt lat="40.755166" lon="-0.406668">
        <ele>716.857</ele>
        <time>2019-03-11T23:05:47Z</time>
      </trkpt>
      <trkpt lat="40.755281" lon="-0.406694">
        <ele>717.556</ele>
        <time>2019-03-11T23:06:27Z</time>
      </trkpt>
      <trkpt lat="40.755379" lon="-0.406759">
        <ele>717.559</ele>
        <time>2019-03-11T23:07:07Z</time>
      </trkpt>
      <trkpt lat="40.755439" lon="-0.406885">
        <ele>718.614</ele>
        <time>2019-03-11T23:07:47Z</time>
      </trkpt>
      <trkpt lat="40.755457" lon="-0.407081">
        <ele>718.408</ele>
        <time>2019-03-11T23:08:27Z</time>
      </trkpt>
      <trkpt lat="40.755480" lon="-0.407262">
        <ele>717.337</ele>
        <time>2019-03-11T23:09:07Z</time>
      </trkpt>
      <trkpt lat="40.755571" lon="-0.407399">
        <ele>716.138</ele>
        <time>2019-03-11T23:09:47Z</time>
      </trkpt>
      <trkpt lat="40.755669" lon="-0.407540">
        <ele>719.143</ele>
        <time>2019-03-11T23:10:27Z</time>
      </trkpt>
      <trkpt lat="40.755706" lon="-0.407676">
        <ele>719.112</ele>
        <time>2019-03-11T23:11:07Z</time>
      </trkpt>
      <trkpt lat="40.755703" lon="-0.407831">
        <ele>719.238</ele>
        <time>2019-03-11T23:11:47Z</time>
      </trkpt>
      <trkpt lat="40.755682" lon="-0.407996">
        <ele>719.515</ele>
        <time>2019-03-11T23:12:27Z</time>
      </trkpt>
      <trkpt lat="40.755658" lon="-0.408214">
        <ele>721.346</ele>
        <time>2019-03-11T23:13:07Z</time>
      </trkpt>
      <trkpt lat="40.755611" lon="-0.408482">
        <ele>723.786</ele>
        <time>2019-03-11T23:13:47Z</time>
      </trkpt>
      <trkpt lat="40.755605" lon="-0.408652">
        <ele>719.788</ele>
        <time>2019-03-11T23:14:27Z</time>
      </trkpt>
      <trkpt lat="40.755654" lon="-0.408793">
        <ele>721.924</ele>
        <time>2019-03-11T23:15:07Z</time>
      </trkpt>
      <trkpt lat="40.755734" lon="-0.408869">
        <ele>721.926</ele>
        <time>2019-03-11T23:15:47Z</time>
      </trkpt>
      <trkpt lat="40.755838" lon="-0.408977">
        <ele>723.808</ele>
        <time>2019-03-11T23:16:27Z</time>
      </trkpt>
      <trkpt lat="40.755907" lon="-0.409111">
        <ele>723.820</ele>
        <time>2019-03-11T23:17:07Z</time>
      </trkpt>
      <trkpt lat="40.755958" lon="-0.409278">
        <ele>721.951</ele>
        <time>2019-03-11T23:17:47Z</time>
      </trkpt>
      <trkpt lat="40.755999" lon="-0.409488">
        <ele>727.626</ele>
        <time>2019-03-11T23:18:27Z</time>
      </trkpt>
      <trkpt lat="40.756028" lon="-0.409626">
        <ele>725.645</ele>
        <time>2019-03-11T23:19:07Z</time>
      </trkpt>
      <trkpt lat="40.756053" lon="-0.409816">
        <ele>723.751</ele>
        <time>2019-03-11T23:19:47Z</time>
      </trkpt>
      <trkpt lat="40.756065" lon="-0.410048">
        <ele>721.288</ele>
        <time>2019-03-11T23:20:27Z</time>
      </trkpt>
      <trkpt lat="40.756070" lon="-0.410341">
        <ele>720.069</ele>
        <time>2019-03-11T23:21:07Z</time>
      </trkpt>
      <trkpt lat="40.756107" lon="-0.410599">
        <ele>718.419</ele>
        <time>2019-03-11T23:21:47Z</time>
      </trkpt>
      <trkpt lat="40.756170" lon="-0.410830">
        <ele>718.758</ele>
        <time>2019-03-11T23:22:27Z</time>
      </trkpt>
      <trkpt lat="40.756248" lon="-0.410987">
        <ele>727.252</ele>
        <time>2019-03-11T23:23:07Z</time>
      </trkpt>
      <trkpt lat="40.756296" lon="-0.411142">
        <ele>742.617</ele>
        <time>2019-03-11T23:23:47Z</time>
      </trkpt>
      <trkpt lat="40.756359" lon="-0.411324">
        <ele>763.508</ele>
        <time>2019-03-11T23:24:27Z</time>
      </trkpt>
      <trkpt lat="40.756414" lon="-0.411427">
        <ele>763.597</ele>
        <time>2019-03-11T23:25:07Z</time>
      </trkpt>
      <trkpt lat="40.756539" lon="-0.411460">
        <ele>750.178</ele>
        <time>2019-03-11T23:25:47Z</time>
      </trkpt>
      <trkpt lat="40.756675" lon="-0.411500">
        <ele>762.413</ele>
        <time>2019-03-11T23:26:27Z</time>
      </trkpt>
      <trkpt lat="40.756759" lon="-0.411587">
        <ele>742.372</ele>
        <time>2019-03-11T23:27:07Z</time>
      </trkpt>
      <trkpt lat="40.756828" lon="-0.411721">
        <ele>743.838</ele>
        <time>2019-03-11T23:27:47Z</time>
      </trkpt>
      <trkpt lat="40.756908" lon="-0.411731">
        <ele>732.245</ele>
        <time>2019-03-11T23:28:27Z</time>
      </trkpt>
      <trkpt lat="40.756999" lon="-0.411669">
        <ele>732.286</ele>
        <time>2019-03-11T23:29:07Z</time>
      </trkpt>
      <trkpt lat="40.757063" lon="-0.411680">
        <ele>728.216</ele>
        <time>2019-03-11T23:29:47Z</time>
      </trkpt>
      <trkpt lat="40.757163" lon="-0.411739">
        <ele>728.271</ele>
        <time>2019-03-11T23:30:27Z</time>
      </trkpt>
      <trkpt lat="40.757258" lon="-0.411739">
        <ele>730.341</ele>
        <time>2019-03-11T23:31:07Z</time>
      </trkpt>
      <trkpt lat="40.757394" lon="-0.411667">
        <ele>730.315</ele>
        <time>2019-03-11T23:31:47Z</time>
      </trkpt>
      <trkpt lat="40.757551" lon="-0.411598">
        <ele>731.508</ele>
        <time>2019-03-11T23:32:27Z</time>
      </trkpt>
      <trkpt lat="40.757717" lon="-0.411543">
        <ele>735.899</ele>
        <time>2019-03-11T23:33:07Z</time>
      </trkpt>
      <trkpt lat="40.757849" lon="-0.411528">
        <ele>737.650</ele>
        <time>2019-03-11T23:33:47Z</time>
      </trkpt>
      <trkpt lat="40.757971" lon="-0.411547">
        <ele>737.095</ele>
        <time>2019-03-11T23:34:27Z</time>
      </trkpt>
      <trkpt lat="40.758068" lon="-0.411606">
        <ele>737.084</ele>
        <time>2019-03-11T23:35:07Z</time>
      </trkpt>
      <trkpt lat="40.758197" lon="-0.411695">
        <ele>746.560</ele>
        <time>2019-03-11T23:35:47Z</time>
      </trkpt>
      <trkpt lat="40.758312" lon="-0.411729">
        <ele>748.437</ele>
        <time>2019-03-11T23:36:27Z</time>
      </trkpt>
      <trkpt lat="40.758438" lon="-0.411686">
        <ele>748.468</ele>
        <time>2019-03-11T23:37:07Z</time>
      </trkpt>
      <trkpt lat="40.758591" lon="-0.411656">
        <ele>739.948</ele>
        <time>2019-03-11T23:37:47Z</time>
      </trkpt>
      <trkpt lat="40.758679" lon="-0.411681">
        <ele>733.272</ele>
        <time>2019-03-11T23:38:27Z</time>
      </trkpt>
      <trkpt lat="40.758824" lon="-0.411755">
        <ele>733.213</ele>
        <time>2019-03-11T23:39:07Z</time>
      </trkpt>
      <trkpt lat="40.758864" lon="-0.411795">
        <ele>733.814</ele>
        <time>2019-03-11T23:39:47Z</time>
      </trkpt>
      <trkpt lat="40.758872" lon="-0.411854">
        <ele>737.308</ele>
        <time>2019-03-11T23:40:27Z</time>
      </trkpt>
      <trkpt lat="40.758892" lon="-0.411978">
        <ele>737.399</ele>
        <time>2019-03-11T23:41:07Z</time>
      </trkpt>
      <trkpt lat="40.758978" lon="-0.412024">
        <ele>741.370</ele>
        <time>2019-03-11T23:41:47Z</time>
      </trkpt>
      <trkpt lat="40.759094" lon="-0.411977">
        <ele>736.765</ele>
        <time>2019-03-11T23:42:27Z</time>
      </trkpt>
      <trkpt lat="40.759223" lon="-0.411986">
        <ele>737.154</ele>
        <time>2019-03-11T23:43:07Z</time>
      </trkpt>
      <trkpt lat="40.759312" lon="-0.411987">
        <ele>737.170</ele>
        <time>2019-03-11T23:43:47Z</time>
      </trkpt>
      <trkpt lat="40.759406" lon="-0.411970">
        <ele>738.167</ele>
        <time>2019-03-11T23:44:27Z</time>
      </trkpt>
      <trkpt lat="40.759467" lon="-0.411991">
        <ele>738.148</ele>
        <time>2019-03-11T23:45:07Z</time>
      </trkpt>
      <trkpt lat="40.759550" lon="-0.412116">
        <ele>738.878</ele>
        <time>2019-03-11T23:45:47Z</time>
      </trkpt>
      <trkpt lat="40.759681" lon="-0.412240">
        <ele>739.413</ele>
        <time>2019-03-11T23:46:27Z</time>
      </trkpt>
      <trkpt lat="40.759821" lon="-0.412376">
        <ele>739.643</ele>
        <time>2019-03-11T23:47:07Z</time>
      </trkpt>
      <trkpt lat="40.759947" lon="-0.412620">
        <ele>739.807</ele>
        <time>2019-03-11T23:47:47Z</time>
      </trkpt>
      <trkpt lat="40.760139" lon="-0.412874">
        <ele>740.608</ele>
        <time>2019-03-11T23:48:27Z</time>
      </trkpt>
      <trkpt lat="40.760205" lon="-0.413087">
        <ele>740.313</ele>
        <time>2019-03-11T23:49:07Z</time>
      </trkpt>
      <trkpt lat="40.760253" lon="-0.413274">
        <ele>741.694</ele>
        <time>2019-03-11T23:49:47Z</time>
      </trkpt>
      <trkpt lat="40.760254" lon="-0.413425">
        <ele>741.649</ele>
        <time>2019-03-11T23:50:27Z</time>
      </trkpt>
      <trkpt lat="40.760227" lon="-0.413610">
        <ele>744.498</ele>
        <time>2019-03-11T23:51:07Z</time>
      </trkpt>
      <trkpt lat="40.760160" lon="-0.413792">
        <ele>747.944</ele>
        <time>2019-03-11T23:51:47Z</time>
      </trkpt>
      <trkpt lat="40.760014" lon="-0.414018">
        <ele>749.671</ele>
        <time>2019-03-11T23:52:27Z</time>
      </trkpt>
      <trkpt lat="40.759963" lon="-0.414218">
        <ele>750.292</ele>
        <time>2019-03-11T23:53:07Z</time>
      </trkpt>
      <trkpt lat="40.759991" lon="-0.414421">
        <ele>750.252</ele>
        <time>2019-03-11T23:53:47Z</time>
      </trkpt>
      <trkpt lat="40.760088" lon="-0.414685">
        <ele>750.123</ele>
        <time>2019-03-11T23:54:27Z</time>
      </trkpt>
      <trkpt lat="40.760149" lon="-0.414905">
        <ele>750.583</ele>
        <time>2019-03-11T23:55:07Z</time>
      </trkpt>
      <trkpt lat="40.760174" lon="-0.415115">
        <ele>749.911</ele>
        <time>2019-03-11T23:55:47Z</time>
      </trkpt>
      <trkpt lat="40.760189" lon="-0.415375">
        <ele>749.408</ele>
        <time>2019-03-11T23:56:27Z</time>
      </trkpt>
      <trkpt lat="40.760279" lon="-0.415602">
        <ele>749.234</ele>
        <time>2019-03-11T23:57:07Z</time>
      </trkpt>
      <trkpt lat="40.760263" lon="-0.415714">
        <ele>750.695</ele>
        <time>2019-03-11T23:57:47Z</time>
      </trkpt>
      <trkpt lat="40.760205" lon="-0.415797">
        <ele>752.390</ele>
        <time>2019-03-11T23:58:27Z</time>
      </trkpt>
      <trkpt lat="40.760086" lon="-0.415889">
        <ele>749.229</ele>
        <time>2019-03-11T23:59:07Z</time>
      </trkpt>
      <trkpt lat="40.760053" lon="-0.416051">
        <ele>749.845</ele>
        <time>2019-03-11T23:59:47Z</time>
      </trkpt>
      <trkpt lat="40.760077" lon="-0.416345">
        <ele>751.822</ele>
        <time>2019-03-12T00:00:27Z</time>
      </trkpt>
      <trkpt lat="40.760066" lon="-0.416631">
        <ele>751.773</ele>
        <time>2019-03-12T00:01:07Z</time>
      </trkpt>
      <trkpt lat="40.760109" lon="-0.416833">
        <ele>756.883</ele>
        <time>2019-03-12T00:01:47Z</time>
      </trkpt>
      <trkpt lat="40.760152" lon="-0.417138">
        <ele>757.284</ele>
        <time>2019-03-12T00:02:27Z</time>
      </trkpt>
      <trkpt lat="40.760191" lon="-0.417295">
        <ele>757.707</ele>
        <time>2019-03-12T00:03:07Z</time>
      </trkpt>
      <trkpt lat="40.760237" lon="-0.417362">
        <ele>757.717</ele>
        <time>2019-03-12T00:03:47Z</time>
      </trkpt>
      <trkpt lat="40.760313" lon="-0.417444">
        <ele>761.108</ele>
        <time>2019-03-12T00:04:27Z</time>
      </trkpt>
      <trkpt lat="40.760352" lon="-0.417578">
        <ele>761.170</ele>
        <time>2019-03-12T00:05:07Z</time>
      </trkpt>
      <trkpt lat="40.760404" lon="-0.417784">
        <ele>763.171</ele>
        <time>2019-03-12T00:05:47Z</time>
      </trkpt>
      <trkpt lat="40.760486" lon="-0.417995">
        <ele>766.056</ele>
        <time>2019-03-12T00:06:27Z</time>
      </trkpt>
      <trkpt lat="40.760560" lon="-0.418155">
        <ele>766.615</ele>
        <time>2019-03-12T00:07:07Z</time>
      </trkpt>
      <trkpt lat="40.760643" lon="-0.418355">
        <ele>767.281</ele>
        <time>2019-03-12T00:07:47Z</time>
      </trkpt>
      <trkpt lat="40.760720" lon="-0.418583">
        <ele>769.718</ele>
        <time>2019-03-12T00:08:27Z</time>
      </trkpt>
      <trkpt lat="40.760793" lon="-0.418792">
        <ele>769.649</ele>
        <time>2019-03-12T00:09:07Z</time>
      </trkpt>
      <trkpt lat="40.760836" lon="-0.418932">
        <ele>771.839</ele>
        <time>2019-03-12T00:09:47Z</time>
      </trkpt>
      <trkpt lat="40.760863" lon="-0.419087">
        <ele>771.923</ele>
        <time>2019-03-12T00:10:27Z</time>
      </trkpt>
      <trkpt lat="40.760893" lon="-0.419299">
        <ele>771.883</ele>
        <time>2019-03-12T00:11:07Z</time>
      </trkpt>
      <trkpt lat="40.760913" lon="-0.419527">
        <ele>771.911</ele>
        <time>2019-03-12T00:11:47Z</time>
      </trkpt>
      <trkpt lat="40.760915" lon="-0.419745">
        <ele>771.908</ele>
        <time>2019-03-12T00:12:27Z</time>
      </trkpt>
      <trkpt lat="40.760982" lon="-0.419931">
        <ele>771.854</ele>
        <time>2019-03-12T00:13:07Z</time>
      </trkpt>
      <trkpt lat="40.761029" lon="-0.420062">
        <ele>775.715</ele>
        <time>2019-03-12T00:13:47Z</time>
      </trkpt>
      <trkpt lat="40.761076" lon="-0.420169">
        <ele>775.720</ele>
        <time>2019-03-12T00:14:27Z</time>
      </trkpt>
      <trkpt lat="40.761105" lon="-0.420337">
        <ele>776.839</ele>
        <time>2019-03-12T00:15:07Z</time>
      </trkpt>
      <trkpt lat="40.761114" lon="-0.420514">
        <ele>778.255</ele>
        <time>2019-03-12T00:15:47Z</time>
      </trkpt>
      <trkpt lat="40.761095" lon="-0.420701">
        <ele>780.042</ele>
        <time>2019-03-12T00:16:27Z</time>
      </trkpt>
      <trkpt lat="40.761081" lon="-0.420846">
        <ele>780.993</ele>
        <time>2019-03-12T00:17:07Z</time>
      </trkpt>
      <trkpt lat="40.761095" lon="-0.421096">
        <ele>781.453</ele>
        <time>2019-03-12T00:17:47Z</time>
      </trkpt>
      <trkpt lat="40.761134" lon="-0.421341">
        <ele>781.481</ele>
        <time>2019-03-12T00:18:27Z</time>
      </trkpt>
      <trkpt lat="40.761181" lon="-0.421601">
        <ele>780.661</ele>
        <time>2019-03-12T00:19:07Z</time>
      </trkpt>
      <trkpt lat="40.761220" lon="-0.421861">
        <ele>783.417</ele>
        <time>2019-03-12T00:19:47Z</time>
      </trkpt>
      <trkpt lat="40.761248" lon="-0.422051">
        <ele>783.808</ele>
        <time>2019-03-12T00:20:27Z</time>
      </trkpt>
      <trkpt lat="40.761268" lon="-0.422209">
        <ele>783.730</ele>
        <time>2019-03-12T00:21:07Z</time>
      </trkpt>
      <trkpt lat="40.761269" lon="-0.422391">
        <ele>784.691</ele>
        <time>2019-03-12T00:21:47Z</time>
      </trkpt>
      <trkpt lat="40.761257" lon="-0.422562">
        <ele>786.276</ele>
        <time>2019-03-12T00:22:27Z</time>
      </trkpt>
      <trkpt lat="40.761262" lon="-0.422741">
        <ele>787.475</ele>
        <time>2019-03-12T00:23:07Z</time>
      </trkpt>
      <trkpt lat="40.761234" lon="-0.422934">
        <ele>788.521</ele>
        <time>2019-03-12T00:23:47Z</time>
      </trkpt>
      <trkpt lat="40.761174" lon="-0.423158">
        <ele>784.718</ele>
        <time>2019-03-12T00:24:27Z</time>
      </trkpt>
      <trkpt lat="40.761130" lon="-0.423388">
        <ele>786.029</ele>
        <time>2019-03-12T00:25:07Z</time>
      </trkpt>
      <trkpt lat="40.761110" lon="-0.423603">
        <ele>786.549</ele>
        <time>2019-03-12T00:25:47Z</time>
      </trkpt>
      <trkpt lat="40.761126" lon="-0.423921">
        <ele>786.721</ele>
        <time>2019-03-12T00:26:27Z</time>
      </trkpt>
      <trkpt lat="40.761161" lon="-0.424076">
        <ele>786.341</ele>
        <time>2019-03-12T00:27:07Z</time>
      </trkpt>
      <trkpt lat="40.761167" lon="-0.424219">
        <ele>786.305</ele>
        <time>2019-03-12T00:27:47Z</time>
      </trkpt>
      <trkpt lat="40.761170" lon="-0.424397">
        <ele>785.708</ele>
        <time>2019-03-12T00:28:27Z</time>
      </trkpt>
      <trkpt lat="40.761210" lon="-0.424492">
        <ele>787.974</ele>
        <time>2019-03-12T00:29:07Z</time>
      </trkpt>
      <trkpt lat="40.761291" lon="-0.424576">
        <ele>787.925</ele>
        <time>2019-03-12T00:29:47Z</time>
      </trkpt>
      <trkpt lat="40.761346" lon="-0.424687">
        <ele>787.360</ele>
        <time>2019-03-12T00:30:27Z</time>
      </trkpt>
      <trkpt lat="40.761365" lon="-0.424776">
        <ele>787.389</ele>
        <time>2019-03-12T00:31:07Z</time>
      </trkpt>
      <trkpt lat="40.761358" lon="-0.424891">
        <ele>787.345</ele>
        <time>2019-03-12T00:31:47Z</time>
      </trkpt>
      <trkpt lat="40.761299" lon="-0.425025">
        <ele>787.382</ele>
        <time>2019-03-12T00:32:27Z</time>
      </trkpt>
      <trkpt lat="40.761200" lon="-0.425174">
        <ele>787.313</ele>
        <time>2019-03-12T00:33:07Z</time>
      </trkpt>
      <trkpt lat="40.761146" lon="-0.425314">
        <ele>785.773</ele>
        <time>2019-03-12T00:33:47Z</time>
      </trkpt>
      <trkpt lat="40.761064" lon="-0.425449">
        <ele>786.841</ele>
        <time>2019-03-12T00:34:27Z</time>
      </trkpt>
      <trkpt lat="40.761038" lon="-0.425623">
        <ele>787.881</ele>
        <time>2019-03-12T00:35:07Z</time>
      </trkpt>
      <trkpt lat="40.761062" lon="-0.425741">
        <ele>789.009</ele>
        <time>2019-03-12T00:35:47Z</time>
      </trkpt>
      <trkpt lat="40.761136" lon="-0.425904">
        <ele>790.108</ele>
        <time>2019-03-12T00:36:27Z</time>
      </trkpt>
      <trkpt lat="40.761188" lon="-0.426114">
        <ele>793.876</ele>
        <time>2019-03-12T00:37:07Z</time>
      </trkpt>
      <trkpt lat="40.761244" lon="-0.426278">
        <ele>795.387</ele>
        <time>2019-03-12T00:37:47Z</time>
      </trkpt>
      <trkpt lat="40.761256" lon="-0.426479">
        <ele>796.142</ele>
        <time>2019-03-12T00:38:27Z</time>
      </trkpt>
      <trkpt lat="40.761298" lon="-0.426746">
        <ele>796.431</ele>
        <time>2019-03-12T00:39:07Z</time>
      </trkpt>
      <trkpt lat="40.761304" lon="-0.426988">
        <ele>796.717</ele>
        <time>2019-03-12T00:39:47Z</time>
      </trkpt>
      <trkpt lat="40.761338" lon="-0.427187">
        <ele>796.414</ele>
        <time>2019-03-12T00:40:27Z</time>
      </trkpt>
      <trkpt lat="40.761406" lon="-0.427292">
        <ele>799.345</ele>
        <time>2019-03-12T00:41:07Z</time>
      </trkpt>
      <trkpt lat="40.761543" lon="-0.427439">
        <ele>799.055</ele>
        <time>2019-03-12T00:41:47Z</time>
      </trkpt>
      <trkpt lat="40.761627" lon="-0.427515">
        <ele>802.042</ele>
        <time>2019-03-12T00:42:27Z</time>
      </trkpt>
      <trkpt lat="40.761683" lon="-0.427554">
        <ele>802.022</ele>
        <time>2019-03-12T00:43:07Z</time>
      </trkpt>
      <trkpt lat="40.761705" lon="-0.427671">
        <ele>802.014</ele>
        <time>2019-03-12T00:43:47Z</time>
      </trkpt>
      <trkpt lat="40.761705" lon="-0.427896">
        <ele>800.808</ele>
        <time>2019-03-12T00:44:27Z</time>
      </trkpt>
      <trkpt lat="40.761703" lon="-0.428118">
        <ele>800.876</ele>
        <time>2019-03-12T00:45:07Z</time>
      </trkpt>
      <trkpt lat="40.761705" lon="-0.428490">
        <ele>800.667</ele>
        <time>2019-03-12T00:45:47Z</time>
      </trkpt>
      <trkpt lat="40.761755" lon="-0.428735">
        <ele>803.562</ele>
        <time>2019-03-12T00:46:27Z</time>
      </trkpt>
      <trkpt lat="40.761882" lon="-0.429011">
        <ele>801.141</ele>
        <time>2019-03-12T00:47:07Z</time>
      </trkpt>
      <trkpt lat="40.761963" lon="-0.429171">
        <ele>805.197</ele>
        <time>2019-03-12T00:47:47Z</time>
      </trkpt>
      <trkpt lat="40.761963" lon="-0.429171">
        <ele>805.141</ele>
        <time>2019-03-11T19:38:51Z</time>
      </trkpt>
      <trkpt lat="40.762221" lon="-0.429028">
        <ele>809.581</ele>
        <time>2019-03-11T19:39:31Z</time>
      </trkpt>
      <trkpt lat="40.762670" lon="-0.429931">
        <ele>839.109</ele>
        <time>2019-03-11T19:40:11Z</time>
      </trkpt>
      <trkpt lat="40.763167" lon="-0.430348">
        <ele>848.008</ele>
        <time>2019-03-11T19:40:51Z</time>
      </trkpt>
      <trkpt lat="40.763701" lon="-0.430377">
        <ele>843.586</ele>
        <time>2019-03-11T19:41:31Z</time>
      </trkpt>
      <trkpt lat="40.764545" lon="-0.430812">
        <ele>847.237</ele>
        <time>2019-03-11T19:42:11Z</time>
      </trkpt>
      <trkpt lat="40.764716" lon="-0.431038">
        <ele>849.872</ele>
        <time>2019-03-11T19:42:51Z</time>
      </trkpt>
      <trkpt lat="40.764779" lon="-0.431552">
        <ele>851.661</ele>
        <time>2019-03-11T19:43:31Z</time>
      </trkpt>
      <trkpt lat="40.764499" lon="-0.432803">
        <ele>877.827</ele>
        <time>2019-03-11T19:44:11Z</time>
      </trkpt>
      <trkpt lat="40.764597" lon="-0.432979">
        <ele>878.764</ele>
        <time>2019-03-11T19:44:51Z</time>
      </trkpt>
      <trkpt lat="40.764903" lon="-0.432813">
        <ele>881.039</ele>
        <time>2019-03-11T19:45:31Z</time>
      </trkpt>
      <trkpt lat="40.765651" lon="-0.432852">
        <ele>891.161</ele>
        <time>2019-03-11T19:46:11Z</time>
      </trkpt>
      <trkpt lat="40.765961" lon="-0.433106">
        <ele>900.234</ele>
        <time>2019-03-11T19:46:51Z</time>
      </trkpt>
      <trkpt lat="40.765899" lon="-0.433380">
        <ele>902.055</ele>
        <time>2019-03-11T19:47:31Z</time>
      </trkpt>
      <trkpt lat="40.766118" lon="-0.433655">
        <ele>903.710</ele>
        <time>2019-03-11T19:48:11Z</time>
      </trkpt>
      <trkpt lat="40.766545" lon="-0.433706">
        <ele>909.208</ele>
        <time>2019-03-11T19:48:51Z</time>
      </trkpt>
      <trkpt lat="40.766833" lon="-0.433560">
        <ele>914.745</ele>
        <time>2019-03-11T19:49:31Z</time>
      </trkpt>
      <trkpt lat="40.767506" lon="-0.434123">
        <ele>934.286</ele>
        <time>2019-03-11T19:50:11Z</time>
      </trkpt>
      <trkpt lat="40.767525" lon="-0.435074">
        <ele>947.411</ele>
        <time>2019-03-11T19:50:51Z</time>
      </trkpt>
      <trkpt lat="40.767119" lon="-0.437356">
        <ele>971.340</ele>
        <time>2019-03-11T19:51:31Z</time>
      </trkpt>
      <trkpt lat="40.766481" lon="-0.438051">
        <ele>972.316</ele>
        <time>2019-03-11T19:52:11Z</time>
      </trkpt>
      <trkpt lat="40.766146" lon="-0.438771">
        <ele>969.763</ele>
        <time>2019-03-11T19:52:51Z</time>
      </trkpt>
      <trkpt lat="40.766195" lon="-0.439782">
        <ele>971.818</ele>
        <time>2019-03-11T19:53:31Z</time>
      </trkpt>
      <trkpt lat="40.766596" lon="-0.440444">
        <ele>978.210</ele>
        <time>2019-03-11T19:54:11Z</time>
      </trkpt>
      <trkpt lat="40.766398" lon="-0.441187">
        <ele>980.753</ele>
        <time>2019-03-11T19:54:51Z</time>
      </trkpt>
      <trkpt lat="40.766432" lon="-0.442151">
        <ele>989.704</ele>
        <time>2019-03-11T19:55:31Z</time>
      </trkpt>
      <trkpt lat="40.766668" lon="-0.442523">
        <ele>991.814</ele>
        <time>2019-03-11T19:56:11Z</time>
      </trkpt>
      <trkpt lat="40.767310" lon="-0.442634">
        <ele>999.208</ele>
        <time>2019-03-11T19:56:51Z</time>
      </trkpt>
      <trkpt lat="40.767960" lon="-0.443211">
        <ele>1009.747</ele>
        <time>2019-03-11T19:57:31Z</time>
      </trkpt>
      <trkpt lat="40.768073" lon="-0.443166">
        <ele>1016.898</ele>
        <time>2019-03-11T19:58:11Z</time>
      </trkpt>
      <trkpt lat="40.768007" lon="-0.442952">
        <ele>1007.843</ele>
        <time>2019-03-11T19:58:51Z</time>
      </trkpt>
      <trkpt lat="40.768180" lon="-0.442926">
        <ele>1014.852</ele>
        <time>2019-03-11T19:59:31Z</time>
      </trkpt>
      <trkpt lat="40.768303" lon="-0.443279">
        <ele>1024.488</ele>
        <time>2019-03-11T20:00:11Z</time>
      </trkpt>
      <trkpt lat="40.768543" lon="-0.443358">
        <ele>1029.025</ele>
        <time>2019-03-11T20:00:51Z</time>
      </trkpt>
      <trkpt lat="40.769164" lon="-0.443980">
        <ele>1040.910</ele>
        <time>2019-03-11T20:01:31Z</time>
      </trkpt>
      <trkpt lat="40.769668" lon="-0.444813">
        <ele>1048.632</ele>
        <time>2019-03-11T20:02:11Z</time>
      </trkpt>
      <trkpt lat="40.771042" lon="-0.445103">
        <ele>1060.957</ele>
        <time>2019-03-11T20:02:51Z</time>
      </trkpt>
      <trkpt lat="40.771779" lon="-0.445470">
        <ele>1074.900</ele>
        <time>2019-03-11T20:03:31Z</time>
      </trkpt>
      <trkpt lat="40.772287" lon="-0.445205">
        <ele>1079.020</ele>
        <time>2019-03-11T20:04:11Z</time>
      </trkpt>
      <trkpt lat="40.773278" lon="-0.444256">
        <ele>1083.708</ele>
        <time>2019-03-11T20:04:51Z</time>
      </trkpt>
      <trkpt lat="40.774239" lon="-0.443971">
        <ele>1089.147</ele>
        <time>2019-03-11T20:05:31Z</time>
      </trkpt>
      <trkpt lat="40.774556" lon="-0.443684">
        <ele>1088.258</ele>
        <time>2019-03-11T20:06:11Z</time>
      </trkpt>
      <trkpt lat="40.774781" lon="-0.443712">
        <ele>1094.833</ele>
        <time>2019-03-11T20:06:51Z</time>
      </trkpt>
      <trkpt lat="40.775021" lon="-0.444122">
        <ele>1106.682</ele>
        <time>2019-03-11T20:07:31Z</time>
      </trkpt>
      <trkpt lat="40.775111" lon="-0.444920">
        <ele>1130.098</ele>
        <time>2019-03-11T20:08:11Z</time>
      </trkpt>
      <trkpt lat="40.775388" lon="-0.444851">
        <ele>1137.155</ele>
        <time>2019-03-11T20:08:51Z</time>
      </trkpt>
      <trkpt lat="40.775328" lon="-0.445656">
        <ele>1146.040</ele>
        <time>2019-03-11T20:09:31Z</time>
      </trkpt>
      <trkpt lat="40.775792" lon="-0.446377">
        <ele>1147.652</ele>
        <time>2019-03-11T20:10:11Z</time>
      </trkpt>
      <trkpt lat="40.776640" lon="-0.446868">
        <ele>1140.513</ele>
        <time>2019-03-11T20:10:51Z</time>
      </trkpt>
      <trkpt lat="40.777190" lon="-0.446962">
        <ele>1138.743</ele>
        <time>2019-03-11T20:11:31Z</time>
      </trkpt>
      <trkpt lat="40.777976" lon="-0.446639">
        <ele>1130.107</ele>
        <time>2019-03-11T20:12:11Z</time>
      </trkpt>
      <trkpt lat="40.778881" lon="-0.446595">
        <ele>1127.708</ele>
        <time>2019-03-11T20:12:51Z</time>
      </trkpt>
      <trkpt lat="40.780896" lon="-0.445546">
        <ele>1137.563</ele>
        <time>2019-03-11T20:13:31Z</time>
      </trkpt>
      <trkpt lat="40.782115" lon="-0.445279">
        <ele>1133.044</ele>
        <time>2019-03-11T20:14:11Z</time>
      </trkpt>
      <trkpt lat="40.783454" lon="-0.444255">
        <ele>1132.489</ele>
        <time>2019-03-11T20:14:51Z</time>
      </trkpt>
      <trkpt lat="40.784522" lon="-0.444397">
        <ele>1123.198</ele>
        <time>2019-03-11T20:15:31Z</time>
      </trkpt>
      <trkpt lat="40.785783" lon="-0.444307">
        <ele>1116.034</ele>
        <time>2019-03-11T20:16:11Z</time>
      </trkpt>
      <trkpt lat="40.787882" lon="-0.444765">
        <ele>1101.121</ele>
        <time>2019-03-11T20:16:51Z</time>
      </trkpt>
      <trkpt lat="40.790196" lon="-0.444821">
        <ele>1093.316</ele>
        <time>2019-03-11T20:17:31Z</time>
      </trkpt>
      <trkpt lat="40.792318" lon="-0.445474">
        <ele>1090.328</ele>
        <time>2019-03-11T20:18:11Z</time>
      </trkpt>
      <trkpt lat="40.792671" lon="-0.446051">
        <ele>1080.743</ele>
        <time>2019-03-11T20:18:51Z</time>
      </trkpt>
      <trkpt lat="40.793060" lon="-0.445587">
        <ele>1080.664</ele>
        <time>2019-03-11T20:19:31Z</time>
      </trkpt>
      <trkpt lat="40.793997" lon="-0.446449">
        <ele>1057.910</ele>
        <time>2019-03-11T20:20:11Z</time>
      </trkpt>
      <trkpt lat="40.794084" lon="-0.446894">
        <ele>1058.908</ele>
        <time>2019-03-11T20:20:51Z</time>
      </trkpt>
      <trkpt lat="40.794378" lon="-0.447339">
        <ele>1051.226</ele>
        <time>2019-03-11T20:21:31Z</time>
      </trkpt>
      <trkpt lat="40.794223" lon="-0.448297">
        <ele>1044.477</ele>
        <time>2019-03-11T20:22:11Z</time>
      </trkpt>
      <trkpt lat="40.794281" lon="-0.448513">
        <ele>1044.992</ele>
        <time>2019-03-11T20:22:51Z</time>
      </trkpt>
      <trkpt lat="40.794351" lon="-0.448323">
        <ele>1033.281</ele>
        <time>2019-03-11T20:23:31Z</time>
      </trkpt>
      <trkpt lat="40.794517" lon="-0.448449">
        <ele>1022.137</ele>
        <time>2019-03-11T20:24:11Z</time>
      </trkpt>
      <trkpt lat="40.794926" lon="-0.449853">
        <ele>985.794</ele>
        <time>2019-03-11T20:24:51Z</time>
      </trkpt>
      <trkpt lat="40.794699" lon="-0.450175">
        <ele>984.199</ele>
        <time>2019-03-11T20:25:31Z</time>
      </trkpt>
      <trkpt lat="40.794943" lon="-0.450792">
        <ele>977.941</ele>
        <time>2019-03-11T20:26:11Z</time>
      </trkpt>
      <trkpt lat="40.794842" lon="-0.453205">
        <ele>964.349</ele>
        <time>2019-03-11T20:26:51Z</time>
      </trkpt>
      <trkpt lat="40.794964" lon="-0.453948">
        <ele>948.902</ele>
        <time>2019-03-11T20:27:31Z</time>
      </trkpt>
      <trkpt lat="40.795200" lon="-0.454306">
        <ele>940.322</ele>
        <time>2019-03-11T20:28:11Z</time>
      </trkpt>
      <trkpt lat="40.795611" lon="-0.454541">
        <ele>936.808</ele>
        <time>2019-03-11T20:28:51Z</time>
      </trkpt>
      <trkpt lat="40.796989" lon="-0.454520">
        <ele>931.436</ele>
        <time>2019-03-11T20:29:31Z</time>
      </trkpt>
      <trkpt lat="40.797515" lon="-0.455667">
        <ele>932.447</ele>
        <time>2019-03-11T20:30:11Z</time>
      </trkpt>
      <trkpt lat="40.797804" lon="-0.455951">
        <ele>928.362</ele>
        <time>2019-03-11T20:30:51Z</time>
      </trkpt>
      <trkpt lat="40.799922" lon="-0.456284">
        <ele>916.561</ele>
        <time>2019-03-11T20:31:31Z</time>
      </trkpt>
      <trkpt lat="40.801594" lon="-0.456259">
        <ele>907.287</ele>
        <time>2019-03-11T20:32:11Z</time>
      </trkpt>
      <trkpt lat="40.804531" lon="-0.455752">
        <ele>908.084</ele>
        <time>2019-03-11T20:32:51Z</time>
      </trkpt>
      <trkpt lat="40.805975" lon="-0.455000">
        <ele>899.739</ele>
        <time>2019-03-11T20:33:31Z</time>
      </trkpt>
      <trkpt lat="40.807508" lon="-0.454897">
        <ele>898.171</ele>
        <time>2019-03-11T20:34:11Z</time>
      </trkpt>
      <trkpt lat="40.808712" lon="-0.454572">
        <ele>890.187</ele>
        <time>2019-03-11T20:34:51Z</time>
      </trkpt>
      <trkpt lat="40.809745" lon="-0.455142">
        <ele>879.842</ele>
        <time>2019-03-11T20:35:31Z</time>
      </trkpt>
      <trkpt lat="40.810353" lon="-0.455262">
        <ele>877.726</ele>
        <time>2019-03-11T20:36:11Z</time>
      </trkpt>
      <trkpt lat="40.811575" lon="-0.454840">
        <ele>874.808</ele>
        <time>2019-03-11T20:36:51Z</time>
      </trkpt>
      <trkpt lat="40.812934" lon="-0.455825">
        <ele>860.050</ele>
        <time>2019-03-11T20:37:31Z</time>
      </trkpt>
      <trkpt lat="40.814142" lon="-0.456076">
        <ele>865.911</ele>
        <time>2019-03-11T20:38:11Z</time>
      </trkpt>
      <trkpt lat="40.815395" lon="-0.455223">
        <ele>872.566</ele>
        <time>2019-03-11T20:38:51Z</time>
      </trkpt>
      <trkpt lat="40.816112" lon="-0.455352">
        <ele>866.375</ele>
        <time>2019-03-11T20:39:31Z</time>
      </trkpt>
      <trkpt lat="40.816686" lon="-0.455262">
        <ele>871.881</ele>
        <time>2019-03-11T20:40:11Z</time>
      </trkpt>
      <trkpt lat="40.817230" lon="-0.454844">
        <ele>850.058</ele>
        <time>2019-03-11T20:40:51Z</time>
      </trkpt>
      <trkpt lat="40.817544" lon="-0.453855">
        <ele>845.963</ele>
        <time>2019-03-11T20:41:31Z</time>
      </trkpt>
      <trkpt lat="40.818161" lon="-0.452697">
        <ele>848.855</ele>
        <time>2019-03-11T20:42:11Z</time>
      </trkpt>
      <trkpt lat="40.818489" lon="-0.450800">
        <ele>849.425</ele>
        <time>2019-03-11T20:42:51Z</time>
      </trkpt>
      <trkpt lat="40.819207" lon="-0.450072">
        <ele>840.026</ele>
        <time>2019-03-11T20:43:31Z</time>
      </trkpt>
      <trkpt lat="40.819207" lon="-0.450072">
        <ele>840.085</ele>
        <time>2019-03-11T19:39:24Z</time>
      </trkpt>
      <trkpt lat="40.819506" lon="-0.449725">
        <ele>841.389</ele>
        <time>2019-03-11T19:40:04Z</time>
      </trkpt>
      <trkpt lat="40.819794" lon="-0.450198">
        <ele>832.617</ele>
        <time>2019-03-11T19:40:44Z</time>
      </trkpt>
      <trkpt lat="40.820183" lon="-0.450454">
        <ele>831.208</ele>
        <time>2019-03-11T19:41:24Z</time>
      </trkpt>
      <trkpt lat="40.820622" lon="-0.450335">
        <ele>830.360</ele>
        <time>2019-03-11T19:42:04Z</time>
      </trkpt>
      <trkpt lat="40.820766" lon="-0.450425">
        <ele>839.211</ele>
        <time>2019-03-11T19:42:44Z</time>
      </trkpt>
      <trkpt lat="40.820871" lon="-0.450856">
        <ele>844.396</ele>
        <time>2019-03-11T19:43:24Z</time>
      </trkpt>
      <trkpt lat="40.820789" lon="-0.451387">
        <ele>857.115</ele>
        <time>2019-03-11T19:44:04Z</time>
      </trkpt>
      <trkpt lat="40.821083" lon="-0.451411">
        <ele>859.911</ele>
        <time>2019-03-11T19:44:44Z</time>
      </trkpt>
      <trkpt lat="40.820660" lon="-0.454659">
        <ele>904.699</ele>
        <time>2019-03-11T19:45:24Z</time>
      </trkpt>
      <trkpt lat="40.820807" lon="-0.456128">
        <ele>915.879</ele>
        <time>2019-03-11T19:46:04Z</time>
      </trkpt>
      <trkpt lat="40.820739" lon="-0.457189">
        <ele>910.272</ele>
        <time>2019-03-11T19:46:44Z</time>
      </trkpt>
      <trkpt lat="40.820599" lon="-0.457580">
        <ele>909.566</ele>
        <time>2019-03-11T19:47:24Z</time>
      </trkpt>
      <trkpt lat="40.820258" lon="-0.457838">
        <ele>907.329</ele>
        <time>2019-03-11T19:48:04Z</time>
      </trkpt>
      <trkpt lat="40.820313" lon="-0.458029">
        <ele>907.421</ele>
        <time>2019-03-11T19:48:44Z</time>
      </trkpt>
      <trkpt lat="40.820689" lon="-0.458214">
        <ele>897.208</ele>
        <time>2019-03-11T19:49:24Z</time>
      </trkpt>
      <trkpt lat="40.820442" lon="-0.458615">
        <ele>901.568</ele>
        <time>2019-03-11T19:50:04Z</time>
      </trkpt>
      <trkpt lat="40.820430" lon="-0.459934">
        <ele>900.919</ele>
        <time>2019-03-11T19:50:44Z</time>
      </trkpt>
      <trkpt lat="40.820679" lon="-0.460759">
        <ele>895.374</ele>
        <time>2019-03-11T19:51:24Z</time>
      </trkpt>
      <trkpt lat="40.820861" lon="-0.461050">
        <ele>890.613</ele>
        <time>2019-03-11T19:52:04Z</time>
      </trkpt>
      <trkpt lat="40.821101" lon="-0.461129">
        <ele>885.399</ele>
        <time>2019-03-11T19:52:44Z</time>
      </trkpt>
      <trkpt lat="40.821062" lon="-0.462272">
        <ele>878.777</ele>
        <time>2019-03-11T19:53:24Z</time>
      </trkpt>
      <trkpt lat="40.821680" lon="-0.464849">
        <ele>861.227</ele>
        <time>2019-03-11T19:54:04Z</time>
      </trkpt>
      <trkpt lat="40.821392" lon="-0.466660">
        <ele>843.340</ele>
        <time>2019-03-11T19:54:44Z</time>
      </trkpt>
      <trkpt lat="40.820646" lon="-0.467687">
        <ele>833.315</ele>
        <time>2019-03-11T19:55:24Z</time>
      </trkpt>
      <trkpt lat="40.820541" lon="-0.468033">
        <ele>842.565</ele>
        <time>2019-03-11T19:56:04Z</time>
      </trkpt>
      <trkpt lat="40.821383" lon="-0.469447">
        <ele>843.411</ele>
        <time>2019-03-11T19:56:44Z</time>
      </trkpt>
      <trkpt lat="40.821457" lon="-0.469891">
        <ele>850.108</ele>
        <time>2019-03-11T19:57:24Z</time>
      </trkpt>
      <trkpt lat="40.821983" lon="-0.470903">
        <ele>852.233</ele>
        <time>2019-03-11T19:58:04Z</time>
      </trkpt>
      <trkpt lat="40.821841" lon="-0.472150">
        <ele>856.234</ele>
        <time>2019-03-11T19:58:44Z</time>
      </trkpt>
      <trkpt lat="40.821918" lon="-0.472892">
        <ele>845.049</ele>
        <time>2019-03-11T19:59:24Z</time>
      </trkpt>
      <trkpt lat="40.821730" lon="-0.473516">
        <ele>840.018</ele>
        <time>2019-03-11T20:00:04Z</time>
      </trkpt>
      <trkpt lat="40.821367" lon="-0.473909">
        <ele>845.874</ele>
        <time>2019-03-11T20:00:44Z</time>
      </trkpt>
      <trkpt lat="40.821107" lon="-0.476984">
        <ele>824.942</ele>
        <time>2019-03-11T20:01:24Z</time>
      </trkpt>
      <trkpt lat="40.821134" lon="-0.477208">
        <ele>819.922</ele>
        <time>2019-03-11T20:02:04Z</time>
      </trkpt>
      <trkpt lat="40.821531" lon="-0.477428">
        <ele>811.465</ele>
        <time>2019-03-11T20:02:44Z</time>
      </trkpt>
      <trkpt lat="40.821525" lon="-0.478291">
        <ele>810.935</ele>
        <time>2019-03-11T20:03:24Z</time>
      </trkpt>
      <trkpt lat="40.821340" lon="-0.478927">
        <ele>809.886</ele>
        <time>2019-03-11T20:04:04Z</time>
      </trkpt>
      <trkpt lat="40.821028" lon="-0.479381">
        <ele>812.014</ele>
        <time>2019-03-11T20:04:44Z</time>
      </trkpt>
      <trkpt lat="40.820823" lon="-0.480394">
        <ele>812.508</ele>
        <time>2019-03-11T20:05:24Z</time>
      </trkpt>
      <trkpt lat="40.820206" lon="-0.480990">
        <ele>815.455</ele>
        <time>2019-03-11T20:06:04Z</time>
      </trkpt>
      <trkpt lat="40.819505" lon="-0.482232">
        <ele>818.056</ele>
        <time>2019-03-11T20:06:44Z</time>
      </trkpt>
      <trkpt lat="40.820142" lon="-0.483535">
        <ele>826.151</ele>
        <time>2019-03-11T20:07:24Z</time>
      </trkpt>
      <trkpt lat="40.820076" lon="-0.484217">
        <ele>832.870</ele>
        <time>2019-03-11T20:08:04Z</time>
      </trkpt>
      <trkpt lat="40.820549" lon="-0.486021">
        <ele>844.046</ele>
        <time>2019-03-11T20:08:44Z</time>
      </trkpt>
      <trkpt lat="40.820579" lon="-0.488032">
        <ele>872.084</ele>
        <time>2019-03-11T20:09:24Z</time>
      </trkpt>
      <trkpt lat="40.821125" lon="-0.490922">
        <ele>889.124</ele>
        <time>2019-03-11T20:10:04Z</time>
      </trkpt>
      <trkpt lat="40.821413" lon="-0.491092">
        <ele>883.917</ele>
        <time>2019-03-11T20:10:44Z</time>
      </trkpt>
      <trkpt lat="40.821697" lon="-0.491561">
        <ele>874.924</ele>
        <time>2019-03-11T20:11:24Z</time>
      </trkpt>
      <trkpt lat="40.821964" lon="-0.491531">
        <ele>873.004</ele>
        <time>2019-03-11T20:12:04Z</time>
      </trkpt>
      <trkpt lat="40.822694" lon="-0.489280">
        <ele>879.514</ele>
        <time>2019-03-11T20:12:44Z</time>
      </trkpt>
      <trkpt lat="40.823893" lon="-0.489924">
        <ele>871.908</ele>
        <time>2019-03-11T20:13:24Z</time>
      </trkpt>
      <trkpt lat="40.824069" lon="-0.490732">
        <ele>866.754</ele>
        <time>2019-03-11T20:14:04Z</time>
      </trkpt>
      <trkpt lat="40.824532" lon="-0.490586">
        <ele>861.395</ele>
        <time>2019-03-11T20:14:44Z</time>
      </trkpt>
      <trkpt lat="40.825048" lon="-0.490203">
        <ele>852.770</ele>
        <time>2019-03-11T20:15:24Z</time>
      </trkpt>
      <trkpt lat="40.825808" lon="-0.491406">
        <ele>851.659</ele>
        <time>2019-03-11T20:16:04Z</time>
      </trkpt>
      <trkpt lat="40.825979" lon="-0.493156">
        <ele>848.425</ele>
        <time>2019-03-11T20:16:44Z</time>
      </trkpt>
      <trkpt lat="40.826981" lon="-0.494853">
        <ele>841.543</ele>
        <time>2019-03-11T20:17:24Z</time>
      </trkpt>
      <trkpt lat="40.827001" lon="-0.495243">
        <ele>840.263</ele>
        <time>2019-03-11T20:18:04Z</time>
      </trkpt>
      <trkpt lat="40.826242" lon="-0.498052">
        <ele>845.486</ele>
        <time>2019-03-11T20:18:44Z</time>
      </trkpt>
      <trkpt lat="40.826342" lon="-0.498639">
        <ele>841.784</ele>
        <time>2019-03-11T20:19:24Z</time>
      </trkpt>
      <trkpt lat="40.826206" lon="-0.499704">
        <ele>845.307</ele>
        <time>2019-03-11T20:20:04Z</time>
      </trkpt>
      <trkpt lat="40.826393" lon="-0.500650">
        <ele>840.017</ele>
        <time>2019-03-11T20:20:44Z</time>
      </trkpt>
      <trkpt lat="40.825862" lon="-0.504006">
        <ele>848.808</ele>
        <time>2019-03-11T20:21:24Z</time>
      </trkpt>
      <trkpt lat="40.825943" lon="-0.504600">
        <ele>847.130</ele>
        <time>2019-03-11T20:22:04Z</time>
      </trkpt>
      <trkpt lat="40.826480" lon="-0.505131">
        <ele>848.651</ele>
        <time>2019-03-11T20:22:44Z</time>
      </trkpt>
      <trkpt lat="40.825282" lon="-0.508850">
        <ele>862.246</ele>
        <time>2019-03-11T20:23:24Z</time>
      </trkpt>
      <trkpt lat="40.824342" lon="-0.510385">
        <ele>860.465</ele>
        <time>2019-03-11T20:24:04Z</time>
      </trkpt>
      <trkpt lat="40.823816" lon="-0.511710">
        <ele>862.171</ele>
        <time>2019-03-11T20:24:44Z</time>
      </trkpt>
      <trkpt lat="40.822263" lon="-0.513212">
        <ele>869.259</ele>
        <time>2019-03-11T20:25:24Z</time>
      </trkpt>
      <trkpt lat="40.820727" lon="-0.515907">
        <ele>877.169</ele>
        <time>2019-03-11T20:26:04Z</time>
      </trkpt>
      <trkpt lat="40.817520" lon="-0.519910">
        <ele>885.292</ele>
        <time>2019-03-11T20:26:44Z</time>
      </trkpt>
      <trkpt lat="40.816339" lon="-0.522419">
        <ele>890.795</ele>
        <time>2019-03-11T20:27:24Z</time>
      </trkpt>
      <trkpt lat="40.816107" lon="-0.524232">
        <ele>894.849</ele>
        <time>2019-03-11T20:28:04Z</time>
      </trkpt>
      <trkpt lat="40.815915" lon="-0.524507">
        <ele>898.223</ele>
        <time>2019-03-11T20:28:44Z</time>
      </trkpt>
      <trkpt lat="40.815738" lon="-0.524528">
        <ele>899.808</ele>
        <time>2019-03-11T20:29:24Z</time>
      </trkpt>
      <trkpt lat="40.815192" lon="-0.525323">
        <ele>898.051</ele>
        <time>2019-03-11T20:30:04Z</time>
      </trkpt>
      <trkpt lat="40.814166" lon="-0.527293">
        <ele>910.092</ele>
        <time>2019-03-11T20:30:44Z</time>
      </trkpt>
      <trkpt lat="40.812795" lon="-0.528633">
        <ele>910.847</ele>
        <time>2019-03-11T20:31:24Z</time>
      </trkpt>
      <trkpt lat="40.812403" lon="-0.529386">
        <ele>918.946</ele>
        <time>2019-03-11T20:32:04Z</time>
      </trkpt>
      <trkpt lat="40.811847" lon="-0.529888">
        <ele>915.772</ele>
        <time>2019-03-11T20:32:44Z</time>
      </trkpt>
      <trkpt lat="40.811062" lon="-0.530387">
        <ele>918.640</ele>
        <time>2019-03-11T20:33:24Z</time>
      </trkpt>
      <trkpt lat="40.810394" lon="-0.530405">
        <ele>920.340</ele>
        <time>2019-03-11T20:34:04Z</time>
      </trkpt>
      <trkpt lat="40.809805" lon="-0.530731">
        <ele>920.363</ele>
        <time>2019-03-11T20:34:44Z</time>
      </trkpt>
      <trkpt lat="40.809211" lon="-0.531519">
        <ele>919.699</ele>
        <time>2019-03-11T20:35:24Z</time>
      </trkpt>
      <trkpt lat="40.808937" lon="-0.532412">
        <ele>930.307</ele>
        <time>2019-03-11T20:36:04Z</time>
      </trkpt>
      <trkpt lat="40.808289" lon="-0.532976">
        <ele>934.227</ele>
        <time>2019-03-11T20:36:44Z</time>
      </trkpt>
      <trkpt lat="40.807731" lon="-0.533752">
        <ele>946.808</ele>
        <time>2019-03-11T20:37:24Z</time>
      </trkpt>
      <trkpt lat="40.807184" lon="-0.533828">
        <ele>936.041</ele>
        <time>2019-03-11T20:38:04Z</time>
      </trkpt>
      <trkpt lat="40.807141" lon="-0.534512">
        <ele>948.372</ele>
        <time>2019-03-11T20:38:44Z</time>
      </trkpt>
      <trkpt lat="40.806479" lon="-0.534926">
        <ele>943.887</ele>
        <time>2019-03-11T20:39:24Z</time>
      </trkpt>
      <trkpt lat="40.806329" lon="-0.535340">
        <ele>953.166</ele>
        <time>2019-03-11T20:40:04Z</time>
      </trkpt>
      <trkpt lat="40.805991" lon="-0.535637">
        <ele>955.552</ele>
        <time>2019-03-11T20:40:44Z</time>
      </trkpt>
      <trkpt lat="40.805557" lon="-0.535638">
        <ele>952.120</ele>
        <time>2019-03-11T20:41:24Z</time>
      </trkpt>
      <trkpt lat="40.805144" lon="-0.535870">
        <ele>958.720</ele>
        <time>2019-03-11T20:42:04Z</time>
      </trkpt>
      <trkpt lat="40.804827" lon="-0.535680">
        <ele>951.553</ele>
        <time>2019-03-11T20:42:44Z</time>
      </trkpt>
      <trkpt lat="40.804323" lon="-0.535745">
        <ele>953.168</ele>
        <time>2019-03-11T20:43:24Z</time>
      </trkpt>
      <trkpt lat="40.804117" lon="-0.535936">
        <ele>961.242</ele>
        <time>2019-03-11T20:44:04Z</time>
      </trkpt>
      <trkpt lat="40.803439" lon="-0.535943">
        <ele>956.826</ele>
        <time>2019-03-11T20:44:44Z</time>
      </trkpt>
      <trkpt lat="40.802878" lon="-0.536254">
        <ele>957.208</ele>
        <time>2019-03-11T20:45:24Z</time>
      </trkpt>
      <trkpt lat="40.802618" lon="-0.536252">
        <ele>955.028</ele>
        <time>2019-03-11T20:46:04Z</time>
      </trkpt>
      <trkpt lat="40.801321" lon="-0.537027">
        <ele>964.169</ele>
        <time>2019-03-11T20:46:44Z</time>
      </trkpt>
      <trkpt lat="40.800561" lon="-0.537241">
        <ele>961.234</ele>
        <time>2019-03-11T20:47:24Z</time>
      </trkpt>
      <trkpt lat="40.800171" lon="-0.537171">
        <ele>967.573</ele>
        <time>2019-03-11T20:48:04Z</time>
      </trkpt>
      <trkpt lat="40.799449" lon="-0.537326">
        <ele>961.919</ele>
        <time>2019-03-11T20:48:44Z</time>
      </trkpt>
      <trkpt lat="40.798991" lon="-0.537789">
        <ele>957.167</ele>
        <time>2019-03-11T20:49:24Z</time>
      </trkpt>
      <trkpt lat="40.798799" lon="-0.538257">
        <ele>960.917</ele>
        <time>2019-03-11T20:50:04Z</time>
      </trkpt>
      <trkpt lat="40.798418" lon="-0.538492">
        <ele>966.620</ele>
        <time>2019-03-11T20:50:44Z</time>
      </trkpt>
      <trkpt lat="40.797865" lon="-0.538394">
        <ele>979.032</ele>
        <time>2019-03-11T20:51:24Z</time>
      </trkpt>
      <trkpt lat="40.797138" lon="-0.537771">
        <ele>968.792</ele>
        <time>2019-03-11T20:52:04Z</time>
      </trkpt>
      <trkpt lat="40.796709" lon="-0.538063">
        <ele>971.111</ele>
        <time>2019-03-11T20:52:44Z</time>
      </trkpt>
      <trkpt lat="40.796453" lon="-0.537538">
        <ele>978.408</ele>
        <time>2019-03-11T20:53:24Z</time>
      </trkpt>
      <trkpt lat="40.796263" lon="-0.537446">
        <ele>970.495</ele>
        <time>2019-03-11T20:54:04Z</time>
      </trkpt>
      <trkpt lat="40.795964" lon="-0.537580">
        <ele>977.946</ele>
        <time>2019-03-11T20:54:44Z</time>
      </trkpt>
      <trkpt lat="40.795404" lon="-0.538406">
        <ele>1001.761</ele>
        <time>2019-03-11T20:55:24Z</time>
      </trkpt>
      <trkpt lat="40.794726" lon="-0.538601">
        <ele>991.240</ele>
        <time>2019-03-11T20:56:04Z</time>
      </trkpt>
      <trkpt lat="40.794566" lon="-0.539169">
        <ele>995.716</ele>
        <time>2019-03-11T20:56:44Z</time>
      </trkpt>
      <trkpt lat="40.794064" lon="-0.539684">
        <ele>998.514</ele>
        <time>2019-03-11T20:57:24Z</time>
      </trkpt>
      <trkpt lat="40.792594" lon="-0.540091">
        <ele>1011.644</ele>
        <time>2019-03-11T20:58:04Z</time>
      </trkpt>
      <trkpt lat="40.792249" lon="-0.539807">
        <ele>1006.257</ele>
        <time>2019-03-11T20:58:44Z</time>
      </trkpt>
      <trkpt lat="40.792014" lon="-0.539295">
        <ele>992.012</ele>
        <time>2019-03-11T20:59:24Z</time>
      </trkpt>
      <trkpt lat="40.791944" lon="-0.540209">
        <ele>992.632</ele>
        <time>2019-03-11T21:00:04Z</time>
      </trkpt>
      <trkpt lat="40.791706" lon="-0.540835">
        <ele>996.205</ele>
        <time>2019-03-11T21:00:44Z</time>
      </trkpt>
      <trkpt lat="40.790864" lon="-0.542028">
        <ele>1012.608</ele>
        <time>2019-03-11T21:01:24Z</time>
      </trkpt>
      <trkpt lat="40.790393" lon="-0.542283">
        <ele>1018.963</ele>
        <time>2019-03-11T21:02:04Z</time>
      </trkpt>
      <trkpt lat="40.789616" lon="-0.542155">
        <ele>1025.974</ele>
        <time>2019-03-11T21:02:44Z</time>
      </trkpt>
      <trkpt lat="40.788604" lon="-0.541087">
        <ele>1018.189</ele>
        <time>2019-03-11T21:03:24Z</time>
      </trkpt>
      <trkpt lat="40.788294" lon="-0.541132">
        <ele>1017.818</ele>
        <time>2019-03-11T21:04:04Z</time>
      </trkpt>
      <trkpt lat="40.787886" lon="-0.540453">
        <ele>1020.544</ele>
        <time>2019-03-11T21:04:44Z</time>
      </trkpt>
      <trkpt lat="40.786862" lon="-0.540111">
        <ele>1023.182</ele>
        <time>2019-03-11T21:05:24Z</time>
      </trkpt>
      <trkpt lat="40.786376" lon="-0.540150">
        <ele>1031.782</ele>
        <time>2019-03-11T21:06:04Z</time>
      </trkpt>
      <trkpt lat="40.784653" lon="-0.538814">
        <ele>1021.385</ele>
        <time>2019-03-11T21:06:44Z</time>
      </trkpt>
      <trkpt lat="40.784249" lon="-0.539148">
        <ele>1025.448</ele>
        <time>2019-03-11T21:07:24Z</time>
      </trkpt>
      <trkpt lat="40.782362" lon="-0.540079">
        <ele>1022.961</ele>
        <time>2019-03-11T21:08:04Z</time>
      </trkpt>
      <trkpt lat="40.780979" lon="-0.538968">
        <ele>1027.917</ele>
        <time>2019-03-11T21:08:44Z</time>
      </trkpt>
      <trkpt lat="40.780826" lon="-0.538624">
        <ele>1023.708</ele>
        <time>2019-03-11T21:09:24Z</time>
      </trkpt>
      <trkpt lat="40.780575" lon="-0.538543">
        <ele>1029.946</ele>
        <time>2019-03-11T21:10:04Z</time>
      </trkpt>
      <trkpt lat="40.779680" lon="-0.539247">
        <ele>1026.837</ele>
        <time>2019-03-11T21:10:44Z</time>
      </trkpt>
      <trkpt lat="40.778920" lon="-0.540499">
        <ele>1029.442</ele>
        <time>2019-03-11T21:11:24Z</time>
      </trkpt>
      <trkpt lat="40.778552" lon="-0.540857">
        <ele>1030.061</ele>
        <time>2019-03-11T21:12:04Z</time>
      </trkpt>
      <trkpt lat="40.777751" lon="-0.542795">
        <ele>1037.177</ele>
        <time>2019-03-11T21:12:44Z</time>
      </trkpt>
      <trkpt lat="40.777248" lon="-0.543373">
        <ele>1039.965</ele>
        <time>2019-03-11T21:13:24Z</time>
      </trkpt>
      <trkpt lat="40.776702" lon="-0.544342">
        <ele>1049.295</ele>
        <time>2019-03-11T21:14:04Z</time>
      </trkpt>
      <trkpt lat="40.776212" lon="-0.545781">
        <ele>1052.078</ele>
        <time>2019-03-11T21:14:44Z</time>
      </trkpt>
      <trkpt lat="40.776130" lon="-0.546932">
        <ele>1058.631</ele>
        <time>2019-03-11T21:15:24Z</time>
      </trkpt>
      <trkpt lat="40.775948" lon="-0.547087">
        <ele>1057.961</ele>
        <time>2019-03-11T21:16:04Z</time>
      </trkpt>
      <trkpt lat="40.775337" lon="-0.546879">
        <ele>1050.707</ele>
        <time>2019-03-11T21:16:44Z</time>
      </trkpt>
      <trkpt lat="40.773994" lon="-0.549139">
        <ele>1057.108</ele>
        <time>2019-03-11T21:17:24Z</time>
      </trkpt>
      <trkpt lat="40.773899" lon="-0.549900">
        <ele>1059.065</ele>
        <time>2019-03-11T21:18:04Z</time>
      </trkpt>
      <trkpt lat="40.774207" lon="-0.552161">
        <ele>1065.356</ele>
        <time>2019-03-11T21:18:44Z</time>
      </trkpt>
      <trkpt lat="40.774181" lon="-0.552910">
        <ele>1073.651</ele>
        <time>2019-03-11T21:19:24Z</time>
      </trkpt>
      <trkpt lat="40.777829" lon="-0.553583">
        <ele>1114.389</ele>
        <time>2015-10-11T07:04:19Z</time>
      </trkpt>
      <trkpt lat="40.777317" lon="-0.553426">
        <ele>1116.206</ele>
        <time>2015-10-11T07:05:14Z</time>
      </trkpt>
      <trkpt lat="40.777207" lon="-0.553697">
        <ele>1117.226</ele>
        <time>2015-10-11T07:05:56Z</time>
      </trkpt>
      <trkpt lat="40.777179" lon="-0.553491">
        <ele>1116.208</ele>
        <time>2015-10-11T07:06:25Z</time>
      </trkpt>
      <trkpt lat="40.776853" lon="-0.553417">
        <ele>1113.329</ele>
        <time>2015-10-11T07:06:50Z</time>
      </trkpt>
      <trkpt lat="40.776237" lon="-0.553498">
        <ele>1108.129</ele>
        <time>2015-10-11T07:07:42Z</time>
      </trkpt>
      <trkpt lat="40.775963" lon="-0.554137">
        <ele>1106.178</ele>
        <time>2015-10-11T07:08:28Z</time>
      </trkpt>
      <trkpt lat="40.776334" lon="-0.555648">
        <ele>1096.046</ele>
        <time>2015-10-11T07:10:06Z</time>
      </trkpt>
      <trkpt lat="40.775945" lon="-0.556159">
        <ele>1092.753</ele>
        <time>2015-10-11T07:10:54Z</time>
      </trkpt>
      <trkpt lat="40.775656" lon="-0.556911">
        <ele>1087.992</ele>
        <time>2015-10-11T07:11:43Z</time>
      </trkpt>
      <trkpt lat="40.774733" lon="-0.557262">
        <ele>1079.216</ele>
        <time>2015-10-11T07:13:04Z</time>
      </trkpt>
      <trkpt lat="40.774621" lon="-0.556528">
        <ele>1073.039</ele>
        <time>2015-10-11T07:13:46Z</time>
      </trkpt>
      <trkpt lat="40.774106" lon="-0.556679">
        <ele>1068.254</ele>
        <time>2015-10-11T07:14:29Z</time>
      </trkpt>
      <trkpt lat="40.773626" lon="-0.555421">
        <ele>1072.556</ele>
        <time>2015-10-11T07:17:04Z</time>
      </trkpt>
      <trkpt lat="40.773580" lon="-0.554406">
        <ele>1074.911</ele>
        <time>2015-10-11T07:18:08Z</time>
      </trkpt>
      <trkpt lat="40.773665" lon="-0.553909">
        <ele>1070.108</ele>
        <time>2015-10-11T07:18:39Z</time>
      </trkpt>
      <trkpt lat="40.773985" lon="-0.553308">
        <ele>1064.816</ele>
        <time>2015-10-11T07:19:20Z</time>
      </trkpt>
      <trkpt lat="40.773884" lon="-0.553223">
        <ele>1062.936</ele>
        <time>2015-10-11T07:19:51Z</time>
      </trkpt>
      <trkpt lat="40.773274" lon="-0.553583">
        <ele>1054.735</ele>
        <time>2015-10-11T07:21:21Z</time>
      </trkpt>
      <trkpt lat="40.772877" lon="-0.553411">
        <ele>1050.433</ele>
        <time>2015-10-11T07:21:50Z</time>
      </trkpt>
      <trkpt lat="40.772591" lon="-0.553458">
        <ele>1049.460</ele>
        <time>2015-10-11T07:22:12Z</time>
      </trkpt>
      <trkpt lat="40.771945" lon="-0.554051">
        <ele>1055.259</ele>
        <time>2015-10-11T07:23:17Z</time>
      </trkpt>
      <trkpt lat="40.770621" lon="-0.554091">
        <ele>1063.473</ele>
        <time>2015-10-11T07:25:11Z</time>
      </trkpt>
      <trkpt lat="40.769076" lon="-0.554905">
        <ele>1068.686</ele>
        <time>2015-10-11T07:27:27Z</time>
      </trkpt>
      <trkpt lat="40.767041" lon="-0.555384">
        <ele>1076.324</ele>
        <time>2015-10-11T07:30:19Z</time>
      </trkpt>
      <trkpt lat="40.766517" lon="-0.555286">
        <ele>1078.304</ele>
        <time>2015-10-11T07:31:02Z</time>
      </trkpt>
      <trkpt lat="40.765415" lon="-0.554692">
        <ele>1086.414</ele>
        <time>2015-10-11T07:32:44Z</time>
      </trkpt>
      <trkpt lat="40.764819" lon="-0.554628">
        <ele>1086.408</ele>
        <time>2015-10-11T07:33:34Z</time>
      </trkpt>
      <trkpt lat="40.764685" lon="-0.554669">
        <ele>1086.453</ele>
        <time>2015-10-11T07:33:46Z</time>
      </trkpt>
      <trkpt lat="40.764489" lon="-0.555149">
        <ele>1085.583</ele>
        <time>2015-10-11T07:34:20Z</time>
      </trkpt>
      <trkpt lat="40.764075" lon="-0.555270">
        <ele>1095.172</ele>
        <time>2015-10-11T07:35:10Z</time>
      </trkpt>
      <trkpt lat="40.763852" lon="-0.555500">
        <ele>1103.740</ele>
        <time>2015-10-11T07:35:52Z</time>
      </trkpt>
      <trkpt lat="40.763776" lon="-0.555164">
        <ele>1108.587</ele>
        <time>2015-10-11T07:36:25Z</time>
      </trkpt>
      <trkpt lat="40.763217" lon="-0.554642">
        <ele>1113.346</ele>
        <time>2015-10-11T07:39:51Z</time>
      </trkpt>
      <trkpt lat="40.762713" lon="-0.554833">
        <ele>1121.050</ele>
        <time>2015-10-11T07:40:51Z</time>
      </trkpt>
      <trkpt lat="40.762555" lon="-0.555119">
        <ele>1125.883</ele>
        <time>2015-10-11T07:41:20Z</time>
      </trkpt>
      <trkpt lat="40.761218" lon="-0.555667">
        <ele>1148.927</ele>
        <time>2015-10-11T07:44:04Z</time>
      </trkpt>
      <trkpt lat="40.760347" lon="-0.555592">
        <ele>1171.568</ele>
        <time>2015-10-11T07:46:14Z</time>
      </trkpt>
      <trkpt lat="40.759168" lon="-0.556028">
        <ele>1194.114</ele>
        <time>2015-10-11T07:49:03Z</time>
      </trkpt>
      <trkpt lat="40.758828" lon="-0.556315">
        <ele>1197.908</ele>
        <time>2015-10-11T07:50:21Z</time>
      </trkpt>
      <trkpt lat="40.758693" lon="-0.556650">
        <ele>1205.253</ele>
        <time>2015-10-11T07:51:05Z</time>
      </trkpt>
      <trkpt lat="40.757322" lon="-0.557294">
        <ele>1233.513</ele>
        <time>2015-10-11T07:54:24Z</time>
      </trkpt>
      <trkpt lat="40.756505" lon="-0.557004">
        <ele>1256.142</ele>
        <time>2015-10-11T07:56:54Z</time>
      </trkpt>
      <trkpt lat="40.755219" lon="-0.555674">
        <ele>1287.350</ele>
        <time>2015-10-11T08:01:00Z</time>
      </trkpt>
      <trkpt lat="40.753900" lon="-0.555270">
        <ele>1306.687</ele>
        <time>2015-10-11T08:03:36Z</time>
      </trkpt>
      <trkpt lat="40.752930" lon="-0.554736">
        <ele>1330.656</ele>
        <time>2015-10-11T08:06:12Z</time>
      </trkpt>
      <trkpt lat="40.751592" lon="-0.555340">
        <ele>1332.510</ele>
        <time>2015-10-11T08:09:51Z</time>
      </trkpt>
      <trkpt lat="40.750057" lon="-0.555798">
        <ele>1339.373</ele>
        <time>2015-10-11T08:12:27Z</time>
      </trkpt>
      <trkpt lat="40.749231" lon="-0.556399">
        <ele>1323.458</ele>
        <time>2015-10-11T08:14:14Z</time>
      </trkpt>
      <trkpt lat="40.748359" lon="-0.557527">
        <ele>1308.552</ele>
        <time>2015-10-11T08:16:01Z</time>
      </trkpt>
      <trkpt lat="40.748178" lon="-0.558499">
        <ele>1302.217</ele>
        <time>2015-10-11T08:17:12Z</time>
      </trkpt>
      <trkpt lat="40.747676" lon="-0.559369">
        <ele>1301.308</ele>
        <time>2015-10-11T08:18:33Z</time>
      </trkpt>
      <trkpt lat="40.746516" lon="-0.560081">
        <ele>1304.776</ele>
        <time>2015-10-11T08:20:50Z</time>
      </trkpt>
      <trkpt lat="40.745838" lon="-0.558199">
        <ele>1293.166</ele>
        <time>2015-10-11T08:23:59Z</time>
      </trkpt>
      <trkpt lat="40.745520" lon="-0.556397">
        <ele>1299.485</ele>
        <time>2015-10-11T08:26:19Z</time>
      </trkpt>
      <trkpt lat="40.745074" lon="-0.555155">
        <ele>1314.713</ele>
        <time>2015-10-11T08:28:24Z</time>
      </trkpt>
      <trkpt lat="40.744761" lon="-0.554795">
        <ele>1322.050</ele>
        <time>2015-10-11T08:29:14Z</time>
      </trkpt>
      <trkpt lat="40.742763" lon="-0.554771">
        <ele>1335.939</ele>
        <time>2015-10-11T08:32:40Z</time>
      </trkpt>
      <trkpt lat="40.742575" lon="-0.554921">
        <ele>1340.793</ele>
        <time>2015-10-11T08:33:12Z</time>
      </trkpt>
      <trkpt lat="40.742241" lon="-0.554916">
        <ele>1348.486</ele>
        <time>2015-10-11T08:34:02Z</time>
      </trkpt>
      <trkpt lat="40.741660" lon="-0.555743">
        <ele>1342.121</ele>
        <time>2015-10-11T08:35:29Z</time>
      </trkpt>
      <trkpt lat="40.741420" lon="-0.555579">
        <ele>1336.841</ele>
        <time>2015-10-11T08:35:55Z</time>
      </trkpt>
      <trkpt lat="40.741292" lon="-0.554730">
        <ele>1333.505</ele>
        <time>2015-10-11T08:36:59Z</time>
      </trkpt>
      <trkpt lat="40.741069" lon="-0.554405">
        <ele>1330.108</ele>
        <time>2015-10-11T08:37:29Z</time>
      </trkpt>
      <trkpt lat="40.740857" lon="-0.554349">
        <ele>1330.643</ele>
        <time>2015-10-11T08:37:48Z</time>
      </trkpt>
      <trkpt lat="40.740567" lon="-0.554635">
        <ele>1322.013</ele>
        <time>2015-10-11T08:38:24Z</time>
      </trkpt>
      <trkpt lat="40.739982" lon="-0.554761">
        <ele>1308.042</ele>
        <time>2015-10-11T08:39:26Z</time>
      </trkpt>
      <trkpt lat="40.739549" lon="-0.554299">
        <ele>1306.660</ele>
        <time>2015-10-11T08:40:21Z</time>
      </trkpt>
      <trkpt lat="40.737665" lon="-0.553300">
        <ele>1307.537</ele>
        <time>2015-10-11T08:43:45Z</time>
      </trkpt>
      <trkpt lat="40.736889" lon="-0.552070">
        <ele>1303.256</ele>
        <time>2015-10-11T08:45:47Z</time>
      </trkpt>
      <trkpt lat="40.735666" lon="-0.551595">
        <ele>1301.880</ele>
        <time>2015-10-11T08:47:28Z</time>
      </trkpt>
      <trkpt lat="40.734460" lon="-0.549305">
        <ele>1290.783</ele>
        <time>2015-10-11T08:50:17Z</time>
      </trkpt>
      <trkpt lat="40.733566" lon="-0.549095">
        <ele>1280.123</ele>
        <time>2015-10-11T08:51:28Z</time>
      </trkpt>
      <trkpt lat="40.732702" lon="-0.549286">
        <ele>1282.583</ele>
        <time>2015-10-11T08:52:41Z</time>
      </trkpt>
      <trkpt lat="40.731616" lon="-0.549165">
        <ele>1282.111</ele>
        <time>2015-10-11T08:55:02Z</time>
      </trkpt>
      <trkpt lat="40.730381" lon="-0.549474">
        <ele>1258.008</ele>
        <time>2015-10-11T08:57:11Z</time>
      </trkpt>
      <trkpt lat="40.729841" lon="-0.549294">
        <ele>1243.173</ele>
        <time>2015-10-11T08:58:29Z</time>
      </trkpt>
      <trkpt lat="40.729250" lon="-0.549415">
        <ele>1222.963</ele>
        <time>2015-10-11T09:00:04Z</time>
      </trkpt>
      <trkpt lat="40.728963" lon="-0.549642">
        <ele>1217.722</ele>
        <time>2015-10-11T09:00:42Z</time>
      </trkpt>
      <trkpt lat="40.728709" lon="-0.549567">
        <ele>1214.860</ele>
        <time>2015-10-11T09:01:17Z</time>
      </trkpt>
      <trkpt lat="40.727903" lon="-0.549834">
        <ele>1201.877</ele>
        <time>2015-10-11T09:02:49Z</time>
      </trkpt>
      <trkpt lat="40.727249" lon="-0.550161">
        <ele>1197.946</ele>
        <time>2015-10-11T09:03:52Z</time>
      </trkpt>
      <trkpt lat="40.726841" lon="-0.550187">
        <ele>1197.010</ele>
        <time>2015-10-11T09:05:01Z</time>
      </trkpt>
      <trkpt lat="40.726019" lon="-0.550546">
        <ele>1189.873</ele>
        <time>2015-10-11T09:06:13Z</time>
      </trkpt>
      <trkpt lat="40.725853" lon="-0.550802">
        <ele>1186.442</ele>
        <time>2015-10-11T09:06:45Z</time>
      </trkpt>
      <trkpt lat="40.723819" lon="-0.549781">
        <ele>1173.422</ele>
        <time>2015-10-11T09:11:10Z</time>
      </trkpt>
      <trkpt lat="40.722911" lon="-0.550034">
        <ele>1173.014</ele>
        <time>2015-10-11T09:12:42Z</time>
      </trkpt>
      <trkpt lat="40.722461" lon="-0.549900">
        <ele>1178.208</ele>
        <time>2015-10-11T09:13:30Z</time>
      </trkpt>
      <trkpt lat="40.721418" lon="-0.548495">
        <ele>1193.115</ele>
        <time>2015-10-11T09:19:05Z</time>
      </trkpt>
      <trkpt lat="40.719742" lon="-0.548370">
        <ele>1202.855</ele>
        <time>2015-10-11T09:21:30Z</time>
      </trkpt>
      <trkpt lat="40.717856" lon="-0.547374">
        <ele>1187.854</ele>
        <time>2015-10-11T09:24:08Z</time>
      </trkpt>
      <trkpt lat="40.716738" lon="-0.547024">
        <ele>1180.642</ele>
        <time>2015-10-11T09:25:45Z</time>
      </trkpt>
      <trkpt lat="40.715902" lon="-0.547274">
        <ele>1167.259</ele>
        <time>2015-10-11T09:27:04Z</time>
      </trkpt>
      <trkpt lat="40.714877" lon="-0.546976">
        <ele>1149.988</ele>
        <time>2015-10-11T09:28:38Z</time>
      </trkpt>
      <trkpt lat="40.714572" lon="-0.547024">
        <ele>1144.652</ele>
        <time>2015-10-11T09:29:06Z</time>
      </trkpt>
      <trkpt lat="40.714109" lon="-0.546740">
        <ele>1141.785</ele>
        <time>2015-10-11T09:30:04Z</time>
      </trkpt>
      <trkpt lat="40.713357" lon="-0.546657">
        <ele>1143.141</ele>
        <time>2015-10-11T09:31:04Z</time>
      </trkpt>
      <trkpt lat="40.712933" lon="-0.546311">
        <ele>1142.781</ele>
        <time>2015-10-11T09:31:48Z</time>
      </trkpt>
      <trkpt lat="40.712509" lon="-0.545516">
        <ele>1145.109</ele>
        <time>2015-10-11T09:32:56Z</time>
      </trkpt>
      <trkpt lat="40.711879" lon="-0.545079">
        <ele>1150.308</ele>
        <time>2015-10-11T09:33:56Z</time>
      </trkpt>
      <trkpt lat="40.711429" lon="-0.545014">
        <ele>1152.335</ele>
        <time>2015-10-11T09:34:31Z</time>
      </trkpt>
      <trkpt lat="40.711095" lon="-0.545148">
        <ele>1154.225</ele>
        <time>2015-10-11T09:34:59Z</time>
      </trkpt>
      <trkpt lat="40.709786" lon="-0.547207">
        <ele>1150.824</ele>
        <time>2015-10-11T09:41:07Z</time>
      </trkpt>
      <trkpt lat="40.707434" lon="-0.549857">
        <ele>1134.052</ele>
        <time>2015-10-11T09:45:32Z</time>
      </trkpt>
      <trkpt lat="40.707111" lon="-0.550400">
        <ele>1130.719</ele>
        <time>2015-10-11T09:49:03Z</time>
      </trkpt>
      <trkpt lat="40.706898" lon="-0.551246">
        <ele>1134.078</ele>
        <time>2015-10-11T09:50:19Z</time>
      </trkpt>
      <trkpt lat="40.706504" lon="-0.551781">
        <ele>1134.572</ele>
        <time>2015-10-11T09:51:07Z</time>
      </trkpt>
      <trkpt lat="40.705198" lon="-0.552885">
        <ele>1134.055</ele>
        <time>2015-10-11T09:53:18Z</time>
      </trkpt>
      <trkpt lat="40.704312" lon="-0.553262">
        <ele>1134.584</ele>
        <time>2015-10-11T09:54:36Z</time>
      </trkpt>
      <trkpt lat="40.703570" lon="-0.554090">
        <ele>1130.207</ele>
        <time>2015-10-11T09:55:54Z</time>
      </trkpt>
      <trkpt lat="40.702538" lon="-0.555624">
        <ele>1132.117</ele>
        <time>2015-10-11T09:58:04Z</time>
      </trkpt>
      <trkpt lat="40.700387" lon="-0.557042">
        <ele>1119.108</ele>
        <time>2015-10-11T10:01:20Z</time>
      </trkpt>
      <trkpt lat="40.699645" lon="-0.557248">
        <ele>1117.279</ele>
        <time>2015-10-11T10:02:20Z</time>
      </trkpt>
      <trkpt lat="40.699097" lon="-0.557573">
        <ele>1113.379</ele>
        <time>2015-10-11T10:03:08Z</time>
      </trkpt>
      <trkpt lat="40.698396" lon="-0.558636">
        <ele>1108.518</ele>
        <time>2015-10-11T10:04:46Z</time>
      </trkpt>
      <trkpt lat="40.697660" lon="-0.558247">
        <ele>1087.416</ele>
        <time>2015-10-11T10:06:47Z</time>
      </trkpt>
      <trkpt lat="40.698446" lon="-0.555998">
        <ele>1052.813</ele>
        <time>2015-10-11T10:10:02Z</time>
      </trkpt>
      <trkpt lat="40.698503" lon="-0.555367">
        <ele>1044.612</ele>
        <time>2015-10-11T10:12:30Z</time>
      </trkpt>
      <trkpt lat="40.699632" lon="-0.553425">
        <ele>1032.156</ele>
        <time>2015-10-11T10:15:15Z</time>
      </trkpt>
      <trkpt lat="40.699784" lon="-0.552318">
        <ele>1026.369</ele>
        <time>2015-10-11T10:17:47Z</time>
      </trkpt>
      <trkpt lat="40.699967" lon="-0.551958">
        <ele>1025.997</ele>
        <time>2015-10-11T10:18:18Z</time>
      </trkpt>
      <trkpt lat="40.700639" lon="-0.551336">
        <ele>1017.223</ele>
        <time>2015-10-11T10:19:20Z</time>
      </trkpt>
      <trkpt lat="40.700895" lon="-0.550213">
        <ele>1008.125</ele>
        <time>2015-10-11T10:20:28Z</time>
      </trkpt>
      <trkpt lat="40.700869" lon="-0.549566">
        <ele>1003.808</ele>
        <time>2015-10-11T10:21:06Z</time>
      </trkpt>
      <trkpt lat="40.701072" lon="-0.549097">
        <ele>1000.420</ele>
        <time>2015-10-11T10:21:41Z</time>
      </trkpt>
      <trkpt lat="40.700632" lon="-0.548227">
        <ele>995.620</ele>
        <time>2015-10-11T10:23:14Z</time>
      </trkpt>
      <trkpt lat="40.700540" lon="-0.547706">
        <ele>991.739</ele>
        <time>2015-10-11T10:23:47Z</time>
      </trkpt>
      <trkpt lat="40.700633" lon="-0.547304">
        <ele>989.357</ele>
        <time>2015-10-11T10:24:15Z</time>
      </trkpt>
      <trkpt lat="40.701123" lon="-0.546672">
        <ele>984.074</ele>
        <time>2015-10-11T10:25:08Z</time>
      </trkpt>
      <trkpt lat="40.701249" lon="-0.545780">
        <ele>982.133</ele>
        <time>2015-10-11T10:25:59Z</time>
      </trkpt>
      <trkpt lat="40.701149" lon="-0.545344">
        <ele>981.217</ele>
        <time>2015-10-11T10:26:26Z</time>
      </trkpt>
      <trkpt lat="40.700421" lon="-0.545026">
        <ele>976.410</ele>
        <time>2015-10-11T10:27:26Z</time>
      </trkpt>
      <trkpt lat="40.701203" lon="-0.543928">
        <ele>967.283</ele>
        <time>2015-10-11T10:29:05Z</time>
      </trkpt>
      <trkpt lat="40.701090" lon="-0.543842">
        <ele>967.725</ele>
        <time>2015-10-11T10:29:17Z</time>
      </trkpt>
      <trkpt lat="40.700580" lon="-0.544178">
        <ele>971.517</ele>
        <time>2015-10-11T10:30:03Z</time>
      </trkpt>
      <trkpt lat="40.700110" lon="-0.544147">
        <ele>974.408</ele>
        <time>2015-10-11T10:30:41Z</time>
      </trkpt>
      <trkpt lat="40.699578" lon="-0.544527">
        <ele>980.759</ele>
        <time>2015-10-11T10:31:44Z</time>
      </trkpt>
      <trkpt lat="40.698903" lon="-0.544029">
        <ele>986.979</ele>
        <time>2015-10-11T10:34:19Z</time>
      </trkpt>
      <trkpt lat="40.698548" lon="-0.544099">
        <ele>990.358</ele>
        <time>2015-10-11T10:34:50Z</time>
      </trkpt>
      <trkpt lat="40.698025" lon="-0.544670">
        <ele>994.676</ele>
        <time>2015-10-11T10:35:50Z</time>
      </trkpt>
      <trkpt lat="40.697561" lon="-0.544450">
        <ele>997.573</ele>
        <time>2015-10-11T10:36:30Z</time>
      </trkpt>
      <trkpt lat="40.697113" lon="-0.543554">
        <ele>1000.982</ele>
        <time>2015-10-11T10:41:20Z</time>
      </trkpt>
      <trkpt lat="40.695859" lon="-0.542059">
        <ele>1011.956</ele>
        <time>2015-10-11T10:43:44Z</time>
      </trkpt>
      <trkpt lat="40.695706" lon="-0.541617">
        <ele>1014.349</ele>
        <time>2015-10-11T10:44:15Z</time>
      </trkpt>
      <trkpt lat="40.695718" lon="-0.540631">
        <ele>1020.121</ele>
        <time>2015-10-11T10:45:20Z</time>
      </trkpt>
      <trkpt lat="40.695221" lon="-0.538154">
        <ele>1036.041</ele>
        <time>2015-10-11T10:48:12Z</time>
      </trkpt>
      <trkpt lat="40.695452" lon="-0.534969">
        <ele>1050.405</ele>
        <time>2015-10-11T10:51:46Z</time>
      </trkpt>
      <trkpt lat="40.695078" lon="-0.534718">
        <ele>1049.408</ele>
        <time>2015-10-11T10:52:22Z</time>
      </trkpt>
      <trkpt lat="40.694710" lon="-0.535214">
        <ele>1052.833</ele>
        <time>2015-10-11T10:53:14Z</time>
      </trkpt>
      <trkpt lat="40.693857" lon="-0.535004">
        <ele>1043.293</ele>
        <time>2015-10-11T10:55:22Z</time>
      </trkpt>
      <trkpt lat="40.693512" lon="-0.534376">
        <ele>1046.512</ele>
        <time>2015-10-11T11:35:02Z</time>
      </trkpt>
      <trkpt lat="40.693411" lon="-0.534604">
        <ele>1043.250</ele>
        <time>2015-10-11T11:41:00Z</time>
      </trkpt>
      <trkpt lat="40.693311" lon="-0.533112">
        <ele>1021.577</ele>
        <time>2015-10-11T11:43:29Z</time>
      </trkpt>
      <trkpt lat="40.693098" lon="-0.533213">
        <ele>1012.916</ele>
        <time>2015-10-11T11:44:25Z</time>
      </trkpt>
      <trkpt lat="40.692638" lon="-0.531844">
        <ele>989.340</ele>
        <time>2015-10-11T11:47:11Z</time>
      </trkpt>
      <trkpt lat="40.692126" lon="-0.531449">
        <ele>982.633</ele>
        <time>2015-10-11T11:48:21Z</time>
      </trkpt>
      <trkpt lat="40.690940" lon="-0.531319">
        <ele>973.519</ele>
        <time>2015-10-11T11:50:37Z</time>
      </trkpt>
      <trkpt lat="40.690802" lon="-0.531178">
        <ele>969.209</ele>
        <time>2015-10-11T11:51:00Z</time>
      </trkpt>
      <trkpt lat="40.690711" lon="-0.531404">
        <ele>965.319</ele>
        <time>2015-10-11T11:51:38Z</time>
      </trkpt>
      <trkpt lat="40.690062" lon="-0.531262">
        <ele>966.308</ele>
        <time>2015-10-11T11:52:49Z</time>
      </trkpt>
      <trkpt lat="40.689827" lon="-0.530720">
        <ele>973.022</ele>
        <time>2015-10-11T11:53:49Z</time>
      </trkpt>
      <trkpt lat="40.689065" lon="-0.530072">
        <ele>979.772</ele>
        <time>2015-10-11T11:57:16Z</time>
      </trkpt>
      <trkpt lat="40.688403" lon="-0.530754">
        <ele>961.531</ele>
        <time>2015-10-11T11:59:21Z</time>
      </trkpt>
      <trkpt lat="40.688299" lon="-0.531841">
        <ele>953.349</ele>
        <time>2015-10-11T12:00:51Z</time>
      </trkpt>
      <trkpt lat="40.687761" lon="-0.532141">
        <ele>946.196</ele>
        <time>2015-10-11T12:01:49Z</time>
      </trkpt>
      <trkpt lat="40.687627" lon="-0.533042">
        <ele>940.335</ele>
        <time>2015-10-11T12:03:13Z</time>
      </trkpt>
      <trkpt lat="40.688065" lon="-0.533481">
        <ele>931.269</ele>
        <time>2015-10-11T12:04:22Z</time>
      </trkpt>
      <trkpt lat="40.687845" lon="-0.533429">
        <ele>925.482</ele>
        <time>2015-10-11T12:05:01Z</time>
      </trkpt>
      <trkpt lat="40.687807" lon="-0.534277">
        <ele>908.631</ele>
        <time>2015-10-11T12:06:34Z</time>
      </trkpt>
      <trkpt lat="40.687180" lon="-0.534875">
        <ele>896.161</ele>
        <time>2015-10-11T12:07:54Z</time>
      </trkpt>
      <trkpt lat="40.686987" lon="-0.534890">
        <ele>893.207</ele>
        <time>2015-10-11T12:08:12Z</time>
      </trkpt>
      <trkpt lat="40.686649" lon="-0.535344">
        <ele>886.508</ele>
        <time>2015-10-11T12:09:12Z</time>
      </trkpt>
      <trkpt lat="40.685671" lon="-0.536036">
        <ele>869.644</ele>
        <time>2015-10-11T12:10:52Z</time>
      </trkpt>
      <trkpt lat="40.685027" lon="-0.536067">
        <ele>859.124</ele>
        <time>2015-10-11T12:11:53Z</time>
      </trkpt>
      <trkpt lat="40.684376" lon="-0.536417">
        <ele>843.273</ele>
        <time>2015-10-11T12:13:21Z</time>
      </trkpt>
      <trkpt lat="40.683914" lon="-0.536082">
        <ele>838.921</ele>
        <time>2015-10-11T12:14:09Z</time>
      </trkpt>
      <trkpt lat="40.683497" lon="-0.536027">
        <ele>834.678</ele>
        <time>2015-10-11T12:14:44Z</time>
      </trkpt>
      <trkpt lat="40.683009" lon="-0.535603">
        <ele>826.457</ele>
        <time>2015-10-11T12:15:44Z</time>
      </trkpt>
      <trkpt lat="40.682954" lon="-0.535305">
        <ele>822.191</ele>
        <time>2015-10-11T12:16:12Z</time>
      </trkpt>
      <trkpt lat="40.682806" lon="-0.535299">
        <ele>819.274</ele>
        <time>2015-10-11T12:16:25Z</time>
      </trkpt>
      <trkpt lat="40.682416" lon="-0.535849">
        <ele>809.128</ele>
        <time>2015-10-11T12:17:20Z</time>
      </trkpt>
      <trkpt lat="40.682139" lon="-0.535966">
        <ele>806.789</ele>
        <time>2015-10-11T12:20:07Z</time>
      </trkpt>
      <trkpt lat="40.681911" lon="-0.536514">
        <ele>804.817</ele>
        <time>2015-10-11T12:20:47Z</time>
      </trkpt>
      <trkpt lat="40.680683" lon="-0.537632">
        <ele>803.808</ele>
        <time>2015-10-11T12:23:01Z</time>
      </trkpt>
      <trkpt lat="40.680407" lon="-0.538258">
        <ele>805.283</ele>
        <time>2015-10-11T12:23:49Z</time>
      </trkpt>
      <trkpt lat="40.680365" lon="-0.539105">
        <ele>806.233</ele>
        <time>2015-10-11T12:24:44Z</time>
      </trkpt>
      <trkpt lat="40.680532" lon="-0.539382">
        <ele>805.782</ele>
        <time>2015-10-11T12:25:06Z</time>
      </trkpt>
      <trkpt lat="40.681136" lon="-0.539589">
        <ele>807.270</ele>
        <time>2015-10-11T12:26:07Z</time>
      </trkpt>
      <trkpt lat="40.681367" lon="-0.540399">
        <ele>808.137</ele>
        <time>2015-10-11T12:32:38Z</time>
      </trkpt>
      <trkpt lat="40.681692" lon="-0.540543">
        <ele>812.446</ele>
        <time>2015-10-11T12:33:26Z</time>
      </trkpt>
      <trkpt lat="40.681722" lon="-0.540705">
        <ele>814.490</ele>
        <time>2015-10-11T12:33:43Z</time>
      </trkpt>
      <trkpt lat="40.681532" lon="-0.541015">
        <ele>820.163</ele>
        <time>2015-10-11T12:34:18Z</time>
      </trkpt>
      <trkpt lat="40.681223" lon="-0.540914">
        <ele>824.996</ele>
        <time>2015-10-11T12:34:52Z</time>
      </trkpt>
      <trkpt lat="40.680785" lon="-0.541139">
        <ele>832.231</ele>
        <time>2015-10-11T12:36:00Z</time>
      </trkpt>
      <trkpt lat="40.680831" lon="-0.541735">
        <ele>839.824</ele>
        <time>2015-10-11T12:36:55Z</time>
      </trkpt>
      <trkpt lat="40.679922" lon="-0.543561">
        <ele>843.208</ele>
        <time>2015-10-11T12:42:03Z</time>
      </trkpt>
      <trkpt lat="40.680222" lon="-0.544246">
        <ele>842.350</ele>
        <time>2015-10-11T12:43:13Z</time>
      </trkpt>
      <trkpt lat="40.680689" lon="-0.544499">
        <ele>839.810</ele>
        <time>2015-10-11T12:44:09Z</time>
      </trkpt>
      <trkpt lat="40.681063" lon="-0.545000">
        <ele>834.669</ele>
        <time>2015-10-11T12:44:58Z</time>
      </trkpt>
      <trkpt lat="40.681382" lon="-0.547261">
        <ele>813.437</ele>
        <time>2015-10-11T12:47:42Z</time>
      </trkpt>
      <trkpt lat="40.681250" lon="-0.547643">
        <ele>810.594</ele>
        <time>2015-10-11T12:48:17Z</time>
      </trkpt>
      <trkpt lat="40.680566" lon="-0.548168">
        <ele>810.063</ele>
        <time>2015-10-11T12:49:25Z</time>
      </trkpt>
      <trkpt lat="40.679849" lon="-0.548329">
        <ele>810.027</ele>
        <time>2015-10-11T12:50:34Z</time>
      </trkpt>
      <trkpt lat="40.678274" lon="-0.546341">
        <ele>812.080</ele>
        <time>2015-10-11T12:53:51Z</time>
      </trkpt>
      <trkpt lat="40.677195" lon="-0.545226">
        <ele>817.799</ele>
        <time>2015-10-11T12:55:50Z</time>
      </trkpt>
      <trkpt lat="40.676525" lon="-0.544819">
        <ele>820.607</ele>
        <time>2015-10-11T12:56:53Z</time>
      </trkpt>
      <trkpt lat="40.676184" lon="-0.543459">
        <ele>818.227</ele>
        <time>2015-10-11T12:59:39Z</time>
      </trkpt>
      <trkpt lat="40.675662" lon="-0.542331">
        <ele>815.808</ele>
        <time>2015-10-11T13:01:09Z</time>
      </trkpt>
      <trkpt lat="40.675241" lon="-0.542342">
        <ele>816.350</ele>
        <time>2015-10-11T13:01:46Z</time>
      </trkpt>
      <trkpt lat="40.675138" lon="-0.542114">
        <ele>816.830</ele>
        <time>2015-10-11T13:02:09Z</time>
      </trkpt>
      <trkpt lat="40.674641" lon="-0.541828">
        <ele>818.729</ele>
        <time>2015-10-11T13:03:04Z</time>
      </trkpt>
      <trkpt lat="40.673685" lon="-0.540423">
        <ele>823.077</ele>
        <time>2015-10-11T13:05:22Z</time>
      </trkpt>
      <trkpt lat="40.673435" lon="-0.539772">
        <ele>825.444</ele>
        <time>2015-10-11T13:06:15Z</time>
      </trkpt>
      <trkpt lat="40.673284" lon="-0.539632">
        <ele>823.553</ele>
        <time>2015-10-11T13:06:38Z</time>
      </trkpt>
      <trkpt lat="40.672969" lon="-0.539723">
        <ele>824.947</ele>
        <time>2015-10-11T13:07:16Z</time>
      </trkpt>
      <trkpt lat="40.672520" lon="-0.538931">
        <ele>826.990</ele>
        <time>2015-10-11T13:08:30Z</time>
      </trkpt>
      <trkpt lat="40.671331" lon="-0.538205">
        <ele>834.639</ele>
        <time>2015-10-11T13:10:46Z</time>
      </trkpt>
      <trkpt lat="40.670442" lon="-0.537269">
        <ele>850.401</ele>
        <time>2015-10-11T13:13:16Z</time>
      </trkpt>
      <trkpt lat="40.670434" lon="-0.536891">
        <ele>855.221</ele>
        <time>2015-10-11T13:13:59Z</time>
      </trkpt>
      <trkpt lat="40.670260" lon="-0.536607">
        <ele>861.008</ele>
        <time>2015-10-11T13:14:40Z</time>
      </trkpt>
      <trkpt lat="40.669977" lon="-0.536699">
        <ele>866.874</ele>
        <time>2015-10-11T13:15:26Z</time>
      </trkpt>
      <trkpt lat="40.669823" lon="-0.537037">
        <ele>872.584</ele>
        <time>2015-10-11T13:16:11Z</time>
      </trkpt>
      <trkpt lat="40.669669" lon="-0.536902">
        <ele>878.323</ele>
        <time>2015-10-11T13:16:52Z</time>
      </trkpt>
      <trkpt lat="40.669440" lon="-0.537511">
        <ele>890.851</ele>
        <time>2015-10-11T13:18:40Z</time>
      </trkpt>
      <trkpt lat="40.669384" lon="-0.537440">
        <ele>893.258</ele>
        <time>2015-10-11T13:19:18Z</time>
      </trkpt>
      <trkpt lat="40.668834" lon="-0.538067">
        <ele>907.177</ele>
        <time>2015-10-11T13:21:07Z</time>
      </trkpt>
      <trkpt lat="40.668383" lon="-0.539113">
        <ele>923.031</ele>
        <time>2015-10-11T13:23:07Z</time>
      </trkpt>
      <trkpt lat="40.668850" lon="-0.539253">
        <ele>931.744</ele>
        <time>2015-10-11T13:24:23Z</time>
      </trkpt>
      <trkpt lat="40.667459" lon="-0.540247">
        <ele>962.487</ele>
        <time>2015-10-11T13:28:24Z</time>
      </trkpt>
      <trkpt lat="40.667489" lon="-0.540430">
        <ele>967.742</ele>
        <time>2015-10-11T13:30:42Z</time>
      </trkpt>
      <trkpt lat="40.666986" lon="-0.540777">
        <ele>982.126</ele>
        <time>2015-10-11T13:32:50Z</time>
      </trkpt>
      <trkpt lat="40.666656" lon="-0.540705">
        <ele>986.908</ele>
        <time>2015-10-11T13:33:45Z</time>
      </trkpt>
      <trkpt lat="40.666655" lon="-0.540434">
        <ele>993.749</ele>
        <time>2015-10-11T13:34:33Z</time>
      </trkpt>
      <trkpt lat="40.665554" lon="-0.540974">
        <ele>1015.319</ele>
        <time>2015-10-11T13:37:35Z</time>
      </trkpt>
      <trkpt lat="40.664540" lon="-0.540914">
        <ele>1032.698</ele>
        <time>2015-10-11T13:40:29Z</time>
      </trkpt>
      <trkpt lat="40.664183" lon="-0.540676">
        <ele>1041.336</ele>
        <time>2015-10-11T13:41:18Z</time>
      </trkpt>
      <trkpt lat="40.663716" lon="-0.540605">
        <ele>1049.983</ele>
        <time>2015-10-11T13:42:32Z</time>
      </trkpt>
      <trkpt lat="40.663079" lon="-0.539936">
        <ele>1058.662</ele>
        <time>2015-10-11T13:46:03Z</time>
      </trkpt>
      <trkpt lat="40.662311" lon="-0.539920">
        <ele>1071.546</ele>
        <time>2015-10-11T13:47:39Z</time>
      </trkpt>
      <trkpt lat="40.661984" lon="-0.539678">
        <ele>1076.819</ele>
        <time>2015-10-11T13:48:36Z</time>
      </trkpt>
      <trkpt lat="40.661390" lon="-0.539740">
        <ele>1081.122</ele>
        <time>2015-10-11T13:49:30Z</time>
      </trkpt>
      <trkpt lat="40.660972" lon="-0.539496">
        <ele>1086.062</ele>
        <time>2015-10-11T13:50:16Z</time>
      </trkpt>
      <trkpt lat="40.659376" lon="-0.536633">
        <ele>1081.608</ele>
        <time>2015-10-11T13:54:52Z</time>
      </trkpt>
      <trkpt lat="40.658485" lon="-0.535658">
        <ele>1068.608</ele>
        <time>2015-10-11T13:57:06Z</time>
      </trkpt>
      <trkpt lat="40.657623" lon="-0.535818">
        <ele>1064.873</ele>
        <time>2015-10-11T13:59:58Z</time>
      </trkpt>
      <trkpt lat="40.657138" lon="-0.535669">
        <ele>1060.523</ele>
        <time>2015-10-11T14:00:38Z</time>
      </trkpt>
      <trkpt lat="40.656526" lon="-0.535712">
        <ele>1057.682</ele>
        <time>2015-10-11T14:01:22Z</time>
      </trkpt>
      <trkpt lat="40.655655" lon="-0.535559">
        <ele>1059.030</ele>
        <time>2015-10-11T14:02:34Z</time>
      </trkpt>
      <trkpt lat="40.655207" lon="-0.535261">
        <ele>1061.927</ele>
        <time>2015-10-11T14:03:31Z</time>
      </trkpt>
      <trkpt lat="40.654452" lon="-0.535108">
        <ele>1066.786</ele>
        <time>2015-10-11T14:04:28Z</time>
      </trkpt>
      <trkpt lat="40.653316" lon="-0.535124">
        <ele>1071.140</ele>
        <time>2015-10-11T14:05:55Z</time>
      </trkpt>
      <trkpt lat="40.652948" lon="-0.534843">
        <ele>1075.413</ele>
        <time>2015-10-11T14:06:34Z</time>
      </trkpt>
      <trkpt lat="40.652428" lon="-0.534082">
        <ele>1086.097</ele>
        <time>2015-10-11T14:07:54Z</time>
      </trkpt>
      <trkpt lat="40.650032" lon="-0.532089">
        <ele>1112.423</ele>
        <time>2015-10-11T14:13:30Z</time>
      </trkpt>
      <trkpt lat="40.649575" lon="-0.531490">
        <ele>1113.825</ele>
        <time>2015-10-11T14:14:49Z</time>
      </trkpt>
      <trkpt lat="40.649049" lon="-0.531649">
        <ele>1134.531</ele>
        <time>2019-03-11T19:40:37Z</time>
      </trkpt>
      <trkpt lat="40.648921" lon="-0.531651">
        <ele>1136.561</ele>
        <time>2019-03-11T19:41:17Z</time>
      </trkpt>
      <trkpt lat="40.648849" lon="-0.531725">
        <ele>1144.007</ele>
        <time>2019-03-11T19:41:57Z</time>
      </trkpt>
      <trkpt lat="40.648806" lon="-0.531814">
        <ele>1144.008</ele>
        <time>2019-03-11T19:42:37Z</time>
      </trkpt>
      <trkpt lat="40.648651" lon="-0.531879">
        <ele>1143.165</ele>
        <time>2019-03-11T19:43:17Z</time>
      </trkpt>
      <trkpt lat="40.648556" lon="-0.531972">
        <ele>1149.726</ele>
        <time>2019-03-11T19:43:57Z</time>
      </trkpt>
      <trkpt lat="40.648402" lon="-0.532084">
        <ele>1154.441</ele>
        <time>2019-03-11T19:44:37Z</time>
      </trkpt>
      <trkpt lat="40.648268" lon="-0.532247">
        <ele>1151.010</ele>
        <time>2019-03-11T19:45:17Z</time>
      </trkpt>
      <trkpt lat="40.648112" lon="-0.532382">
        <ele>1153.636</ele>
        <time>2019-03-11T19:45:57Z</time>
      </trkpt>
      <trkpt lat="40.647987" lon="-0.532497">
        <ele>1159.744</ele>
        <time>2019-03-11T19:46:37Z</time>
      </trkpt>
      <trkpt lat="40.647893" lon="-0.532593">
        <ele>1157.769</ele>
        <time>2019-03-11T19:47:17Z</time>
      </trkpt>
      <trkpt lat="40.647773" lon="-0.532674">
        <ele>1164.648</ele>
        <time>2019-03-11T19:47:57Z</time>
      </trkpt>
      <trkpt lat="40.647628" lon="-0.532738">
        <ele>1164.682</ele>
        <time>2019-03-11T19:48:37Z</time>
      </trkpt>
      <trkpt lat="40.647520" lon="-0.532790">
        <ele>1165.443</ele>
        <time>2019-03-11T19:49:17Z</time>
      </trkpt>
      <trkpt lat="40.647384" lon="-0.532859">
        <ele>1170.317</ele>
        <time>2019-03-11T19:49:57Z</time>
      </trkpt>
      <trkpt lat="40.647234" lon="-0.532923">
        <ele>1167.508</ele>
        <time>2019-03-11T19:50:37Z</time>
      </trkpt>
      <trkpt lat="40.647061" lon="-0.533014">
        <ele>1175.620</ele>
        <time>2019-03-11T19:51:17Z</time>
      </trkpt>
      <trkpt lat="40.646898" lon="-0.533088">
        <ele>1172.821</ele>
        <time>2019-03-11T19:51:57Z</time>
      </trkpt>
      <trkpt lat="40.646788" lon="-0.533149">
        <ele>1170.296</ele>
        <time>2019-03-11T19:52:37Z</time>
      </trkpt>
      <trkpt lat="40.646671" lon="-0.533181">
        <ele>1176.855</ele>
        <time>2019-03-11T19:53:17Z</time>
      </trkpt>
      <trkpt lat="40.646566" lon="-0.533230">
        <ele>1176.881</ele>
        <time>2019-03-11T19:53:57Z</time>
      </trkpt>
      <trkpt lat="40.646386" lon="-0.533366">
        <ele>1182.919</ele>
        <time>2019-03-11T19:54:37Z</time>
      </trkpt>
      <trkpt lat="40.646224" lon="-0.533526">
        <ele>1189.224</ele>
        <time>2019-03-11T19:55:17Z</time>
      </trkpt>
      <trkpt lat="40.646080" lon="-0.533652">
        <ele>1185.723</ele>
        <time>2019-03-11T19:55:57Z</time>
      </trkpt>
      <trkpt lat="40.645945" lon="-0.533771">
        <ele>1188.372</ele>
        <time>2019-03-11T19:56:37Z</time>
      </trkpt>
      <trkpt lat="40.645819" lon="-0.533880">
        <ele>1188.313</ele>
        <time>2019-03-11T19:57:17Z</time>
      </trkpt>
      <trkpt lat="40.645717" lon="-0.533960">
        <ele>1192.614</ele>
        <time>2019-03-11T19:57:57Z</time>
      </trkpt>
      <trkpt lat="40.645696" lon="-0.534004">
        <ele>1192.608</ele>
        <time>2019-03-11T19:58:37Z</time>
      </trkpt>
      <trkpt lat="40.645711" lon="-0.534070">
        <ele>1198.579</ele>
        <time>2019-03-11T19:59:17Z</time>
      </trkpt>
      <trkpt lat="40.645752" lon="-0.534093">
        <ele>1198.590</ele>
        <time>2019-03-11T19:59:57Z</time>
      </trkpt>
      <trkpt lat="40.645856" lon="-0.534110">
        <ele>1200.785</ele>
        <time>2019-03-11T20:00:37Z</time>
      </trkpt>
      <trkpt lat="40.645873" lon="-0.534139">
        <ele>1200.744</ele>
        <time>2019-03-11T20:01:17Z</time>
      </trkpt>
      <trkpt lat="40.645864" lon="-0.534181">
        <ele>1200.780</ele>
        <time>2019-03-11T20:01:57Z</time>
      </trkpt>
      <trkpt lat="40.645819" lon="-0.534211">
        <ele>1200.798</ele>
        <time>2019-03-11T20:02:37Z</time>
      </trkpt>
      <trkpt lat="40.645742" lon="-0.534239">
        <ele>1198.533</ele>
        <time>2019-03-11T20:03:17Z</time>
      </trkpt>
      <trkpt lat="40.645669" lon="-0.534276">
        <ele>1204.332</ele>
        <time>2019-03-11T20:03:57Z</time>
      </trkpt>
      <trkpt lat="40.645586" lon="-0.534342">
        <ele>1200.979</ele>
        <time>2019-03-11T20:04:37Z</time>
      </trkpt>
      <trkpt lat="40.645505" lon="-0.534439">
        <ele>1205.705</ele>
        <time>2019-03-11T20:05:17Z</time>
      </trkpt>
      <trkpt lat="40.645424" lon="-0.534591">
        <ele>1200.925</ele>
        <time>2019-03-11T20:05:57Z</time>
      </trkpt>
      <trkpt lat="40.645348" lon="-0.534751">
        <ele>1203.808</ele>
        <time>2019-03-11T20:06:37Z</time>
      </trkpt>
      <trkpt lat="40.645287" lon="-0.534952">
        <ele>1208.249</ele>
        <time>2019-03-11T20:07:17Z</time>
      </trkpt>
      <trkpt lat="40.645183" lon="-0.535106">
        <ele>1210.240</ele>
        <time>2019-03-11T20:07:57Z</time>
      </trkpt>
      <trkpt lat="40.645064" lon="-0.535284">
        <ele>1213.245</ele>
        <time>2019-03-11T20:08:37Z</time>
      </trkpt>
      <trkpt lat="40.644951" lon="-0.535457">
        <ele>1214.554</ele>
        <time>2019-03-11T20:09:17Z</time>
      </trkpt>
      <trkpt lat="40.644839" lon="-0.535659">
        <ele>1219.050</ele>
        <time>2019-03-11T20:09:57Z</time>
      </trkpt>
      <trkpt lat="40.644685" lon="-0.535866">
        <ele>1229.458</ele>
        <time>2019-03-11T20:10:37Z</time>
      </trkpt>
      <trkpt lat="40.644668" lon="-0.535985">
        <ele>1229.423</ele>
        <time>2019-03-11T20:11:17Z</time>
      </trkpt>
      <trkpt lat="40.644699" lon="-0.536090">
        <ele>1232.442</ele>
        <time>2019-03-11T20:11:57Z</time>
      </trkpt>
      <trkpt lat="40.644777" lon="-0.536222">
        <ele>1228.631</ele>
        <time>2019-03-11T20:12:37Z</time>
      </trkpt>
      <trkpt lat="40.644805" lon="-0.536304">
        <ele>1231.561</ele>
        <time>2019-03-11T20:13:17Z</time>
      </trkpt>
      <trkpt lat="40.644837" lon="-0.536449">
        <ele>1234.107</ele>
        <time>2019-03-11T20:13:57Z</time>
      </trkpt>
      <trkpt lat="40.644831" lon="-0.536709">
        <ele>1236.008</ele>
        <time>2019-03-11T20:14:37Z</time>
      </trkpt>
      <trkpt lat="40.644835" lon="-0.536923">
        <ele>1237.915</ele>
        <time>2019-03-11T20:15:17Z</time>
      </trkpt>
      <trkpt lat="40.644833" lon="-0.537212">
        <ele>1241.426</ele>
        <time>2019-03-11T20:15:57Z</time>
      </trkpt>
      <trkpt lat="40.644799" lon="-0.537446">
        <ele>1243.041</ele>
        <time>2019-03-11T20:16:37Z</time>
      </trkpt>
      <trkpt lat="40.644746" lon="-0.537711">
        <ele>1245.610</ele>
        <time>2019-03-11T20:17:17Z</time>
      </trkpt>
      <trkpt lat="40.644696" lon="-0.537923">
        <ele>1247.986</ele>
        <time>2019-03-11T20:17:57Z</time>
      </trkpt>
      <trkpt lat="40.644674" lon="-0.538114">
        <ele>1248.454</ele>
        <time>2019-03-11T20:18:37Z</time>
      </trkpt>
      <trkpt lat="40.644648" lon="-0.538318">
        <ele>1248.629</ele>
        <time>2019-03-11T20:19:17Z</time>
      </trkpt>
      <trkpt lat="40.644634" lon="-0.538469">
        <ele>1248.428</ele>
        <time>2019-03-11T20:19:57Z</time>
      </trkpt>
      <trkpt lat="40.644620" lon="-0.538620">
        <ele>1247.794</ele>
        <time>2019-03-11T20:20:37Z</time>
      </trkpt>
      <trkpt lat="40.644570" lon="-0.538894">
        <ele>1246.757</ele>
        <time>2019-03-11T20:21:17Z</time>
      </trkpt>
      <trkpt lat="40.644602" lon="-0.539173">
        <ele>1242.722</ele>
        <time>2019-03-11T20:21:57Z</time>
      </trkpt>
      <trkpt lat="40.644588" lon="-0.539440">
        <ele>1240.308</ele>
        <time>2019-03-11T20:22:37Z</time>
      </trkpt>
      <trkpt lat="40.644529" lon="-0.539680">
        <ele>1232.511</ele>
        <time>2019-03-11T20:23:17Z</time>
      </trkpt>
      <trkpt lat="40.644432" lon="-0.539879">
        <ele>1227.022</ele>
        <time>2019-03-11T20:23:57Z</time>
      </trkpt>
      <trkpt lat="40.644375" lon="-0.539926">
        <ele>1227.077</ele>
        <time>2019-03-11T20:24:37Z</time>
      </trkpt>
      <trkpt lat="40.644312" lon="-0.539929">
        <ele>1229.036</ele>
        <time>2019-03-11T20:25:17Z</time>
      </trkpt>
      <trkpt lat="40.644248" lon="-0.539874">
        <ele>1229.072</ele>
        <time>2019-03-11T20:25:57Z</time>
      </trkpt>
      <trkpt lat="40.644175" lon="-0.539883">
        <ele>1229.090</ele>
        <time>2019-03-11T20:26:37Z</time>
      </trkpt>
      <trkpt lat="40.644074" lon="-0.539943">
        <ele>1231.915</ele>
        <time>2019-03-11T20:27:17Z</time>
      </trkpt>
      <trkpt lat="40.643944" lon="-0.540057">
        <ele>1228.064</ele>
        <time>2019-03-11T20:27:57Z</time>
      </trkpt>
      <trkpt lat="40.643876" lon="-0.540084">
        <ele>1228.094</ele>
        <time>2019-03-11T20:28:37Z</time>
      </trkpt>
      <trkpt lat="40.643764" lon="-0.540118">
        <ele>1228.757</ele>
        <time>2019-03-11T20:29:17Z</time>
      </trkpt>
      <trkpt lat="40.643669" lon="-0.540203">
        <ele>1224.522</ele>
        <time>2019-03-11T20:29:57Z</time>
      </trkpt>
      <trkpt lat="40.643606" lon="-0.540359">
        <ele>1225.108</ele>
        <time>2019-03-11T20:30:37Z</time>
      </trkpt>
      <trkpt lat="40.643508" lon="-0.540495">
        <ele>1221.161</ele>
        <time>2019-03-11T20:31:17Z</time>
      </trkpt>
      <trkpt lat="40.643400" lon="-0.540622">
        <ele>1217.172</ele>
        <time>2019-03-11T20:31:57Z</time>
      </trkpt>
      <trkpt lat="40.643260" lon="-0.540711">
        <ele>1218.897</ele>
        <time>2019-03-11T20:32:37Z</time>
      </trkpt>
      <trkpt lat="40.643147" lon="-0.540818">
        <ele>1214.056</ele>
        <time>2019-03-11T20:33:17Z</time>
      </trkpt>
      <trkpt lat="40.643019" lon="-0.540915">
        <ele>1211.172</ele>
        <time>2019-03-11T20:33:57Z</time>
      </trkpt>
      <trkpt lat="40.642856" lon="-0.541021">
        <ele>1213.490</ele>
        <time>2019-03-11T20:34:37Z</time>
      </trkpt>
      <trkpt lat="40.642761" lon="-0.541071">
        <ele>1213.475</ele>
        <time>2019-03-11T20:35:17Z</time>
      </trkpt>
      <trkpt lat="40.642666" lon="-0.541156">
        <ele>1211.144</ele>
        <time>2019-03-11T20:35:57Z</time>
      </trkpt>
      <trkpt lat="40.642522" lon="-0.541319">
        <ele>1210.423</ele>
        <time>2019-03-11T20:36:37Z</time>
      </trkpt>
      <trkpt lat="40.642393" lon="-0.541486">
        <ele>1207.483</ele>
        <time>2019-03-11T20:37:17Z</time>
      </trkpt>
      <trkpt lat="40.642297" lon="-0.541664">
        <ele>1209.111</ele>
        <time>2019-03-11T20:37:57Z</time>
      </trkpt>
      <trkpt lat="40.642231" lon="-0.541808">
        <ele>1207.208</ele>
        <time>2019-03-11T20:38:37Z</time>
      </trkpt>
      <trkpt lat="40.642165" lon="-0.541952">
        <ele>1211.074</ele>
        <time>2019-03-11T20:39:17Z</time>
      </trkpt>
      <trkpt lat="40.642116" lon="-0.542114">
        <ele>1209.485</ele>
        <time>2019-03-11T20:39:57Z</time>
      </trkpt>
      <trkpt lat="40.642067" lon="-0.542276">
        <ele>1209.180</ele>
        <time>2019-03-11T20:40:37Z</time>
      </trkpt>
      <trkpt lat="40.642060" lon="-0.542395">
        <ele>1209.999</ele>
        <time>2019-03-11T20:41:17Z</time>
      </trkpt>
      <trkpt lat="40.642075" lon="-0.542474">
        <ele>1209.995</ele>
        <time>2019-03-11T20:41:57Z</time>
      </trkpt>
      <trkpt lat="40.642049" lon="-0.542526">
        <ele>1212.213</ele>
        <time>2019-03-11T20:42:37Z</time>
      </trkpt>
      <trkpt lat="40.641984" lon="-0.542534">
        <ele>1214.498</ele>
        <time>2019-03-11T20:43:17Z</time>
      </trkpt>
      <trkpt lat="40.641921" lon="-0.542654">
        <ele>1214.467</ele>
        <time>2019-03-11T20:43:57Z</time>
      </trkpt>
      <trkpt lat="40.641924" lon="-0.542808">
        <ele>1216.947</ele>
        <time>2019-03-11T20:44:37Z</time>
      </trkpt>
      <trkpt lat="40.641975" lon="-0.543048">
        <ele>1219.429</ele>
        <time>2019-03-11T20:45:17Z</time>
      </trkpt>
      <trkpt lat="40.641993" lon="-0.543240">
        <ele>1222.221</ele>
        <time>2019-03-11T20:45:57Z</time>
      </trkpt>
      <trkpt lat="40.642012" lon="-0.543431">
        <ele>1228.908</ele>
        <time>2019-03-11T20:46:37Z</time>
      </trkpt>
      <trkpt lat="40.642033" lon="-0.543606">
        <ele>1228.946</ele>
        <time>2019-03-11T20:47:17Z</time>
      </trkpt>
      <trkpt lat="40.642054" lon="-0.543781">
        <ele>1228.947</ele>
        <time>2019-03-11T20:47:57Z</time>
      </trkpt>
      <trkpt lat="40.642061" lon="-0.543935">
        <ele>1230.862</ele>
        <time>2019-03-11T20:48:37Z</time>
      </trkpt>
      <trkpt lat="40.642068" lon="-0.544088">
        <ele>1232.341</ele>
        <time>2019-03-11T20:49:17Z</time>
      </trkpt>
      <trkpt lat="40.642057" lon="-0.544241">
        <ele>1233.657</ele>
        <time>2019-03-11T20:49:57Z</time>
      </trkpt>
      <trkpt lat="40.642046" lon="-0.544394">
        <ele>1234.345</ele>
        <time>2019-03-11T20:50:37Z</time>
      </trkpt>
      <trkpt lat="40.642030" lon="-0.544556">
        <ele>1234.980</ele>
        <time>2019-03-11T20:51:17Z</time>
      </trkpt>
      <trkpt lat="40.642014" lon="-0.544719">
        <ele>1239.699</ele>
        <time>2019-03-11T20:51:57Z</time>
      </trkpt>
      <trkpt lat="40.641984" lon="-0.544862">
        <ele>1239.697</ele>
        <time>2019-03-11T20:52:37Z</time>
      </trkpt>
      <trkpt lat="40.641954" lon="-0.545004">
        <ele>1240.723</ele>
        <time>2019-03-11T20:53:17Z</time>
      </trkpt>
      <trkpt lat="40.641971" lon="-0.545270">
        <ele>1243.425</ele>
        <time>2019-03-11T20:53:57Z</time>
      </trkpt>
      <trkpt lat="40.641998" lon="-0.545430">
        <ele>1244.908</ele>
        <time>2019-03-11T20:54:37Z</time>
      </trkpt>
      <trkpt lat="40.642025" lon="-0.545590">
        <ele>1244.461</ele>
        <time>2019-03-11T20:55:17Z</time>
      </trkpt>
      <trkpt lat="40.642098" lon="-0.545729">
        <ele>1244.422</ele>
        <time>2019-03-11T20:55:57Z</time>
      </trkpt>
      <trkpt lat="40.642171" lon="-0.545868">
        <ele>1246.997</ele>
        <time>2019-03-11T20:56:37Z</time>
      </trkpt>
      <trkpt lat="40.642286" lon="-0.546088">
        <ele>1248.266</ele>
        <time>2019-03-11T20:57:17Z</time>
      </trkpt>
      <trkpt lat="40.642401" lon="-0.546245">
        <ele>1250.622</ele>
        <time>2019-03-11T20:57:57Z</time>
      </trkpt>
      <trkpt lat="40.642570" lon="-0.546414">
        <ele>1252.520</ele>
        <time>2019-03-11T20:58:37Z</time>
      </trkpt>
      <trkpt lat="40.642737" lon="-0.546560">
        <ele>1254.355</ele>
        <time>2019-03-11T20:59:17Z</time>
      </trkpt>
      <trkpt lat="40.642810" lon="-0.546674">
        <ele>1256.954</ele>
        <time>2019-03-11T20:59:57Z</time>
      </trkpt>
      <trkpt lat="40.642883" lon="-0.546788">
        <ele>1256.916</ele>
        <time>2019-03-11T21:00:37Z</time>
      </trkpt>
      <trkpt lat="40.642964" lon="-0.546894">
        <ele>1259.176</ele>
        <time>2019-03-11T21:01:17Z</time>
      </trkpt>
      <trkpt lat="40.643046" lon="-0.547000">
        <ele>1259.113</ele>
        <time>2019-03-11T21:01:57Z</time>
      </trkpt>
      <trkpt lat="40.643148" lon="-0.547254">
        <ele>1265.108</ele>
        <time>2019-03-11T21:02:37Z</time>
      </trkpt>
      <trkpt lat="40.643188" lon="-0.547483">
        <ele>1268.993</ele>
        <time>2019-03-11T21:03:17Z</time>
      </trkpt>
      <trkpt lat="40.643268" lon="-0.547629">
        <ele>1272.624</ele>
        <time>2019-03-11T21:03:57Z</time>
      </trkpt>
      <trkpt lat="40.643350" lon="-0.547785">
        <ele>1272.639</ele>
        <time>2019-03-11T21:04:37Z</time>
      </trkpt>
      <trkpt lat="40.643425" lon="-0.548011">
        <ele>1276.448</ele>
        <time>2019-03-11T21:05:17Z</time>
      </trkpt>
      <trkpt lat="40.643470" lon="-0.548149">
        <ele>1277.744</ele>
        <time>2019-03-11T21:05:57Z</time>
      </trkpt>
      <trkpt lat="40.643516" lon="-0.548286">
        <ele>1282.612</ele>
        <time>2019-03-11T21:06:37Z</time>
      </trkpt>
      <trkpt lat="40.643604" lon="-0.548447">
        <ele>1282.667</ele>
        <time>2019-03-11T21:07:17Z</time>
      </trkpt>
      <trkpt lat="40.643693" lon="-0.548609">
        <ele>1285.076</ele>
        <time>2019-03-11T21:07:57Z</time>
      </trkpt>
      <trkpt lat="40.643774" lon="-0.548762">
        <ele>1290.762</ele>
        <time>2019-03-11T21:08:37Z</time>
      </trkpt>
      <trkpt lat="40.643855" lon="-0.548915">
        <ele>1292.783</ele>
        <time>2019-03-11T21:09:17Z</time>
      </trkpt>
      <trkpt lat="40.643989" lon="-0.549135">
        <ele>1298.211</ele>
        <time>2019-03-11T21:09:57Z</time>
      </trkpt>
      <trkpt lat="40.644104" lon="-0.549303">
        <ele>1300.608</ele>
        <time>2019-03-11T21:10:37Z</time>
      </trkpt>
      <trkpt lat="40.644174" lon="-0.549418">
        <ele>1306.948</ele>
        <time>2019-03-11T21:11:17Z</time>
      </trkpt>
      <trkpt lat="40.644245" lon="-0.549534">
        <ele>1304.799</ele>
        <time>2019-03-11T21:11:57Z</time>
      </trkpt>
      <trkpt lat="40.644350" lon="-0.549703">
        <ele>1311.574</ele>
        <time>2019-03-11T21:12:37Z</time>
      </trkpt>
      <trkpt lat="40.644455" lon="-0.549872">
        <ele>1315.883</ele>
        <time>2019-03-11T21:13:17Z</time>
      </trkpt>
      <trkpt lat="40.644517" lon="-0.550000">
        <ele>1322.089</ele>
        <time>2019-03-11T21:13:57Z</time>
      </trkpt>
      <trkpt lat="40.644578" lon="-0.550129">
        <ele>1324.257</ele>
        <time>2019-03-11T21:14:37Z</time>
      </trkpt>
      <trkpt lat="40.644674" lon="-0.550316">
        <ele>1329.682</ele>
        <time>2019-03-11T21:15:17Z</time>
      </trkpt>
      <trkpt lat="40.644768" lon="-0.550540">
        <ele>1330.911</ele>
        <time>2019-03-11T21:15:57Z</time>
      </trkpt>
      <trkpt lat="40.644882" lon="-0.550783">
        <ele>1337.497</ele>
        <time>2019-03-11T21:16:37Z</time>
      </trkpt>
      <trkpt lat="40.644942" lon="-0.550954">
        <ele>1338.823</ele>
        <time>2019-03-11T21:17:17Z</time>
      </trkpt>
      <trkpt lat="40.645001" lon="-0.551124">
        <ele>1345.625</ele>
        <time>2019-03-11T21:17:57Z</time>
      </trkpt>
      <trkpt lat="40.645052" lon="-0.551305">
        <ele>1352.308</ele>
        <time>2019-03-11T21:18:37Z</time>
      </trkpt>
      <trkpt lat="40.645103" lon="-0.551486">
        <ele>1350.921</ele>
        <time>2019-03-11T21:19:17Z</time>
      </trkpt>
      <trkpt lat="40.645194" lon="-0.551704">
        <ele>1356.662</ele>
        <time>2019-03-11T21:19:57Z</time>
      </trkpt>
      <trkpt lat="40.645304" lon="-0.551898">
        <ele>1361.257</ele>
        <time>2019-03-11T21:20:37Z</time>
      </trkpt>
      <trkpt lat="40.645320" lon="-0.552174">
        <ele>1367.196</ele>
        <time>2019-03-11T21:21:17Z</time>
      </trkpt>
      <trkpt lat="40.645351" lon="-0.552320">
        <ele>1373.382</ele>
        <time>2019-03-11T21:21:57Z</time>
      </trkpt>
      <trkpt lat="40.645381" lon="-0.552467">
        <ele>1376.670</ele>
        <time>2019-03-11T21:22:37Z</time>
      </trkpt>
      <trkpt lat="40.645495" lon="-0.552656">
        <ele>1374.115</ele>
        <time>2019-03-11T21:23:17Z</time>
      </trkpt>
      <trkpt lat="40.645602" lon="-0.552876">
        <ele>1373.014</ele>
        <time>2019-03-11T21:23:57Z</time>
      </trkpt>
      <trkpt lat="40.645730" lon="-0.553101">
        <ele>1369.988</ele>
        <time>2019-03-11T21:24:37Z</time>
      </trkpt>
      <trkpt lat="40.645699" lon="-0.553259">
        <ele>1368.224</ele>
        <time>2019-03-11T21:25:17Z</time>
      </trkpt>
      <trkpt lat="40.645668" lon="-0.553417">
        <ele>1364.726</ele>
        <time>2019-03-11T21:25:57Z</time>
      </trkpt>
      <trkpt lat="40.645553" lon="-0.553498">
        <ele>1361.608</ele>
        <time>2019-03-11T21:26:37Z</time>
      </trkpt>
      <trkpt lat="40.645438" lon="-0.553579">
        <ele>1356.760</ele>
        <time>2019-03-11T21:27:17Z</time>
      </trkpt>
      <trkpt lat="40.645274" lon="-0.553617">
        <ele>1354.041</ele>
        <time>2019-03-11T21:27:57Z</time>
      </trkpt>
      <trkpt lat="40.645076" lon="-0.553632">
        <ele>1352.266</ele>
        <time>2019-03-11T21:28:37Z</time>
      </trkpt>
      <trkpt lat="40.644930" lon="-0.553749">
        <ele>1345.125</ele>
        <time>2019-03-11T21:29:17Z</time>
      </trkpt>
      <trkpt lat="40.645017" lon="-0.553856">
        <ele>1345.141</ele>
        <time>2019-03-11T21:29:57Z</time>
      </trkpt>
      <trkpt lat="40.645104" lon="-0.553962">
        <ele>1341.129</ele>
        <time>2019-03-11T21:30:37Z</time>
      </trkpt>
      <trkpt lat="40.645201" lon="-0.554087">
        <ele>1337.144</ele>
        <time>2019-03-11T21:31:17Z</time>
      </trkpt>
      <trkpt lat="40.645297" lon="-0.554212">
        <ele>1339.443</ele>
        <time>2019-03-11T21:31:57Z</time>
      </trkpt>
      <trkpt lat="40.645377" lon="-0.554478">
        <ele>1333.467</ele>
        <time>2019-03-11T21:32:37Z</time>
      </trkpt>
      <trkpt lat="40.645363" lon="-0.554745">
        <ele>1330.081</ele>
        <time>2019-03-11T21:33:17Z</time>
      </trkpt>
      <trkpt lat="40.645400" lon="-0.554898">
        <ele>1326.319</ele>
        <time>2019-03-11T21:33:57Z</time>
      </trkpt>
      <trkpt lat="40.645436" lon="-0.555051">
        <ele>1326.108</ele>
        <time>2019-03-11T21:34:37Z</time>
      </trkpt>
      <trkpt lat="40.645520" lon="-0.555164">
        <ele>1320.528</ele>
        <time>2019-03-11T21:35:17Z</time>
      </trkpt>
      <trkpt lat="40.645604" lon="-0.555278">
        <ele>1320.539</ele>
        <time>2019-03-11T21:35:57Z</time>
      </trkpt>
      <trkpt lat="40.645755" lon="-0.555444">
        <ele>1317.584</ele>
        <time>2019-03-11T21:36:37Z</time>
      </trkpt>
      <trkpt lat="40.645906" lon="-0.555590">
        <ele>1313.573</ele>
        <time>2019-03-11T21:37:17Z</time>
      </trkpt>
      <trkpt lat="40.646074" lon="-0.555728">
        <ele>1308.719</ele>
        <time>2019-03-11T21:37:57Z</time>
      </trkpt>
      <trkpt lat="40.646256" lon="-0.555887">
        <ele>1304.097</ele>
        <time>2019-03-11T21:38:37Z</time>
      </trkpt>
      <trkpt lat="40.646350" lon="-0.555972">
        <ele>1307.582</ele>
        <time>2019-03-11T21:39:17Z</time>
      </trkpt>
      <trkpt lat="40.646444" lon="-0.556057">
        <ele>1302.681</ele>
        <time>2019-03-11T21:39:57Z</time>
      </trkpt>
      <trkpt lat="40.646618" lon="-0.556231">
        <ele>1302.655</ele>
        <time>2019-03-11T21:40:37Z</time>
      </trkpt>
      <trkpt lat="40.646708" lon="-0.556365">
        <ele>1304.107</ele>
        <time>2019-03-11T21:41:17Z</time>
      </trkpt>
      <trkpt lat="40.646798" lon="-0.556499">
        <ele>1301.417</ele>
        <time>2019-03-11T21:41:57Z</time>
      </trkpt>
      <trkpt lat="40.646815" lon="-0.556715">
        <ele>1300.808</ele>
        <time>2019-03-11T21:42:37Z</time>
      </trkpt>
      <trkpt lat="40.646826" lon="-0.556907">
        <ele>1301.047</ele>
        <time>2019-03-11T21:43:17Z</time>
      </trkpt>
      <trkpt lat="40.646822" lon="-0.556972">
        <ele>1302.258</ele>
        <time>2019-03-11T21:43:57Z</time>
      </trkpt>
      <trkpt lat="40.646843" lon="-0.556996">
        <ele>1302.233</ele>
        <time>2019-03-11T21:44:37Z</time>
      </trkpt>
      <trkpt lat="40.646989" lon="-0.557129">
        <ele>1302.462</ele>
        <time>2019-03-11T21:45:17Z</time>
      </trkpt>
      <trkpt lat="40.647055" lon="-0.557325">
        <ele>1302.488</ele>
        <time>2019-03-11T21:45:57Z</time>
      </trkpt>
      <trkpt lat="40.647121" lon="-0.557520">
        <ele>1304.886</ele>
        <time>2019-03-11T21:46:37Z</time>
      </trkpt>
      <trkpt lat="40.647132" lon="-0.557683">
        <ele>1307.391</ele>
        <time>2019-03-11T21:47:17Z</time>
      </trkpt>
      <trkpt lat="40.647143" lon="-0.557846">
        <ele>1309.810</ele>
        <time>2019-03-11T21:47:57Z</time>
      </trkpt>
      <trkpt lat="40.647175" lon="-0.558030">
        <ele>1313.011</ele>
        <time>2019-03-11T21:48:37Z</time>
      </trkpt>
      <trkpt lat="40.647208" lon="-0.558214">
        <ele>1316.021</ele>
        <time>2019-03-11T21:49:17Z</time>
      </trkpt>
      <trkpt lat="40.647299" lon="-0.558372">
        <ele>1314.303</ele>
        <time>2019-03-11T21:49:57Z</time>
      </trkpt>
      <trkpt lat="40.647391" lon="-0.558529">
        <ele>1314.308</ele>
        <time>2019-03-11T21:50:37Z</time>
      </trkpt>
      <trkpt lat="40.647481" lon="-0.558679">
        <ele>1316.423</ele>
        <time>2019-03-11T21:51:17Z</time>
      </trkpt>
      <trkpt lat="40.647569" lon="-0.558796">
        <ele>1321.354</ele>
        <time>2019-03-11T21:51:57Z</time>
      </trkpt>
      <trkpt lat="40.647658" lon="-0.558912">
        <ele>1325.469</ele>
        <time>2019-03-11T21:52:37Z</time>
      </trkpt>
      <trkpt lat="40.647694" lon="-0.558942">
        <ele>1325.498</ele>
        <time>2019-03-11T21:53:17Z</time>
      </trkpt>
      <trkpt lat="40.647803" lon="-0.558990">
        <ele>1324.044</ele>
        <time>2019-03-11T21:53:57Z</time>
      </trkpt>
      <trkpt lat="40.647912" lon="-0.559038">
        <ele>1324.052</ele>
        <time>2019-03-11T21:54:37Z</time>
      </trkpt>
      <trkpt lat="40.648032" lon="-0.559077">
        <ele>1322.667</ele>
        <time>2019-03-11T21:55:17Z</time>
      </trkpt>
      <trkpt lat="40.648151" lon="-0.559116">
        <ele>1326.366</ele>
        <time>2019-03-11T21:55:57Z</time>
      </trkpt>
      <trkpt lat="40.648263" lon="-0.559225">
        <ele>1326.362</ele>
        <time>2019-03-11T21:56:37Z</time>
      </trkpt>
      <trkpt lat="40.648374" lon="-0.559333">
        <ele>1329.583</ele>
        <time>2019-03-11T21:57:17Z</time>
      </trkpt>
      <trkpt lat="40.648517" lon="-0.559553">
        <ele>1331.311</ele>
        <time>2019-03-11T21:57:57Z</time>
      </trkpt>
      <trkpt lat="40.648655" lon="-0.559721">
        <ele>1337.108</ele>
        <time>2019-03-11T21:58:37Z</time>
      </trkpt>
      <trkpt lat="40.648797" lon="-0.559829">
        <ele>1339.658</ele>
        <time>2019-03-11T21:59:17Z</time>
      </trkpt>
      <trkpt lat="40.648983" lon="-0.559892">
        <ele>1338.949</ele>
        <time>2019-03-11T21:59:57Z</time>
      </trkpt>
      <trkpt lat="40.649149" lon="-0.559990">
        <ele>1343.334</ele>
        <time>2019-03-11T22:00:37Z</time>
      </trkpt>
      <trkpt lat="40.649309" lon="-0.560163">
        <ele>1341.953</ele>
        <time>2019-03-11T22:01:17Z</time>
      </trkpt>
      <trkpt lat="40.649400" lon="-0.560297">
        <ele>1343.979</ele>
        <time>2019-03-11T22:01:57Z</time>
      </trkpt>
      <trkpt lat="40.649437" lon="-0.560375">
        <ele>1347.147</ele>
        <time>2019-03-11T22:02:37Z</time>
      </trkpt>
      <trkpt lat="40.649498" lon="-0.560504">
        <ele>1347.122</ele>
        <time>2019-03-11T22:03:17Z</time>
      </trkpt>
      <trkpt lat="40.649567" lon="-0.560712">
        <ele>1355.161</ele>
        <time>2019-03-11T22:03:57Z</time>
      </trkpt>
      <trkpt lat="40.649627" lon="-0.560839">
        <ele>1349.655</ele>
        <time>2019-03-11T22:04:37Z</time>
      </trkpt>
      <trkpt lat="40.649688" lon="-0.560966">
        <ele>1351.607</ele>
        <time>2019-03-11T22:05:17Z</time>
      </trkpt>
      <trkpt lat="40.649708" lon="-0.561111">
        <ele>1353.417</ele>
        <time>2019-03-11T22:05:57Z</time>
      </trkpt>
      <trkpt lat="40.649729" lon="-0.561257">
        <ele>1354.708</ele>
        <time>2019-03-11T22:06:37Z</time>
      </trkpt>
      <trkpt lat="40.649789" lon="-0.561481">
        <ele>1349.967</ele>
        <time>2019-03-11T22:07:17Z</time>
      </trkpt>
      <trkpt lat="40.649861" lon="-0.561684">
        <ele>1352.128</ele>
        <time>2019-03-11T22:07:57Z</time>
      </trkpt>
      <trkpt lat="40.649897" lon="-0.561878">
        <ele>1353.933</ele>
        <time>2019-03-11T22:08:37Z</time>
      </trkpt>
      <trkpt lat="40.649923" lon="-0.562036">
        <ele>1355.152</ele>
        <time>2019-03-11T22:09:17Z</time>
      </trkpt>
      <trkpt lat="40.649948" lon="-0.562195">
        <ele>1350.228</ele>
        <time>2019-03-11T22:09:57Z</time>
      </trkpt>
      <trkpt lat="40.649990" lon="-0.562434">
        <ele>1350.816</ele>
        <time>2019-03-11T22:10:37Z</time>
      </trkpt>
      <trkpt lat="40.650052" lon="-0.562674">
        <ele>1351.231</ele>
        <time>2019-03-11T22:11:17Z</time>
      </trkpt>
      <trkpt lat="40.650110" lon="-0.562926">
        <ele>1349.180</ele>
        <time>2019-03-11T22:11:57Z</time>
      </trkpt>
      <trkpt lat="40.650120" lon="-0.563130">
        <ele>1347.329</ele>
        <time>2019-03-11T22:12:37Z</time>
      </trkpt>
      <trkpt lat="40.650120" lon="-0.563141">
        <ele>1347.300</ele>
        <time>2019-03-11T22:13:17Z</time>
      </trkpt>
      <trkpt lat="40.650123" lon="-0.563337">
        <ele>1342.720</ele>
        <time>2019-03-11T22:13:57Z</time>
      </trkpt>
      <trkpt lat="40.650170" lon="-0.563608">
        <ele>1327.208</ele>
        <time>2019-03-11T22:14:37Z</time>
      </trkpt>
      <trkpt lat="40.650198" lon="-0.563755">
        <ele>1327.274</ele>
        <time>2019-03-11T22:15:17Z</time>
      </trkpt>
      <trkpt lat="40.650227" lon="-0.563902">
        <ele>1320.065</ele>
        <time>2019-03-11T22:15:57Z</time>
      </trkpt>
      <trkpt lat="40.650193" lon="-0.564134">
        <ele>1308.160</ele>
        <time>2019-03-11T22:16:37Z</time>
      </trkpt>
      <trkpt lat="40.650062" lon="-0.564334">
        <ele>1297.319</ele>
        <time>2019-03-11T22:17:17Z</time>
      </trkpt>
      <trkpt lat="40.649953" lon="-0.564429">
        <ele>1297.315</ele>
        <time>2019-03-11T22:17:57Z</time>
      </trkpt>
      <trkpt lat="40.649845" lon="-0.564523">
        <ele>1287.243</ele>
        <time>2019-03-11T22:18:37Z</time>
      </trkpt>
      <trkpt lat="40.649813" lon="-0.564689">
        <ele>1282.598</ele>
        <time>2019-03-11T22:19:17Z</time>
      </trkpt>
      <trkpt lat="40.649781" lon="-0.564855">
        <ele>1277.317</ele>
        <time>2019-03-11T22:19:57Z</time>
      </trkpt>
      <trkpt lat="40.649738" lon="-0.565120">
        <ele>1267.944</ele>
        <time>2019-03-11T22:20:37Z</time>
      </trkpt>
      <trkpt lat="40.649764" lon="-0.565384">
        <ele>1266.705</ele>
        <time>2019-03-11T22:21:17Z</time>
      </trkpt>
      <trkpt lat="40.649815" lon="-0.565658">
        <ele>1256.615</ele>
        <time>2019-03-11T22:21:57Z</time>
      </trkpt>
      <trkpt lat="40.649857" lon="-0.565799">
        <ele>1251.108</ele>
        <time>2019-03-11T22:22:37Z</time>
      </trkpt>
      <trkpt lat="40.649899" lon="-0.565940">
        <ele>1245.286</ele>
        <time>2019-03-11T22:23:17Z</time>
      </trkpt>
      <trkpt lat="40.649932" lon="-0.566206">
        <ele>1239.017</ele>
        <time>2019-03-11T22:23:57Z</time>
      </trkpt>
      <trkpt lat="40.650098" lon="-0.566380">
        <ele>1240.692</ele>
        <time>2019-03-11T22:24:37Z</time>
      </trkpt>
      <trkpt lat="40.650245" lon="-0.566554">
        <ele>1240.261</ele>
        <time>2019-03-11T22:25:17Z</time>
      </trkpt>
      <trkpt lat="40.650352" lon="-0.566751">
        <ele>1241.217</ele>
        <time>2019-03-11T22:25:57Z</time>
      </trkpt>
      <trkpt lat="40.650442" lon="-0.566982">
        <ele>1235.645</ele>
        <time>2019-03-11T22:26:37Z</time>
      </trkpt>
      <trkpt lat="40.650523" lon="-0.567159">
        <ele>1236.240</ele>
        <time>2019-03-11T22:27:17Z</time>
      </trkpt>
      <trkpt lat="40.650616" lon="-0.567335">
        <ele>1229.629</ele>
        <time>2019-03-11T22:27:57Z</time>
      </trkpt>
      <trkpt lat="40.650722" lon="-0.567538">
        <ele>1232.686</ele>
        <time>2019-03-11T22:28:37Z</time>
      </trkpt>
      <trkpt lat="40.650747" lon="-0.567700">
        <ele>1228.860</ele>
        <time>2019-03-11T22:29:17Z</time>
      </trkpt>
      <trkpt lat="40.650772" lon="-0.567863">
        <ele>1226.726</ele>
        <time>2019-03-11T22:29:57Z</time>
      </trkpt>
      <trkpt lat="40.650750" lon="-0.568146">
        <ele>1223.708</ele>
        <time>2019-03-11T22:30:37Z</time>
      </trkpt>
      <trkpt lat="40.650684" lon="-0.568364">
        <ele>1221.860</ele>
        <time>2019-03-11T22:31:17Z</time>
      </trkpt>
      <trkpt lat="40.650661" lon="-0.568573">
        <ele>1220.871</ele>
        <time>2019-03-11T22:31:57Z</time>
      </trkpt>
      <trkpt lat="40.650594" lon="-0.568772">
        <ele>1214.456</ele>
        <time>2019-03-11T22:32:37Z</time>
      </trkpt>
      <trkpt lat="40.650480" lon="-0.568936">
        <ele>1215.795</ele>
        <time>2019-03-11T22:33:17Z</time>
      </trkpt>
      <trkpt lat="40.650380" lon="-0.569024">
        <ele>1210.561</ele>
        <time>2019-03-11T22:33:57Z</time>
      </trkpt>
      <trkpt lat="40.650281" lon="-0.569113">
        <ele>1204.689</ele>
        <time>2019-03-11T22:34:37Z</time>
      </trkpt>
      <trkpt lat="40.650099" lon="-0.569234">
        <ele>1202.954</ele>
        <time>2019-03-11T22:35:17Z</time>
      </trkpt>
      <trkpt lat="40.649925" lon="-0.569310">
        <ele>1198.753</ele>
        <time>2019-03-11T22:35:57Z</time>
      </trkpt>
      <trkpt lat="40.649741" lon="-0.569386">
        <ele>1196.473</ele>
        <time>2019-03-11T22:36:37Z</time>
      </trkpt>
      <trkpt lat="40.649591" lon="-0.569462">
        <ele>1196.485</ele>
        <time>2019-03-11T22:37:17Z</time>
      </trkpt>
      <trkpt lat="40.649440" lon="-0.569538">
        <ele>1194.513</ele>
        <time>2019-03-11T22:37:57Z</time>
      </trkpt>
      <trkpt lat="40.649327" lon="-0.569620">
        <ele>1189.908</ele>
        <time>2019-03-11T22:38:37Z</time>
      </trkpt>
      <trkpt lat="40.649213" lon="-0.569702">
        <ele>1185.539</ele>
        <time>2019-03-11T22:39:17Z</time>
      </trkpt>
      <trkpt lat="40.649063" lon="-0.569907">
        <ele>1188.590</ele>
        <time>2019-03-11T22:39:57Z</time>
      </trkpt>
      <trkpt lat="40.649009" lon="-0.570045">
        <ele>1183.245</ele>
        <time>2019-03-11T22:40:37Z</time>
      </trkpt>
      <trkpt lat="40.648954" lon="-0.570183">
        <ele>1183.734</ele>
        <time>2019-03-11T22:41:17Z</time>
      </trkpt>
      <trkpt lat="40.648877" lon="-0.570301">
        <ele>1184.720</ele>
        <time>2019-03-11T22:41:57Z</time>
      </trkpt>
      <trkpt lat="40.648801" lon="-0.570419">
        <ele>1180.178</ele>
        <time>2019-03-11T22:42:37Z</time>
      </trkpt>
      <trkpt lat="40.648702" lon="-0.570496">
        <ele>1180.063</ele>
        <time>2019-03-11T22:43:17Z</time>
      </trkpt>
      <trkpt lat="40.648603" lon="-0.570573">
        <ele>1178.012</ele>
        <time>2019-03-11T22:43:57Z</time>
      </trkpt>
      <trkpt lat="40.648468" lon="-0.570734">
        <ele>1176.578</ele>
        <time>2019-03-11T22:44:37Z</time>
      </trkpt>
      <trkpt lat="40.648340" lon="-0.570921">
        <ele>1178.333</ele>
        <time>2019-03-11T22:45:17Z</time>
      </trkpt>
      <trkpt lat="40.648265" lon="-0.571052">
        <ele>1176.126</ele>
        <time>2019-03-11T22:45:57Z</time>
      </trkpt>
      <trkpt lat="40.648190" lon="-0.571184">
        <ele>1177.408</ele>
        <time>2019-03-11T22:46:37Z</time>
      </trkpt>
      <trkpt lat="40.648069" lon="-0.571317">
        <ele>1172.549</ele>
        <time>2019-03-11T22:47:17Z</time>
      </trkpt>
      <trkpt lat="40.647949" lon="-0.571443">
        <ele>1168.210</ele>
        <time>2019-03-11T22:47:57Z</time>
      </trkpt>
      <trkpt lat="40.647835" lon="-0.571527">
        <ele>1168.475</ele>
        <time>2019-03-11T22:48:37Z</time>
      </trkpt>
      <trkpt lat="40.647721" lon="-0.571611">
        <ele>1163.644</ele>
        <time>2019-03-11T22:49:17Z</time>
      </trkpt>
      <trkpt lat="40.647613" lon="-0.571653">
        <ele>1163.640</ele>
        <time>2019-03-11T22:49:57Z</time>
      </trkpt>
      <trkpt lat="40.647504" lon="-0.571696">
        <ele>1158.798</ele>
        <time>2019-03-11T22:50:37Z</time>
      </trkpt>
      <trkpt lat="40.647346" lon="-0.571736">
        <ele>1153.593</ele>
        <time>2019-03-11T22:51:17Z</time>
      </trkpt>
      <trkpt lat="40.647218" lon="-0.571896">
        <ele>1148.482</ele>
        <time>2019-03-11T22:51:57Z</time>
      </trkpt>
      <trkpt lat="40.647092" lon="-0.572130">
        <ele>1149.126</ele>
        <time>2019-03-11T22:52:37Z</time>
      </trkpt>
      <trkpt lat="40.646945" lon="-0.572313">
        <ele>1146.747</ele>
        <time>2019-03-11T22:53:17Z</time>
      </trkpt>
      <trkpt lat="40.646869" lon="-0.572425">
        <ele>1145.011</ele>
        <time>2019-03-11T22:53:57Z</time>
      </trkpt>
      <trkpt lat="40.646792" lon="-0.572537">
        <ele>1145.008</ele>
        <time>2019-03-11T22:54:37Z</time>
      </trkpt>
      <trkpt lat="40.646657" lon="-0.572690">
        <ele>1142.634</ele>
        <time>2019-03-11T22:55:17Z</time>
      </trkpt>
      <trkpt lat="40.646513" lon="-0.572910">
        <ele>1141.555</ele>
        <time>2019-03-11T22:55:57Z</time>
      </trkpt>
      <trkpt lat="40.646364" lon="-0.573089">
        <ele>1144.550</ele>
        <time>2019-03-11T22:56:37Z</time>
      </trkpt>
      <trkpt lat="40.646195" lon="-0.573095">
        <ele>1141.299</ele>
        <time>2019-03-11T22:57:17Z</time>
      </trkpt>
      <trkpt lat="40.646067" lon="-0.573179">
        <ele>1139.155</ele>
        <time>2019-03-11T22:57:57Z</time>
      </trkpt>
      <trkpt lat="40.645940" lon="-0.573264">
        <ele>1133.923</ele>
        <time>2019-03-11T22:58:37Z</time>
      </trkpt>
      <trkpt lat="40.645841" lon="-0.573372">
        <ele>1136.278</ele>
        <time>2019-03-11T22:59:17Z</time>
      </trkpt>
      <trkpt lat="40.645742" lon="-0.573480">
        <ele>1130.537</ele>
        <time>2019-03-11T22:59:57Z</time>
      </trkpt>
      <trkpt lat="40.645635" lon="-0.573626">
        <ele>1132.879</ele>
        <time>2019-03-11T23:00:37Z</time>
      </trkpt>
      <trkpt lat="40.645501" lon="-0.573829">
        <ele>1129.905</ele>
        <time>2019-03-11T23:01:17Z</time>
      </trkpt>
      <trkpt lat="40.645375" lon="-0.573910">
        <ele>1126.625</ele>
        <time>2019-03-11T23:01:57Z</time>
      </trkpt>
      <trkpt lat="40.645250" lon="-0.573990">
        <ele>1119.908</ele>
        <time>2019-03-11T23:02:37Z</time>
      </trkpt>
      <trkpt lat="40.645084" lon="-0.574168">
        <ele>1122.949</ele>
        <time>2019-03-11T23:03:17Z</time>
      </trkpt>
      <trkpt lat="40.644990" lon="-0.574276">
        <ele>1121.080</ele>
        <time>2019-03-11T23:03:57Z</time>
      </trkpt>
      <trkpt lat="40.644897" lon="-0.574383">
        <ele>1121.025</ele>
        <time>2019-03-11T23:04:37Z</time>
      </trkpt>
      <trkpt lat="40.644778" lon="-0.574521">
        <ele>1120.724</ele>
        <time>2019-03-11T23:05:17Z</time>
      </trkpt>
      <trkpt lat="40.644660" lon="-0.574659">
        <ele>1119.020</ele>
        <time>2019-03-11T23:05:57Z</time>
      </trkpt>
      <trkpt lat="40.644502" lon="-0.574828">
        <ele>1114.568</ele>
        <time>2019-03-11T23:06:37Z</time>
      </trkpt>
      <trkpt lat="40.644371" lon="-0.574945">
        <ele>1117.673</ele>
        <time>2019-03-11T23:07:17Z</time>
      </trkpt>
      <trkpt lat="40.644182" lon="-0.575020">
        <ele>1109.882</ele>
        <time>2019-03-11T23:07:57Z</time>
      </trkpt>
      <trkpt lat="40.644012" lon="-0.575188">
        <ele>1104.612</ele>
        <time>2019-03-11T23:08:37Z</time>
      </trkpt>
      <trkpt lat="40.643939" lon="-0.575329">
        <ele>1103.832</ele>
        <time>2019-03-11T23:09:17Z</time>
      </trkpt>
      <trkpt lat="40.643771" lon="-0.575488">
        <ele>1106.105</ele>
        <time>2019-03-11T23:09:57Z</time>
      </trkpt>
      <trkpt lat="40.643586" lon="-0.575642">
        <ele>1103.208</ele>
        <time>2019-03-11T23:10:37Z</time>
      </trkpt>
      <trkpt lat="40.643443" lon="-0.575720">
        <ele>1103.893</ele>
        <time>2019-03-11T23:11:17Z</time>
      </trkpt>
      <trkpt lat="40.643299" lon="-0.575807">
        <ele>1103.864</ele>
        <time>2019-03-11T23:11:57Z</time>
      </trkpt>
      <trkpt lat="40.643161" lon="-0.575943">
        <ele>1103.949</ele>
        <time>2019-03-11T23:12:37Z</time>
      </trkpt>
      <trkpt lat="40.643053" lon="-0.576129">
        <ele>1105.378</ele>
        <time>2019-03-11T23:13:17Z</time>
      </trkpt>
      <trkpt lat="40.642931" lon="-0.576247">
        <ele>1111.024</ele>
        <time>2019-03-11T23:13:57Z</time>
      </trkpt>
      <trkpt lat="40.642765" lon="-0.576333">
        <ele>1108.092</ele>
        <time>2019-03-11T23:14:37Z</time>
      </trkpt>
      <trkpt lat="40.642612" lon="-0.576393">
        <ele>1108.087</ele>
        <time>2019-03-11T23:15:17Z</time>
      </trkpt>
      <trkpt lat="40.642507" lon="-0.576507">
        <ele>1101.156</ele>
        <time>2019-03-11T23:15:57Z</time>
      </trkpt>
      <trkpt lat="40.642400" lon="-0.576637">
        <ele>1104.021</ele>
        <time>2019-03-11T23:16:37Z</time>
      </trkpt>
      <trkpt lat="40.642304" lon="-0.576832">
        <ele>1098.241</ele>
        <time>2019-03-11T23:17:17Z</time>
      </trkpt>
      <trkpt lat="40.642261" lon="-0.577073">
        <ele>1098.305</ele>
        <time>2019-03-11T23:17:57Z</time>
      </trkpt>
      <trkpt lat="40.642233" lon="-0.577290">
        <ele>1094.508</ele>
        <time>2019-03-11T23:18:37Z</time>
      </trkpt>
      <trkpt lat="40.642212" lon="-0.577515">
        <ele>1090.964</ele>
        <time>2019-03-11T23:19:17Z</time>
      </trkpt>
      <trkpt lat="40.642225" lon="-0.577717">
        <ele>1086.525</ele>
        <time>2019-03-11T23:19:57Z</time>
      </trkpt>
      <trkpt lat="40.642284" lon="-0.577978">
        <ele>1081.390</ele>
        <time>2019-03-11T23:20:37Z</time>
      </trkpt>
      <trkpt lat="40.642376" lon="-0.578229">
        <ele>1081.369</ele>
        <time>2019-03-11T23:21:17Z</time>
      </trkpt>
      <trkpt lat="40.642428" lon="-0.578370">
        <ele>1076.815</ele>
        <time>2019-03-11T23:21:57Z</time>
      </trkpt>
      <trkpt lat="40.642479" lon="-0.578511">
        <ele>1076.853</ele>
        <time>2019-03-11T23:22:37Z</time>
      </trkpt>
      <trkpt lat="40.642448" lon="-0.578712">
        <ele>1079.038</ele>
        <time>2019-03-11T23:23:17Z</time>
      </trkpt>
      <trkpt lat="40.642417" lon="-0.578914">
        <ele>1080.237</ele>
        <time>2019-03-11T23:23:57Z</time>
      </trkpt>
      <trkpt lat="40.642345" lon="-0.579049">
        <ele>1072.488</ele>
        <time>2019-03-11T23:24:37Z</time>
      </trkpt>
      <trkpt lat="40.642272" lon="-0.579184">
        <ele>1076.324</ele>
        <time>2019-03-11T23:25:17Z</time>
      </trkpt>
      <trkpt lat="40.642142" lon="-0.579371">
        <ele>1077.926</ele>
        <time>2019-03-11T23:25:57Z</time>
      </trkpt>
      <trkpt lat="40.642067" lon="-0.579519">
        <ele>1082.008</ele>
        <time>2019-03-11T23:26:37Z</time>
      </trkpt>
      <trkpt lat="40.641993" lon="-0.579667">
        <ele>1080.790</ele>
        <time>2019-03-11T23:27:17Z</time>
      </trkpt>
      <trkpt lat="40.641937" lon="-0.579927">
        <ele>1078.591</ele>
        <time>2019-03-11T23:27:57Z</time>
      </trkpt>
      <trkpt lat="40.641944" lon="-0.580206">
        <ele>1072.796</ele>
        <time>2019-03-11T23:28:37Z</time>
      </trkpt>
      <trkpt lat="40.642011" lon="-0.580431">
        <ele>1070.035</ele>
        <time>2019-03-11T23:29:17Z</time>
      </trkpt>
      <trkpt lat="40.642090" lon="-0.580606">
        <ele>1069.631</ele>
        <time>2019-03-11T23:29:57Z</time>
      </trkpt>
      <trkpt lat="40.642224" lon="-0.580835">
        <ele>1066.699</ele>
        <time>2019-03-11T23:30:37Z</time>
      </trkpt>
      <trkpt lat="40.642249" lon="-0.581021">
        <ele>1062.554</ele>
        <time>2019-03-11T23:31:17Z</time>
      </trkpt>
      <trkpt lat="40.642275" lon="-0.581208">
        <ele>1058.623</ele>
        <time>2019-03-11T23:31:57Z</time>
      </trkpt>
      <trkpt lat="40.642304" lon="-0.581361">
        <ele>1054.143</ele>
        <time>2019-03-11T23:32:37Z</time>
      </trkpt>
      <trkpt lat="40.642332" lon="-0.581514">
        <ele>1050.064</ele>
        <time>2019-03-11T23:33:17Z</time>
      </trkpt>
      <trkpt lat="40.642320" lon="-0.581667">
        <ele>1048.210</ele>
        <time>2019-03-11T23:33:57Z</time>
      </trkpt>
      <trkpt lat="40.642308" lon="-0.581821">
        <ele>1045.408</ele>
        <time>2019-03-11T23:34:37Z</time>
      </trkpt>
      <trkpt lat="40.642223" lon="-0.582064">
        <ele>1042.046</ele>
        <time>2019-03-11T23:35:17Z</time>
      </trkpt>
      <trkpt lat="40.642190" lon="-0.582239">
        <ele>1036.597</ele>
        <time>2019-03-11T23:35:57Z</time>
      </trkpt>
      <trkpt lat="40.642158" lon="-0.582415">
        <ele>1033.312</ele>
        <time>2019-03-11T23:36:37Z</time>
      </trkpt>
      <trkpt lat="40.642082" lon="-0.582680">
        <ele>1031.391</ele>
        <time>2019-03-11T23:37:17Z</time>
      </trkpt>
      <trkpt lat="40.642029" lon="-0.582950">
        <ele>1030.137</ele>
        <time>2019-03-11T23:37:57Z</time>
      </trkpt>
      <trkpt lat="40.642044" lon="-0.583120">
        <ele>1028.325</ele>
        <time>2019-03-11T23:38:37Z</time>
      </trkpt>
      <trkpt lat="40.642059" lon="-0.583290">
        <ele>1027.050</ele>
        <time>2019-03-11T23:39:17Z</time>
      </trkpt>
      <trkpt lat="40.642085" lon="-0.583471">
        <ele>1026.749</ele>
        <time>2019-03-11T23:39:57Z</time>
      </trkpt>
      <trkpt lat="40.642112" lon="-0.583651">
        <ele>1026.967</ele>
        <time>2019-03-11T23:40:37Z</time>
      </trkpt>
      <trkpt lat="40.642103" lon="-0.583814">
        <ele>1027.381</ele>
        <time>2019-03-11T23:41:17Z</time>
      </trkpt>
      <trkpt lat="40.642094" lon="-0.583977">
        <ele>1023.119</ele>
        <time>2019-03-11T23:41:57Z</time>
      </trkpt>
      <trkpt lat="40.642186" lon="-0.584076">
        <ele>1023.108</ele>
        <time>2019-03-11T23:42:37Z</time>
      </trkpt>
      <trkpt lat="40.642278" lon="-0.584174">
        <ele>1015.788</ele>
        <time>2019-03-11T23:43:17Z</time>
      </trkpt>
      <trkpt lat="40.642469" lon="-0.584292">
        <ele>1009.179</ele>
        <time>2019-03-11T23:43:57Z</time>
      </trkpt>
      <trkpt lat="40.642588" lon="-0.584317">
        <ele>1008.194</ele>
        <time>2019-03-11T23:44:37Z</time>
      </trkpt>
      <trkpt lat="40.642706" lon="-0.584343">
        <ele>1008.153</ele>
        <time>2019-03-11T23:45:17Z</time>
      </trkpt>
      <trkpt lat="40.642756" lon="-0.584572">
        <ele>1005.419</ele>
        <time>2019-03-11T23:45:57Z</time>
      </trkpt>
      <trkpt lat="40.642666" lon="-0.584805">
        <ele>998.967</ele>
        <time>2019-03-11T23:46:37Z</time>
      </trkpt>
      <trkpt lat="40.642627" lon="-0.585045">
        <ele>993.442</ele>
        <time>2019-03-11T23:47:17Z</time>
      </trkpt>
      <trkpt lat="40.642650" lon="-0.585246">
        <ele>990.941</ele>
        <time>2019-03-11T23:47:57Z</time>
      </trkpt>
      <trkpt lat="40.642747" lon="-0.585426">
        <ele>992.423</ele>
        <time>2019-03-11T23:48:37Z</time>
      </trkpt>
      <trkpt lat="40.642871" lon="-0.585618">
        <ele>991.083</ele>
        <time>2019-03-11T23:49:17Z</time>
      </trkpt>
      <trkpt lat="40.642825" lon="-0.585862">
        <ele>991.111</ele>
        <time>2019-03-11T23:49:57Z</time>
      </trkpt>
      <trkpt lat="40.642822" lon="-0.586024">
        <ele>990.508</ele>
        <time>2019-03-11T23:50:37Z</time>
      </trkpt>
      <trkpt lat="40.642818" lon="-0.586185">
        <ele>989.564</ele>
        <time>2019-03-11T23:51:17Z</time>
      </trkpt>
      <trkpt lat="40.642838" lon="-0.586357">
        <ele>987.515</ele>
        <time>2019-03-11T23:51:57Z</time>
      </trkpt>
      <trkpt lat="40.642858" lon="-0.586529">
        <ele>985.540</ele>
        <time>2019-03-11T23:52:37Z</time>
      </trkpt>
      <trkpt lat="40.642929" lon="-0.586663">
        <ele>984.499</ele>
        <time>2019-03-11T23:53:17Z</time>
      </trkpt>
      <trkpt lat="40.642999" lon="-0.586797">
        <ele>984.435</ele>
        <time>2019-03-11T23:53:57Z</time>
      </trkpt>
      <trkpt lat="40.643079" lon="-0.586934">
        <ele>982.453</ele>
        <time>2019-03-11T23:54:37Z</time>
      </trkpt>
      <trkpt lat="40.643159" lon="-0.587071">
        <ele>981.448</ele>
        <time>2019-03-11T23:55:17Z</time>
      </trkpt>
      <trkpt lat="40.643188" lon="-0.587215">
        <ele>980.497</ele>
        <time>2019-03-11T23:55:57Z</time>
      </trkpt>
      <trkpt lat="40.643218" lon="-0.587358">
        <ele>980.051</ele>
        <time>2019-03-11T23:56:37Z</time>
      </trkpt>
      <trkpt lat="40.643273" lon="-0.587585">
        <ele>980.001</ele>
        <time>2019-03-11T23:57:17Z</time>
      </trkpt>
      <trkpt lat="40.643304" lon="-0.587658">
        <ele>980.011</ele>
        <time>2019-03-11T23:57:57Z</time>
      </trkpt>
      <trkpt lat="40.643375" lon="-0.587830">
        <ele>980.108</ele>
        <time>2019-03-11T23:58:37Z</time>
      </trkpt>
      <trkpt lat="40.643403" lon="-0.588087">
        <ele>978.297</ele>
        <time>2019-03-11T23:59:17Z</time>
      </trkpt>
      <trkpt lat="40.643371" lon="-0.588312">
        <ele>975.288</ele>
        <time>2019-03-11T23:59:57Z</time>
      </trkpt>
      <trkpt lat="40.643281" lon="-0.588565">
        <ele>971.373</ele>
        <time>2019-03-12T00:00:37Z</time>
      </trkpt>
      <trkpt lat="40.643206" lon="-0.588800">
        <ele>968.062</ele>
        <time>2019-03-12T00:01:17Z</time>
      </trkpt>
      <trkpt lat="40.643140" lon="-0.589075">
        <ele>964.948</ele>
        <time>2019-03-12T00:01:57Z</time>
      </trkpt>
      <trkpt lat="40.643099" lon="-0.589225">
        <ele>963.846</ele>
        <time>2019-03-12T00:02:37Z</time>
      </trkpt>
      <trkpt lat="40.643057" lon="-0.589374">
        <ele>960.321</ele>
        <time>2019-03-12T00:03:17Z</time>
      </trkpt>
      <trkpt lat="40.643001" lon="-0.589613">
        <ele>960.060</ele>
        <time>2019-03-12T00:03:57Z</time>
      </trkpt>
      <trkpt lat="40.642924" lon="-0.589836">
        <ele>959.572</ele>
        <time>2019-03-12T00:04:37Z</time>
      </trkpt>
      <trkpt lat="40.642862" lon="-0.590029">
        <ele>955.813</ele>
        <time>2019-03-12T00:05:17Z</time>
      </trkpt>
      <trkpt lat="40.642823" lon="-0.590073">
        <ele>954.214</ele>
        <time>2019-03-12T00:05:57Z</time>
      </trkpt>
      <trkpt lat="40.642737" lon="-0.590210">
        <ele>954.208</ele>
        <time>2019-03-12T00:06:37Z</time>
      </trkpt>
      <trkpt lat="40.642635" lon="-0.590416">
        <ele>950.459</ele>
        <time>2019-03-12T00:07:17Z</time>
      </trkpt>
      <trkpt lat="40.642509" lon="-0.590691">
        <ele>951.840</ele>
        <time>2019-03-12T00:07:57Z</time>
      </trkpt>
      <trkpt lat="40.642409" lon="-0.590664">
        <ele>951.825</ele>
        <time>2019-03-12T00:08:37Z</time>
      </trkpt>
      <trkpt lat="40.642251" lon="-0.590613">
        <ele>954.444</ele>
        <time>2019-03-12T00:09:17Z</time>
      </trkpt>
      <trkpt lat="40.642142" lon="-0.590772">
        <ele>959.290</ele>
        <time>2019-03-12T00:09:57Z</time>
      </trkpt>
      <trkpt lat="40.642140" lon="-0.590852">
        <ele>959.238</ele>
        <time>2019-03-12T00:10:37Z</time>
      </trkpt>
      <trkpt lat="40.642217" lon="-0.591090">
        <ele>958.033</ele>
        <time>2019-03-12T00:11:17Z</time>
      </trkpt>
      <trkpt lat="40.642336" lon="-0.591270">
        <ele>959.552</ele>
        <time>2019-03-12T00:11:57Z</time>
      </trkpt>
      <trkpt lat="40.642510" lon="-0.591382">
        <ele>955.671</ele>
        <time>2019-03-12T00:12:37Z</time>
      </trkpt>
      <trkpt lat="40.642703" lon="-0.591506">
        <ele>952.741</ele>
        <time>2019-03-12T00:13:17Z</time>
      </trkpt>
      <trkpt lat="40.642904" lon="-0.591615">
        <ele>951.415</ele>
        <time>2019-03-12T00:13:57Z</time>
      </trkpt>
      <trkpt lat="40.643092" lon="-0.591540">
        <ele>950.508</ele>
        <time>2019-03-12T00:14:37Z</time>
      </trkpt>
      <trkpt lat="40.643216" lon="-0.591561">
        <ele>949.339</ele>
        <time>2019-03-12T00:15:17Z</time>
      </trkpt>
      <trkpt lat="40.643356" lon="-0.591764">
        <ele>946.990</ele>
        <time>2019-03-12T00:15:57Z</time>
      </trkpt>
      <trkpt lat="40.643459" lon="-0.591908">
        <ele>945.365</ele>
        <time>2019-03-12T00:16:37Z</time>
      </trkpt>
      <trkpt lat="40.643568" lon="-0.592031">
        <ele>945.364</ele>
        <time>2019-03-12T00:17:17Z</time>
      </trkpt>
      <trkpt lat="40.643675" lon="-0.592156">
        <ele>943.970</ele>
        <time>2019-03-12T00:17:57Z</time>
      </trkpt>
      <trkpt lat="40.643848" lon="-0.592275">
        <ele>943.478</ele>
        <time>2019-03-12T00:18:37Z</time>
      </trkpt>
      <trkpt lat="40.643988" lon="-0.592367">
        <ele>943.453</ele>
        <time>2019-03-12T00:19:17Z</time>
      </trkpt>
      <trkpt lat="40.644048" lon="-0.592477">
        <ele>945.172</ele>
        <time>2019-03-12T00:19:57Z</time>
      </trkpt>
      <trkpt lat="40.644183" lon="-0.592652">
        <ele>949.311</ele>
        <time>2019-03-12T00:20:37Z</time>
      </trkpt>
      <trkpt lat="40.644244" lon="-0.592645">
        <ele>949.321</ele>
        <time>2019-03-12T00:21:17Z</time>
      </trkpt>
      <trkpt lat="40.644387" lon="-0.592428">
        <ele>949.503</ele>
        <time>2019-03-12T00:21:57Z</time>
      </trkpt>
      <trkpt lat="40.644496" lon="-0.592320">
        <ele>947.208</ele>
        <time>2019-03-12T00:22:37Z</time>
      </trkpt>
      <trkpt lat="40.644667" lon="-0.592201">
        <ele>945.333</ele>
        <time>2019-03-12T00:23:17Z</time>
      </trkpt>
      <trkpt lat="40.644813" lon="-0.592125">
        <ele>946.674</ele>
        <time>2019-03-12T00:23:57Z</time>
      </trkpt>
      <trkpt lat="40.644923" lon="-0.592060">
        <ele>947.969</ele>
        <time>2019-03-12T00:24:37Z</time>
      </trkpt>
      <trkpt lat="40.645122" lon="-0.592064">
        <ele>949.698</ele>
        <time>2019-03-12T00:25:17Z</time>
      </trkpt>
      <trkpt lat="40.645312" lon="-0.592019">
        <ele>950.934</ele>
        <time>2019-03-12T00:25:57Z</time>
      </trkpt>
      <trkpt lat="40.645450" lon="-0.591889">
        <ele>954.142</ele>
        <time>2019-03-12T00:26:37Z</time>
      </trkpt>
      <trkpt lat="40.645586" lon="-0.591762">
        <ele>952.967</ele>
        <time>2019-03-12T00:27:17Z</time>
      </trkpt>
      <trkpt lat="40.645708" lon="-0.591742">
        <ele>956.156</ele>
        <time>2019-03-12T00:27:57Z</time>
      </trkpt>
      <trkpt lat="40.645836" lon="-0.591756">
        <ele>958.666</ele>
        <time>2019-03-12T00:28:37Z</time>
      </trkpt>
      <trkpt lat="40.646011" lon="-0.591873">
        <ele>960.029</ele>
        <time>2019-03-12T00:29:17Z</time>
      </trkpt>
      <trkpt lat="40.646114" lon="-0.591983">
        <ele>960.021</ele>
        <time>2019-03-12T00:29:57Z</time>
      </trkpt>
      <trkpt lat="40.646191" lon="-0.592102">
        <ele>964.108</ele>
        <time>2019-03-12T00:30:37Z</time>
      </trkpt>
      <trkpt lat="40.646288" lon="-0.592291">
        <ele>966.268</ele>
        <time>2019-03-12T00:31:17Z</time>
      </trkpt>
      <trkpt lat="40.646382" lon="-0.592553">
        <ele>973.179</ele>
        <time>2019-03-12T00:31:57Z</time>
      </trkpt>
      <trkpt lat="40.646481" lon="-0.592826">
        <ele>974.414</ele>
        <time>2019-03-12T00:32:37Z</time>
      </trkpt>
      <trkpt lat="40.646481" lon="-0.592826">
        <ele>974.454</ele>
        <time>2019-03-11T19:42:22Z</time>
      </trkpt>
      <trkpt lat="40.646330" lon="-0.592988">
        <ele>979.956</ele>
        <time>2019-03-11T19:43:02Z</time>
      </trkpt>
      <trkpt lat="40.646171" lon="-0.592887">
        <ele>975.111</ele>
        <time>2019-03-11T19:43:42Z</time>
      </trkpt>
      <trkpt lat="40.646031" lon="-0.592971">
        <ele>978.908</ele>
        <time>2019-03-11T19:44:22Z</time>
      </trkpt>
      <trkpt lat="40.645515" lon="-0.593659">
        <ele>978.377</ele>
        <time>2019-03-11T19:45:02Z</time>
      </trkpt>
      <trkpt lat="40.645246" lon="-0.593633">
        <ele>970.398</ele>
        <time>2019-03-11T19:45:42Z</time>
      </trkpt>
      <trkpt lat="40.644546" lon="-0.594022">
        <ele>976.283</ele>
        <time>2019-03-11T19:46:22Z</time>
      </trkpt>
      <trkpt lat="40.644067" lon="-0.594657">
        <ele>988.193</ele>
        <time>2019-03-11T19:47:02Z</time>
      </trkpt>
      <trkpt lat="40.643016" lon="-0.595011">
        <ele>985.158</ele>
        <time>2019-03-11T19:47:42Z</time>
      </trkpt>
      <trkpt lat="40.642312" lon="-0.595662">
        <ele>985.480</ele>
        <time>2019-03-11T19:48:22Z</time>
      </trkpt>
      <trkpt lat="40.641914" lon="-0.595823">
        <ele>986.662</ele>
        <time>2019-03-11T19:49:02Z</time>
      </trkpt>
      <trkpt lat="40.639627" lon="-0.596032">
        <ele>986.969</ele>
        <time>2019-03-11T19:49:42Z</time>
      </trkpt>
      <trkpt lat="40.639304" lon="-0.596320">
        <ele>995.159</ele>
        <time>2019-03-11T19:50:22Z</time>
      </trkpt>
      <trkpt lat="40.638689" lon="-0.596176">
        <ele>1001.703</ele>
        <time>2019-03-11T19:51:02Z</time>
      </trkpt>
      <trkpt lat="40.638408" lon="-0.596269">
        <ele>999.723</ele>
        <time>2019-03-11T19:51:42Z</time>
      </trkpt>
      <trkpt lat="40.638067" lon="-0.596840">
        <ele>1008.008</ele>
        <time>2019-03-11T19:52:22Z</time>
      </trkpt>
      <trkpt lat="40.637170" lon="-0.597355">
        <ele>1019.297</ele>
        <time>2019-03-11T19:53:02Z</time>
      </trkpt>
      <trkpt lat="40.636749" lon="-0.597998">
        <ele>1031.938</ele>
        <time>2019-03-11T19:53:42Z</time>
      </trkpt>
      <trkpt lat="40.636103" lon="-0.598336">
        <ele>1038.653</ele>
        <time>2019-03-11T19:54:22Z</time>
      </trkpt>
      <trkpt lat="40.634780" lon="-0.598481">
        <ele>1024.123</ele>
        <time>2019-03-11T19:55:02Z</time>
      </trkpt>
      <trkpt lat="40.634247" lon="-0.598242">
        <ele>1025.478</ele>
        <time>2019-03-11T19:55:42Z</time>
      </trkpt>
      <trkpt lat="40.633580" lon="-0.598203">
        <ele>1024.150</ele>
        <time>2019-03-11T19:56:22Z</time>
      </trkpt>
      <trkpt lat="40.632659" lon="-0.598642">
        <ele>1022.312</ele>
        <time>2019-03-11T19:57:02Z</time>
      </trkpt>
      <trkpt lat="40.631462" lon="-0.599608">
        <ele>1038.949</ele>
        <time>2019-03-11T19:57:42Z</time>
      </trkpt>
      <trkpt lat="40.630905" lon="-0.599495">
        <ele>1034.645</ele>
        <time>2019-03-11T19:58:22Z</time>
      </trkpt>
      <trkpt lat="40.629790" lon="-0.598907">
        <ele>1023.847</ele>
        <time>2019-03-11T19:59:02Z</time>
      </trkpt>
      <trkpt lat="40.629520" lon="-0.598952">
        <ele>1031.011</ele>
        <time>2019-03-11T19:59:42Z</time>
      </trkpt>
      <trkpt lat="40.628581" lon="-0.599246">
        <ele>1037.308</ele>
        <time>2019-03-11T20:00:22Z</time>
      </trkpt>
      <trkpt lat="40.627860" lon="-0.600058">
        <ele>1067.146</ele>
        <time>2019-03-11T20:01:02Z</time>
      </trkpt>
      <trkpt lat="40.626204" lon="-0.600776">
        <ele>1086.937</ele>
        <time>2019-03-11T20:01:42Z</time>
      </trkpt>
      <trkpt lat="40.625858" lon="-0.601200">
        <ele>1090.232</ele>
        <time>2019-03-11T20:02:22Z</time>
      </trkpt>
      <trkpt lat="40.624420" lon="-0.602016">
        <ele>1124.692</ele>
        <time>2019-03-11T20:03:02Z</time>
      </trkpt>
      <trkpt lat="40.623455" lon="-0.602101">
        <ele>1151.047</ele>
        <time>2019-03-11T20:03:42Z</time>
      </trkpt>
      <trkpt lat="40.623463" lon="-0.602388">
        <ele>1174.199</ele>
        <time>2019-03-11T20:04:22Z</time>
      </trkpt>
      <trkpt lat="40.623215" lon="-0.602157">
        <ele>1169.041</ele>
        <time>2019-03-11T20:05:02Z</time>
      </trkpt>
      <trkpt lat="40.622713" lon="-0.602468">
        <ele>1183.128</ele>
        <time>2019-03-11T20:05:42Z</time>
      </trkpt>
      <trkpt lat="40.622593" lon="-0.602330">
        <ele>1183.174</ele>
        <time>2019-03-11T20:06:22Z</time>
      </trkpt>
      <trkpt lat="40.622593" lon="-0.602760">
        <ele>1201.156</ele>
        <time>2019-03-11T20:07:02Z</time>
      </trkpt>
      <trkpt lat="40.622204" lon="-0.602406">
        <ele>1210.721</ele>
        <time>2019-03-11T20:07:42Z</time>
      </trkpt>
      <trkpt lat="40.622308" lon="-0.603161">
        <ele>1229.608</ele>
        <time>2019-03-11T20:08:22Z</time>
      </trkpt>
      <trkpt lat="40.622928" lon="-0.603750">
        <ele>1248.769</ele>
        <time>2019-03-11T20:09:02Z</time>
      </trkpt>
      <trkpt lat="40.622199" lon="-0.603883">
        <ele>1260.410</ele>
        <time>2019-03-11T20:09:42Z</time>
      </trkpt>
      <trkpt lat="40.621481" lon="-0.603519">
        <ele>1271.955</ele>
        <time>2019-03-11T20:10:22Z</time>
      </trkpt>
      <trkpt lat="40.621343" lon="-0.603904">
        <ele>1273.135</ele>
        <time>2019-03-11T20:11:02Z</time>
      </trkpt>
      <trkpt lat="40.619652" lon="-0.606298">
        <ele>1261.690</ele>
        <time>2019-03-11T20:11:42Z</time>
      </trkpt>
      <trkpt lat="40.618898" lon="-0.606661">
        <ele>1263.062</ele>
        <time>2019-03-11T20:12:22Z</time>
      </trkpt>
      <trkpt lat="40.618364" lon="-0.607308">
        <ele>1255.364</ele>
        <time>2019-03-11T20:13:02Z</time>
      </trkpt>
      <trkpt lat="40.615401" lon="-0.607814">
        <ele>1233.291</ele>
        <time>2019-03-11T20:13:42Z</time>
      </trkpt>
      <trkpt lat="40.614731" lon="-0.608408">
        <ele>1229.291</ele>
        <time>2019-03-11T20:14:22Z</time>
      </trkpt>
      <trkpt lat="40.614400" lon="-0.609192">
        <ele>1234.581</ele>
        <time>2019-03-11T20:15:02Z</time>
      </trkpt>
      <trkpt lat="40.614147" lon="-0.608958">
        <ele>1235.719</ele>
        <time>2019-03-11T20:15:42Z</time>
      </trkpt>
      <trkpt lat="40.613780" lon="-0.608931">
        <ele>1238.308</ele>
        <time>2019-03-11T20:16:22Z</time>
      </trkpt>
      <trkpt lat="40.613378" lon="-0.608687">
        <ele>1237.281</ele>
        <time>2019-03-11T20:17:02Z</time>
      </trkpt>
      <trkpt lat="40.612906" lon="-0.609372">
        <ele>1239.462</ele>
        <time>2019-03-11T20:17:42Z</time>
      </trkpt>
      <trkpt lat="40.611578" lon="-0.610612">
        <ele>1249.127</ele>
        <time>2019-03-11T20:18:22Z</time>
      </trkpt>
      <trkpt lat="40.610474" lon="-0.610411">
        <ele>1255.917</ele>
        <time>2019-03-11T20:19:02Z</time>
      </trkpt>
      <trkpt lat="40.610259" lon="-0.610007">
        <ele>1255.362</ele>
        <time>2019-03-11T20:19:42Z</time>
      </trkpt>
      <trkpt lat="40.609727" lon="-0.610191">
        <ele>1257.084</ele>
        <time>2019-03-11T20:20:22Z</time>
      </trkpt>
      <trkpt lat="40.608724" lon="-0.610262">
        <ele>1259.566</ele>
        <time>2019-03-11T20:21:02Z</time>
      </trkpt>
      <trkpt lat="40.607605" lon="-0.609937">
        <ele>1260.863</ele>
        <time>2019-03-11T20:21:42Z</time>
      </trkpt>
      <trkpt lat="40.605942" lon="-0.608782">
        <ele>1253.179</ele>
        <time>2019-03-11T20:22:22Z</time>
      </trkpt>
      <trkpt lat="40.605465" lon="-0.608284">
        <ele>1254.005</ele>
        <time>2019-03-11T20:23:02Z</time>
      </trkpt>
      <trkpt lat="40.604473" lon="-0.607698">
        <ele>1254.525</ele>
        <time>2019-03-11T20:23:42Z</time>
      </trkpt>
      <trkpt lat="40.604074" lon="-0.607158">
        <ele>1254.508</ele>
        <time>2019-03-11T20:24:22Z</time>
      </trkpt>
      <trkpt lat="40.603149" lon="-0.606807">
        <ele>1251.939</ele>
        <time>2019-03-11T20:25:02Z</time>
      </trkpt>
      <trkpt lat="40.601628" lon="-0.605618">
        <ele>1223.870</ele>
        <time>2019-03-11T20:25:42Z</time>
      </trkpt>
      <trkpt lat="40.601040" lon="-0.605564">
        <ele>1213.255</ele>
        <time>2019-03-11T20:26:22Z</time>
      </trkpt>
      <trkpt lat="40.600485" lon="-0.605720">
        <ele>1195.815</ele>
        <time>2019-03-11T20:27:02Z</time>
      </trkpt>
      <trkpt lat="40.600014" lon="-0.606319">
        <ele>1188.850</ele>
        <time>2019-03-11T20:27:42Z</time>
      </trkpt>
      <trkpt lat="40.599609" lon="-0.605308">
        <ele>1185.872</ele>
        <time>2019-03-11T20:28:22Z</time>
      </trkpt>
      <trkpt lat="40.598987" lon="-0.605120">
        <ele>1186.754</ele>
        <time>2019-03-11T20:29:02Z</time>
      </trkpt>
      <trkpt lat="40.598674" lon="-0.604822">
        <ele>1184.781</ele>
        <time>2019-03-11T20:29:42Z</time>
      </trkpt>
      <trkpt lat="40.598862" lon="-0.604453">
        <ele>1179.959</ele>
        <time>2019-03-11T20:30:22Z</time>
      </trkpt>
      <trkpt lat="40.599701" lon="-0.604617">
        <ele>1184.203</ele>
        <time>2019-03-11T20:31:02Z</time>
      </trkpt>
      <trkpt lat="40.599921" lon="-0.604510">
        <ele>1186.023</ele>
        <time>2019-03-11T20:31:42Z</time>
      </trkpt>
      <trkpt lat="40.600306" lon="-0.604172">
        <ele>1190.408</ele>
        <time>2019-03-11T20:32:22Z</time>
      </trkpt>
      <trkpt lat="40.600816" lon="-0.603376">
        <ele>1200.477</ele>
        <time>2019-03-11T20:33:02Z</time>
      </trkpt>
      <trkpt lat="40.600485" lon="-0.602488">
        <ele>1221.278</ele>
        <time>2019-03-11T20:33:42Z</time>
      </trkpt>
      <trkpt lat="40.599578" lon="-0.601739">
        <ele>1223.583</ele>
        <time>2019-03-11T20:34:22Z</time>
      </trkpt>
      <trkpt lat="40.599214" lon="-0.601233">
        <ele>1228.953</ele>
        <time>2019-03-11T20:35:02Z</time>
      </trkpt>
      <trkpt lat="40.598857" lon="-0.601151">
        <ele>1230.038</ele>
        <time>2019-03-11T20:35:42Z</time>
      </trkpt>
      <trkpt lat="40.598427" lon="-0.600644">
        <ele>1231.590</ele>
        <time>2019-03-11T20:36:22Z</time>
      </trkpt>
      <trkpt lat="40.598334" lon="-0.600010">
        <ele>1236.832</ele>
        <time>2019-03-11T20:37:02Z</time>
      </trkpt>
      <trkpt lat="40.598455" lon="-0.599363">
        <ele>1242.059</ele>
        <time>2019-03-11T20:37:42Z</time>
      </trkpt>
      <trkpt lat="40.598858" lon="-0.598184">
        <ele>1249.947</ele>
        <time>2019-03-11T20:38:22Z</time>
      </trkpt>
      <trkpt lat="40.599142" lon="-0.597762">
        <ele>1254.029</ele>
        <time>2019-03-11T20:39:02Z</time>
      </trkpt>
      <trkpt lat="40.599129" lon="-0.597471">
        <ele>1254.721</ele>
        <time>2019-03-11T20:39:42Z</time>
      </trkpt>
      <trkpt lat="40.598681" lon="-0.596652">
        <ele>1259.308</ele>
        <time>2019-03-11T20:40:22Z</time>
      </trkpt>
      <trkpt lat="40.597960" lon="-0.595844">
        <ele>1262.676</ele>
        <time>2019-03-11T20:41:02Z</time>
      </trkpt>
      <trkpt lat="40.597249" lon="-0.594404">
        <ele>1275.237</ele>
        <time>2019-03-11T20:41:42Z</time>
      </trkpt>
      <trkpt lat="40.597055" lon="-0.594258">
        <ele>1277.972</ele>
        <time>2019-03-11T20:42:22Z</time>
      </trkpt>
      <trkpt lat="40.596515" lon="-0.594900">
        <ele>1281.492</ele>
        <time>2019-03-11T20:43:02Z</time>
      </trkpt>
      <trkpt lat="40.596207" lon="-0.594724">
        <ele>1283.657</ele>
        <time>2019-03-11T20:43:42Z</time>
      </trkpt>
      <trkpt lat="40.596094" lon="-0.594013">
        <ele>1287.149</ele>
        <time>2019-03-11T20:44:22Z</time>
      </trkpt>
      <trkpt lat="40.594852" lon="-0.591367">
        <ele>1295.151</ele>
        <time>2019-03-11T20:45:02Z</time>
      </trkpt>
      <trkpt lat="40.594750" lon="-0.589864">
        <ele>1303.848</ele>
        <time>2019-03-11T20:45:42Z</time>
      </trkpt>
      <trkpt lat="40.593941" lon="-0.587566">
        <ele>1310.052</ele>
        <time>2019-03-11T20:46:22Z</time>
      </trkpt>
      <trkpt lat="40.592075" lon="-0.585187">
        <ele>1314.153</ele>
        <time>2019-03-11T20:47:02Z</time>
      </trkpt>
      <trkpt lat="40.591608" lon="-0.584258">
        <ele>1319.308</ele>
        <time>2019-03-11T20:47:42Z</time>
      </trkpt>
      <trkpt lat="40.590662" lon="-0.582125">
        <ele>1341.108</ele>
        <time>2019-03-11T20:48:22Z</time>
      </trkpt>
      <trkpt lat="40.590509" lon="-0.581311">
        <ele>1351.247</ele>
        <time>2019-03-11T20:49:02Z</time>
      </trkpt>
      <trkpt lat="40.590629" lon="-0.580317">
        <ele>1365.888</ele>
        <time>2019-03-11T20:49:42Z</time>
      </trkpt>
      <trkpt lat="40.589948" lon="-0.578457">
        <ele>1394.343</ele>
        <time>2019-03-11T20:50:22Z</time>
      </trkpt>
      <trkpt lat="40.589466" lon="-0.577616">
        <ele>1410.273</ele>
        <time>2019-03-11T20:51:02Z</time>
      </trkpt>
      <trkpt lat="40.588753" lon="-0.576938">
        <ele>1421.058</ele>
        <time>2019-03-11T20:51:42Z</time>
      </trkpt>
      <trkpt lat="40.588462" lon="-0.575621">
        <ele>1430.850</ele>
        <time>2019-03-11T20:52:22Z</time>
      </trkpt>
      <trkpt lat="40.588497" lon="-0.574705">
        <ele>1440.582</ele>
        <time>2019-03-11T20:53:02Z</time>
      </trkpt>
      <trkpt lat="40.588140" lon="-0.573408">
        <ele>1451.439</ele>
        <time>2019-03-11T20:53:42Z</time>
      </trkpt>
      <trkpt lat="40.588514" lon="-0.571756">
        <ele>1468.291</ele>
        <time>2019-03-11T20:54:22Z</time>
      </trkpt>
      <trkpt lat="40.588522" lon="-0.570392">
        <ele>1485.381</ele>
        <time>2019-03-11T20:55:02Z</time>
      </trkpt>
      <trkpt lat="40.588372" lon="-0.569406">
        <ele>1500.919</ele>
        <time>2019-03-11T20:55:42Z</time>
      </trkpt>
      <trkpt lat="40.588643" lon="-0.566283">
        <ele>1565.008</ele>
        <time>2019-03-11T20:56:22Z</time>
      </trkpt>
      <trkpt lat="40.588364" lon="-0.565916">
        <ele>1572.411</ele>
        <time>2019-03-11T20:57:02Z</time>
      </trkpt>
      <trkpt lat="40.588626" lon="-0.564474">
        <ele>1588.172</ele>
        <time>2019-03-11T20:57:42Z</time>
      </trkpt>
      <trkpt lat="40.587044" lon="-0.563287">
        <ele>1589.417</ele>
        <time>2019-03-11T20:58:22Z</time>
      </trkpt>
      <trkpt lat="40.586714" lon="-0.562815">
        <ele>1588.947</ele>
        <time>2019-03-11T20:59:02Z</time>
      </trkpt>
      <trkpt lat="40.583897" lon="-0.560477">
        <ele>1603.072</ele>
        <time>2019-03-11T20:59:42Z</time>
      </trkpt>
      <trkpt lat="40.579603" lon="-0.556186">
        <ele>1630.144</ele>
        <time>2019-03-11T21:00:22Z</time>
      </trkpt>
      <trkpt lat="40.577806" lon="-0.554012">
        <ele>1611.966</ele>
        <time>2019-03-11T21:01:02Z</time>
      </trkpt>
      <trkpt lat="40.577320" lon="-0.553677">
        <ele>1606.993</ele>
        <time>2019-03-11T21:01:42Z</time>
      </trkpt>
      <trkpt lat="40.577702" lon="-0.553070">
        <ele>1607.996</ele>
        <time>2019-03-11T21:02:22Z</time>
      </trkpt>
      <trkpt lat="40.578676" lon="-0.553779">
        <ele>1615.631</ele>
        <time>2019-03-11T21:03:02Z</time>
      </trkpt>
      <trkpt lat="40.579018" lon="-0.553845">
        <ele>1608.724</ele>
        <time>2019-03-11T21:03:42Z</time>
      </trkpt>
      <trkpt lat="40.578618" lon="-0.553306">
        <ele>1594.508</ele>
        <time>2019-03-11T21:04:22Z</time>
      </trkpt>
      <trkpt lat="40.579061" lon="-0.552561">
        <ele>1567.791</ele>
        <time>2019-03-11T21:05:02Z</time>
      </trkpt>
      <trkpt lat="40.579144" lon="-0.551827">
        <ele>1553.282</ele>
        <time>2019-03-11T21:05:42Z</time>
      </trkpt>
      <trkpt lat="40.578254" lon="-0.549946">
        <ele>1535.037</ele>
        <time>2019-03-11T21:06:22Z</time>
      </trkpt>
      <trkpt lat="40.578153" lon="-0.547997">
        <ele>1501.147</ele>
        <time>2019-03-11T21:07:02Z</time>
      </trkpt>
      <trkpt lat="40.577957" lon="-0.547393">
        <ele>1497.442</ele>
        <time>2019-03-11T21:07:42Z</time>
      </trkpt>
      <trkpt lat="40.578019" lon="-0.546879">
        <ele>1491.494</ele>
        <time>2019-03-11T21:08:22Z</time>
      </trkpt>
      <trkpt lat="40.577820" lon="-0.545881">
        <ele>1479.286</ele>
        <time>2019-03-11T21:09:02Z</time>
      </trkpt>
      <trkpt lat="40.576148" lon="-0.542291">
        <ele>1470.093</ele>
        <time>2019-03-11T21:09:42Z</time>
      </trkpt>
      <trkpt lat="40.579165" lon="-0.538517">
        <ele>1445.237</ele>
        <time>2019-03-11T21:10:22Z</time>
      </trkpt>
      <trkpt lat="40.578586" lon="-0.537065">
        <ele>1441.149</ele>
        <time>2019-03-11T21:11:02Z</time>
      </trkpt>
      <trkpt lat="40.578586" lon="-0.537065">
        <ele>1441.145</ele>
        <time>2019-03-11T19:42:45Z</time>
      </trkpt>
      <trkpt lat="40.578419" lon="-0.536540">
        <ele>1440.047</ele>
        <time>2019-03-11T19:43:25Z</time>
      </trkpt>
      <trkpt lat="40.577374" lon="-0.536690">
        <ele>1447.511</ele>
        <time>2019-03-11T19:44:05Z</time>
      </trkpt>
      <trkpt lat="40.576695" lon="-0.535959">
        <ele>1451.808</ele>
        <time>2019-03-11T19:44:45Z</time>
      </trkpt>
      <trkpt lat="40.576259" lon="-0.536048">
        <ele>1452.156</ele>
        <time>2019-03-11T19:45:25Z</time>
      </trkpt>
      <trkpt lat="40.575560" lon="-0.535708">
        <ele>1456.717</ele>
        <time>2019-03-11T19:46:05Z</time>
      </trkpt>
      <trkpt lat="40.574768" lon="-0.536490">
        <ele>1454.642</ele>
        <time>2019-03-11T19:46:45Z</time>
      </trkpt>
      <trkpt lat="40.571882" lon="-0.540297">
        <ele>1499.611</ele>
        <time>2019-03-11T19:47:25Z</time>
      </trkpt>
      <trkpt lat="40.571156" lon="-0.540059">
        <ele>1513.337</ele>
        <time>2019-03-11T19:48:05Z</time>
      </trkpt>
      <trkpt lat="40.569532" lon="-0.540187">
        <ele>1550.075</ele>
        <time>2019-03-11T19:48:45Z</time>
      </trkpt>
      <trkpt lat="40.568101" lon="-0.539832">
        <ele>1564.022</ele>
        <time>2019-03-11T19:49:25Z</time>
      </trkpt>
      <trkpt lat="40.566278" lon="-0.539944">
        <ele>1600.030</ele>
        <time>2019-03-11T19:50:05Z</time>
      </trkpt>
      <trkpt lat="40.565808" lon="-0.539755">
        <ele>1605.529</ele>
        <time>2019-03-11T19:50:45Z</time>
      </trkpt>
      <trkpt lat="40.563662" lon="-0.538219">
        <ele>1619.700</ele>
        <time>2019-03-11T19:51:25Z</time>
      </trkpt>
      <trkpt lat="40.563183" lon="-0.538041">
        <ele>1619.120</ele>
        <time>2019-03-11T19:52:05Z</time>
      </trkpt>
      <trkpt lat="40.562150" lon="-0.538047">
        <ele>1632.208</ele>
        <time>2019-03-11T19:52:45Z</time>
      </trkpt>
      <trkpt lat="40.561688" lon="-0.538465">
        <ele>1646.374</ele>
        <time>2019-03-11T19:53:25Z</time>
      </trkpt>
      <trkpt lat="40.561240" lon="-0.538384">
        <ele>1649.465</ele>
        <time>2019-03-11T19:54:05Z</time>
      </trkpt>
      <trkpt lat="40.561075" lon="-0.538501">
        <ele>1649.540</ele>
        <time>2019-03-11T19:54:45Z</time>
      </trkpt>
      <trkpt lat="40.560442" lon="-0.538189">
        <ele>1659.289</ele>
        <time>2019-03-11T19:55:25Z</time>
      </trkpt>
      <trkpt lat="40.558846" lon="-0.536985">
        <ele>1679.555</ele>
        <time>2019-03-11T19:56:05Z</time>
      </trkpt>
      <trkpt lat="40.558557" lon="-0.536844">
        <ele>1678.473</ele>
        <time>2019-03-11T19:56:45Z</time>
      </trkpt>
      <trkpt lat="40.557496" lon="-0.536799">
        <ele>1658.660</ele>
        <time>2019-03-11T19:57:25Z</time>
      </trkpt>
      <trkpt lat="40.556640" lon="-0.536073">
        <ele>1657.758</ele>
        <time>2019-03-11T19:58:05Z</time>
      </trkpt>
      <trkpt lat="40.556421" lon="-0.535629">
        <ele>1664.524</ele>
        <time>2019-03-11T19:58:45Z</time>
      </trkpt>
      <trkpt lat="40.556404" lon="-0.535082">
        <ele>1669.004</ele>
        <time>2019-03-11T19:59:25Z</time>
      </trkpt>
      <trkpt lat="40.556914" lon="-0.534171">
        <ele>1660.414</ele>
        <time>2019-03-11T20:00:05Z</time>
      </trkpt>
      <trkpt lat="40.556637" lon="-0.533779">
        <ele>1662.608</ele>
        <time>2019-03-11T20:00:45Z</time>
      </trkpt>
      <trkpt lat="40.555293" lon="-0.532745">
        <ele>1666.964</ele>
        <time>2019-03-11T20:01:25Z</time>
      </trkpt>
      <trkpt lat="40.554242" lon="-0.531600">
        <ele>1680.565</ele>
        <time>2019-03-11T20:02:05Z</time>
      </trkpt>
      <trkpt lat="40.551959" lon="-0.529954">
        <ele>1683.340</ele>
        <time>2019-03-11T20:02:45Z</time>
      </trkpt>
      <trkpt lat="40.551525" lon="-0.529398">
        <ele>1684.579</ele>
        <time>2019-03-11T20:03:25Z</time>
      </trkpt>
      <trkpt lat="40.551184" lon="-0.528560">
        <ele>1692.095</ele>
        <time>2019-03-11T20:04:05Z</time>
      </trkpt>
      <trkpt lat="40.550539" lon="-0.528046">
        <ele>1702.923</ele>
        <time>2019-03-11T20:04:45Z</time>
      </trkpt>
      <trkpt lat="40.550250" lon="-0.527479">
        <ele>1709.050</ele>
        <time>2019-03-11T20:05:25Z</time>
      </trkpt>
      <trkpt lat="40.549437" lon="-0.526851">
        <ele>1713.938</ele>
        <time>2019-03-11T20:06:05Z</time>
      </trkpt>
      <trkpt lat="40.548861" lon="-0.526040">
        <ele>1717.736</ele>
        <time>2019-03-11T20:06:45Z</time>
      </trkpt>
      <trkpt lat="40.547843" lon="-0.525026">
        <ele>1724.117</ele>
        <time>2019-03-11T20:07:25Z</time>
      </trkpt>
      <trkpt lat="40.546977" lon="-0.524715">
        <ele>1723.018</ele>
        <time>2019-03-11T20:08:05Z</time>
      </trkpt>
      <trkpt lat="40.546152" lon="-0.524702">
        <ele>1730.408</ele>
        <time>2019-03-11T20:08:45Z</time>
      </trkpt>
      <trkpt lat="40.545410" lon="-0.525155">
        <ele>1725.785</ele>
        <time>2019-03-11T20:09:25Z</time>
      </trkpt>
      <trkpt lat="40.544327" lon="-0.525250">
        <ele>1721.746</ele>
        <time>2019-03-11T20:10:05Z</time>
      </trkpt>
      <trkpt lat="40.542730" lon="-0.526082">
        <ele>1735.081</ele>
        <time>2019-03-11T20:10:45Z</time>
      </trkpt>
      <trkpt lat="40.541301" lon="-0.525517">
        <ele>1733.910</ele>
        <time>2019-03-11T20:11:25Z</time>
      </trkpt>
      <trkpt lat="40.538895" lon="-0.525600">
        <ele>1718.266</ele>
        <time>2019-03-11T20:12:05Z</time>
      </trkpt>
      <trkpt lat="40.536430" lon="-0.524999">
        <ele>1693.174</ele>
        <time>2019-03-11T20:12:45Z</time>
      </trkpt>
      <trkpt lat="40.534103" lon="-0.525697">
        <ele>1687.381</ele>
        <time>2019-03-11T20:13:25Z</time>
      </trkpt>
      <trkpt lat="40.533488" lon="-0.525686">
        <ele>1685.859</ele>
        <time>2019-03-11T20:14:05Z</time>
      </trkpt>
      <trkpt lat="40.532744" lon="-0.525530">
        <ele>1683.355</ele>
        <time>2019-03-11T20:14:45Z</time>
      </trkpt>
      <trkpt lat="40.531921" lon="-0.525102">
        <ele>1680.707</ele>
        <time>2019-03-11T20:15:25Z</time>
      </trkpt>
      <trkpt lat="40.530454" lon="-0.524042">
        <ele>1678.017</ele>
        <time>2019-03-11T20:16:05Z</time>
      </trkpt>
      <trkpt lat="40.529285" lon="-0.523572">
        <ele>1666.808</ele>
        <time>2019-03-11T20:16:45Z</time>
      </trkpt>
      <trkpt lat="40.528146" lon="-0.522784">
        <ele>1642.057</ele>
        <time>2019-03-11T20:17:25Z</time>
      </trkpt>
      <trkpt lat="40.527131" lon="-0.522645">
        <ele>1627.718</ele>
        <time>2019-03-11T20:18:05Z</time>
      </trkpt>
      <trkpt lat="40.525695" lon="-0.522808">
        <ele>1615.673</ele>
        <time>2019-03-11T20:18:45Z</time>
      </trkpt>
      <trkpt lat="40.525072" lon="-0.522649">
        <ele>1603.722</ele>
        <time>2019-03-11T20:19:25Z</time>
      </trkpt>
      <trkpt lat="40.524487" lon="-0.522891">
        <ele>1598.868</ele>
        <time>2019-03-11T20:20:05Z</time>
      </trkpt>
      <trkpt lat="40.523498" lon="-0.522392">
        <ele>1585.276</ele>
        <time>2019-03-11T20:20:45Z</time>
      </trkpt>
      <trkpt lat="40.522460" lon="-0.522428">
        <ele>1567.073</ele>
        <time>2019-03-11T20:21:25Z</time>
      </trkpt>
      <trkpt lat="40.522080" lon="-0.522678">
        <ele>1568.661</ele>
        <time>2019-03-11T20:22:05Z</time>
      </trkpt>
      <trkpt lat="40.521127" lon="-0.525124">
        <ele>1536.244</ele>
        <time>2019-03-11T20:22:45Z</time>
      </trkpt>
      <trkpt lat="40.519912" lon="-0.525892">
        <ele>1550.205</ele>
        <time>2019-03-11T20:23:25Z</time>
      </trkpt>
      <trkpt lat="40.519334" lon="-0.527208">
        <ele>1548.215</ele>
        <time>2019-03-11T20:24:05Z</time>
      </trkpt>
      <trkpt lat="40.518619" lon="-0.527517">
        <ele>1556.308</ele>
        <time>2019-03-11T20:24:45Z</time>
      </trkpt>
      <trkpt lat="40.518452" lon="-0.528670">
        <ele>1545.636</ele>
        <time>2019-03-11T20:25:25Z</time>
      </trkpt>
      <trkpt lat="40.518244" lon="-0.529011">
        <ele>1542.657</ele>
        <time>2019-03-11T20:26:05Z</time>
      </trkpt>
      <trkpt lat="40.518005" lon="-0.529120">
        <ele>1538.482</ele>
        <time>2019-03-11T20:26:45Z</time>
      </trkpt>
      <trkpt lat="40.516981" lon="-0.528921">
        <ele>1523.951</ele>
        <time>2019-03-11T20:27:25Z</time>
      </trkpt>
      <trkpt lat="40.516064" lon="-0.528488">
        <ele>1510.947</ele>
        <time>2019-03-11T20:28:05Z</time>
      </trkpt>
      <trkpt lat="40.515097" lon="-0.528291">
        <ele>1497.125</ele>
        <time>2019-03-11T20:28:45Z</time>
      </trkpt>
      <trkpt lat="40.515034" lon="-0.528488">
        <ele>1491.842</ele>
        <time>2019-03-11T20:29:25Z</time>
      </trkpt>
      <trkpt lat="40.514710" lon="-0.528129">
        <ele>1482.830</ele>
        <time>2019-03-11T20:30:05Z</time>
      </trkpt>
      <trkpt lat="40.514336" lon="-0.526915">
        <ele>1479.177</ele>
        <time>2019-03-11T20:30:45Z</time>
      </trkpt>
      <trkpt lat="40.513131" lon="-0.527652">
        <ele>1474.561</ele>
        <time>2019-03-11T20:31:25Z</time>
      </trkpt>
      <trkpt lat="40.511881" lon="-0.527482">
        <ele>1463.227</ele>
        <time>2019-03-11T20:32:05Z</time>
      </trkpt>
      <trkpt lat="40.511092" lon="-0.526573">
        <ele>1448.508</ele>
        <time>2019-03-11T20:32:45Z</time>
      </trkpt>
      <trkpt lat="40.510553" lon="-0.525452">
        <ele>1433.019</ele>
        <time>2019-03-11T20:33:25Z</time>
      </trkpt>
      <trkpt lat="40.509670" lon="-0.525102">
        <ele>1415.870</ele>
        <time>2019-03-11T20:34:05Z</time>
      </trkpt>
      <trkpt lat="40.509477" lon="-0.524636">
        <ele>1415.965</ele>
        <time>2019-03-11T20:34:45Z</time>
      </trkpt>
      <trkpt lat="40.508707" lon="-0.523727">
        <ele>1412.434</ele>
        <time>2019-03-11T20:35:25Z</time>
      </trkpt>
      <trkpt lat="40.508353" lon="-0.524061">
        <ele>1402.040</ele>
        <time>2019-03-11T20:36:05Z</time>
      </trkpt>
      <trkpt lat="40.508108" lon="-0.524063">
        <ele>1398.498</ele>
        <time>2019-03-11T20:36:45Z</time>
      </trkpt>
      <trkpt lat="40.507728" lon="-0.523471">
        <ele>1400.525</ele>
        <time>2019-03-11T20:37:25Z</time>
      </trkpt>
      <trkpt lat="40.507261" lon="-0.523146">
        <ele>1396.363</ele>
        <time>2019-03-11T20:38:05Z</time>
      </trkpt>
      <trkpt lat="40.507636" lon="-0.522155">
        <ele>1373.191</ele>
        <time>2019-03-11T20:38:45Z</time>
      </trkpt>
      <trkpt lat="40.507386" lon="-0.522261">
        <ele>1372.981</ele>
        <time>2019-03-11T20:39:25Z</time>
      </trkpt>
      <trkpt lat="40.505777" lon="-0.522267">
        <ele>1358.019</ele>
        <time>2019-03-11T20:40:05Z</time>
      </trkpt>
      <trkpt lat="40.505483" lon="-0.521947">
        <ele>1355.508</ele>
        <time>2019-03-11T20:40:45Z</time>
      </trkpt>
      <trkpt lat="40.505330" lon="-0.522035">
        <ele>1351.841</ele>
        <time>2019-03-11T20:41:25Z</time>
      </trkpt>
      <trkpt lat="40.504855" lon="-0.521899">
        <ele>1351.292</ele>
        <time>2019-03-11T20:42:05Z</time>
      </trkpt>
      <trkpt lat="40.504376" lon="-0.521385">
        <ele>1351.037</ele>
        <time>2019-03-11T20:42:45Z</time>
      </trkpt>
    </trkseg>
  </trk>
</gpx>
